[[{"header":{"parameterUnit":"m.s-1","parameterCategory":1,"la1":30.6,"la2":28.766,"lo1":-90.7593,"lo2":-88.6598,"dx":0.0162,"dy":0.0183,"nx":116,"ny":114,"refTime":"2023-01-30T06:00:00:Z","depth":0,"parameterNumber":2,"parameterNumberName":"U-component_of_WINDS"},"data":[0.0,0.0,0.0,0.0,0.0,0.0,0.0,0.0,0.0,0.0,0.0,0.0,0.0,0.0,0.0,0.0,0.0,0.0,0.0,0.0,0.0,0.0,0.0,0.0,0.0,0.0,0.0,0.0,0.0,0.0,0.0,0.0,0.0,0.0,0.0,0.0,0.0,0.0,0.0,0.0,0.0,0.0,0.0,0.0,0.0,0.0,0.0,0.0,0.0,0.0,0.0,0.0,0.0,0.0,0.0,0.0,0.0,0.0,0.0,0.0,0.0,0.0,0.0,0.0,0.0,0.0,0.0,0.0,0.0,0.0,0.0,0.0,0.0,0.0,0.0,0.0,0.0,0.0,0.0,0.0,0.0,0.0,0.0,0.0,0.0,0.0,0.0,0.0,0.0,0.0,0.0,0.0,0.0,0.0,0.0,0.0,0.0,0.0,0.0,0.0,0.0,0.0,0.0,0.0,0.0,0.0,0.0,0.0,0.0,0.0,0.0,0.0,0.0,0.0,0.0,0.0,0.0,0.0,0.0,0.0,0.0,0.0,0.0,0.0,0.0,0.0,0.0,0.0,0.0,0.0,0.0,0.0,0.0,0.0,0.0,0.0,0.0,0.0,0.0,0.0,0.0,0.0,0.0,0.0,0.0,0.0,0.0,0.0,0.0,0.0,0.0,0.0,0.0,0.0,0.0,0.0,0.0,0.0,0.0,0.0,0.0,0.0,0.0,0.0,0.0,0.0,0.0,0.0,0.0,0.0,0.0,0.0,0.0,0.0,0.0,0.0,0.0,0.0,0.0,0.0,0.0,0.0,0.0,0.0,0.0,0.0,0.0,0.0,0.0,0.0,0.0,0.0,0.0,0.0,0.0,0.0,0.0,0.0,0.0,0.0,0.0,0.0,0.0,0.0,0.0,0.0,0.0,0.0,0.0,0.0,0.0,0.0,0.0,0.0,0.0,0.0,0.0,0.0,0.0,0.0,0.0,0.0,0.0,0.0,0.0,0.0,0.0,0.0,0.0,0.0,0.0,0.0,0.0,0.0,0.0,0.0,0.0,0.0,0.0,0.0,0.0,0.0,0.0,0.0,0.0,0.0,0.0,0.0,0.0,0.0,0.0,0.0,0.0,0.0,0.0,0.0,0.0,0.0,0.0,0.0,0.0,0.0,0.0,0.0,0.0,0.0,0.0,0.0,0.0,0.0,0.0,0.0,0.0,0.0,0.0,0.0,0.0,0.0,0.0,0.0,0.0,0.0,0.0,0.0,0.0,0.0,0.0,0.0,0.0,0.0,0.0,0.0,0.0,0.0,0.0,0.0,0.0,0.0,0.0,0.0,0.0,0.0,0.0,0.0,0.0,0.0,0.0,0.0,0.0,0.0,0.0,0.0,0.0,0.0,0.0,0.0,0.0,0.0,0.0,0.0,0.0,0.0,0.0,0.0,0.0,0.0,0.0,0.0,0.0,0.0,0.0,0.0,0.0,0.0,0.0,0.0,0.0,0.0,0.0,0.0,0.0,0.0,0.0,0.0,0.0,0.0,0.0,0.0,0.0,0.0,0.0,0.0,0.0,0.0,0.0,0.0,0.0,0.0,0.0,0.0,0.0,0.0,0.0,0.0,0.0,0.0,0.0,0.0,0.0,0.0,0.0,0.0,0.0,0.0,0.0,0.0,0.0,0.0,0.0,0.0,0.0,0.0,0.0,0.0,0.0,0.0,0.0,0.0,0.0,0.0,0.0,0.0,0.0,0.0,0.0,0.0,0.0,0.0,0.0,0.0,0.0,0.0,0.0,0.0,0.0,0.0,0.0,0.0,0.0,0.0,0.0,0.0,0.0,0.0,0.0,0.0,0.0,0.0,0.0,0.0,0.0,0.0,0.0,0.0,0.0,0.0,0.0,0.0,0.0,0.0,0.0,0.0,0.0,0.0,0.0,0.0,0.0,0.0,0.0,0.0,0.0,0.0,0.0,0.0,0.0,0.0,0.0,0.0,0.0,0.0,0.0,0.0,0.0,0.0,0.0,0.0,0.0,0.0,0.0,0.0,0.0,0.0,0.0,0.0,0.0,0.0,0.0,0.0,0.0,0.0,0.0,0.0,0.0,0.0,0.0,0.0,0.0,0.0,0.0,0.0,0.0,0.0,0.0,0.0,0.0,0.0,0.0,0.0,0.0,0.0,0.0,0.0,0.0,0.0,0.0,0.0,0.0,0.0,0.0,0.0,0.0,0.0,0.0,0.0,0.0,0.0,0.0,0.0,0.0,0.0,0.0,0.0,0.0,0.0,0.0,0.0,0.0,0.0,0.0,0.0,0.0,0.0,0.0,0.0,0.0,0.0,0.0,0.0,0.0,0.0,0.0,0.0,0.0,0.0,0.0,0.0,0.0,0.0,0.0,0.0,0.0,0.0,0.0,0.0,0.0,0.0,0.0,0.0,0.0,0.0,0.0,0.0,0.0,0.0,0.0,0.0,0.0,0.0,0.0,0.0,0.0,0.0,0.0,0.0,0.0,0.0,0.0,0.0,0.0,0.0,0.0,0.0,0.0,0.0,0.0,0.0,0.0,0.0,0.0,0.0,0.0,0.0,0.0,0.0,0.0,0.0,0.0,0.0,0.0,0.0,0.0,0.0,0.0,0.0,0.0,0.0,0.0,0.0,0.0,0.0,0.0,0.0,0.0,0.0,0.0,0.0,0.0,0.0,0.0,0.0,0.0,0.0,0.0,0.0,0.0,0.0,0.0,0.0,0.0,0.0,0.0,0.0,0.0,0.0,0.0,0.0,0.0,0.0,0.0,0.0,0.0,0.0,0.0,0.0,0.0,0.0,0.0,0.0,0.0,0.0,0.0,0.0,0.0,0.0,0.0,0.0,0.0,0.0,0.0,0.0,0.0,0.0,0.0,0.0,0.0,0.0,0.0,0.0,0.0,0.0,0.0,0.0,0.0,0.0,0.0,0.0,0.0,0.0,0.0,0.0,0.0,0.0,0.0,0.0,0.0,0.0,0.0,0.0,0.0,0.0,0.0,0.0,0.0,0.0,0.0,0.0,0.0,0.0,0.0,0.0,0.0,0.0,0.0,0.0,0.0,0.0,0.0,0.0,0.0,0.0,0.0,0.0,0.0,0.0,0.0,0.0,0.0,0.0,0.0,0.0,0.0,0.0,0.0,0.0,0.0,0.0,0.0,0.0,0.0,0.0,0.0,0.0,0.0,0.0,0.0,0.0,0.0,0.0,0.0,0.0,0.0,0.0,0.0,0.0,0.0,0.0,0.0,0.0,0.0,0.0,0.0,0.0,0.0,0.0,0.0,0.0,0.0,0.0,0.0,0.0,0.0,0.0,0.0,0.0,0.0,0.0,0.0,0.0,0.0,0.0,0.0,0.0,0.0,0.0,0.0,0.0,0.0,0.0,0.0,0.0,0.0,0.0,0.0,0.0,0.0,0.0,0.0,0.0,0.0,0.0,0.0,0.0,0.0,0.0,0.0,0.0,0.0,0.0,0.0,0.0,0.0,0.0,0.0,0.0,0.0,0.0,0.0,0.0,0.0,0.0,0.0,0.0,0.0,0.0,0.0,0.0,0.0,0.0,0.0,0.0,0.0,0.0,0.0,0.0,0.0,0.0,0.0,0.0,0.0,0.0,0.0,0.0,0.0,0.0,0.0,0.0,0.0,0.0,0.0,0.0,0.0,0.0,0.0,0.0,0.0,0.0,0.0,0.0,0.0,0.0,0.0,0.0,0.0,0.0,0.0,0.0,0.0,0.0,0.0,0.0,0.0,0.0,0.0,0.0,0.0,0.0,0.0,0.0,0.0,0.0,0.0,0.0,0.0,0.0,0.0,0.0,0.0,0.0,0.0,0.0,0.0,0.0,0.0,0.0,0.0,0.0,0.0,0.0,0.0,0.0,0.0,0.0,0.0,0.0,0.0,0.0,0.0,0.0,0.0,0.0,0.0,0.0,0.0,0.0,0.0,0.0,0.0,0.0,0.0,0.0,0.0,0.0,0.0,0.0,0.0,0.0,0.0,0.0,0.0,0.0,0.0,0.0,0.0,0.0,0.0,0.0,0.0,0.0,0.0,0.0,0.0,0.0,0.0,0.0,0.0,0.0,0.0,0.0,0.0,0.0,0.0,0.0,0.0,0.0,0.0,0.0,0.0,0.0,0.0,0.0,0.0,0.0,0.0,0.0,0.0,0.0,0.0,0.0,0.0,0.0,0.0,0.0,0.0,0.0,0.0,0.0,0.0,0.0,0.0,0.0,0.0,0.0,0.0,0.0,0.0,0.0,0.0,0.0,0.0,0.0,0.0,0.0,0.0,0.0,0.0,0.0,0.0,0.0,0.0,0.0,0.0,0.0,0.0,0.0,0.0,0.0,0.0,0.0,0.0,0.0,0.0,0.0,0.0,0.0,0.0,0.0,0.0,0.0,0.0,0.0,0.0,0.0,0.0,0.0,0.0,0.0,0.0,0.0,0.0,0.0,0.0,0.0,0.0,0.0,0.0,0.0,0.0,0.0,0.0,0.0,0.0,0.0,0.0,0.0,0.0,0.0,0.0,0.0,0.0,0.0,0.0,0.0,0.0,0.0,0.0,0.0,0.0,0.0,0.0,0.0,0.0,0.0,0.0,0.0,0.0,0.0,0.0,0.0,0.0,0.0,0.0,0.0,0.0,0.0,0.0,0.0,0.0,0.0,0.0,0.0,0.0,0.0,0.0,0.0,0.0,0.0,0.0,0.0,0.0,0.0,0.0,0.0,0.0,0.0,0.0,0.0,0.0,0.0,0.0,0.0,0.0,0.0,0.0,0.0,0.0,0.0,0.0,0.0,0.0,0.0,0.0,0.0,0.0,0.0,0.0,0.0,0.0,0.0,0.0,0.0,0.0,0.0,0.0,0.0,0.0,0.0,0.0,0.0,0.0,0.0,0.0,0.0,0.0,0.0,0.0,0.0,0.0,0.0,0.0,0.0,0.0,0.0,0.0,0.0,0.0,0.0,0.0,0.0,0.0,0.0,0.0,0.0,0.0,0.0,0.0,0.0,0.0,0.0,0.0,0.0,0.0,0.0,0.0,0.0,0.0,0.0,0.0,0.0,0.0,0.0,0.0,0.0,0.0,0.0,0.0,0.0,0.0,0.0,0.0,0.0,0.0,0.0,0.0,0.0,0.0,0.0,0.0,0.0,0.0,0.0,0.0,0.0,0.0,0.0,0.0,0.0,0.0,0.0,0.0,0.0,0.0,0.0,0.0,0.0,0.0,0.0,0.0,0.0,0.0,0.0,0.0,0.0,0.0,0.0,0.0,0.0,0.0,0.0,0.0,0.0,0.0,0.0,0.0,0.0,0.0,0.0,0.0,0.0,0.0,0.0,0.0,0.0,0.0,0.0,0.0,0.0,0.0,0.0,0.0,0.0,0.0,0.0,0.0,0.0,0.0,0.0,0.0,0.0,0.0,0.0,0.0,0.0,0.0,0.0,0.0,0.0,0.0,0.0,0.0,0.0,0.0,0.0,0.0,0.0,0.0,0.0,0.0,0.0,0.0,0.0,0.0,0.0,0.0,0.0,0.0,0.0,0.0,0.0,0.0,0.0,0.0,0.0,0.0,0.0,0.0,0.0,0.0,0.0,0.0,0.0,0.0,0.0,0.0,0.0,0.0,0.0,0.0,0.0,0.0,0.0,0.0,0.0,0.0,0.0,0.0,0.0,0.0,0.0,0.0,0.0,0.0,0.0,0.0,0.0,0.0,0.0,0.0,0.0,0.0,0.0,0.0,0.0,0.0,0.0,0.0,0.0,0.0,0.0,0.0,0.0,0.0,0.0,0.0,0.0,0.0,0.0,0.0,0.0,0.0,0.0,0.0,0.0,0.0,0.0,0.0,0.0,0.0,0.0,0.0,0.0,0.0,0.0,0.0,0.0,0.0,0.0,0.0,0.0,0.0,0.0,0.0,0.0,0.0,0.0,0.0,0.0,0.0,0.0,0.0,0.0,0.0,0.0,0.0,0.0,0.0,0.0,0.0,0.0,0.0,0.0,0.0,0.0,0.0,0.0,0.0,0.0,0.0,0.0,0.0,0.0,0.0,0.0,0.0,0.0,0.0,0.0,0.0,0.0,0.0,0.0,1.4809,1.5648,0.0,0.0,0.0,0.0,0.0,0.0,0.0,0.0,0.0,0.0,0.0,0.0,0.0,0.0,0.0,0.0,0.0,0.0,0.0,0.0,0.0,0.0,0.0,0.0,0.0,0.0,0.0,0.0,0.0,0.0,0.0,0.0,0.0,0.0,0.0,0.0,0.0,0.0,0.0,0.0,0.0,0.0,0.0,0.0,0.0,0.0,0.0,0.0,0.0,0.0,0.0,0.0,0.0,0.0,0.0,0.0,0.0,0.0,0.0,0.0,0.0,0.0,0.0,0.0,0.0,0.0,0.0,0.0,0.0,0.0,0.0,0.0,0.0,0.0,0.0,0.0,0.0,0.0,0.0,0.0,0.0,0.0,0.0,0.0,0.0,0.0,0.0,0.0,0.0,0.0,0.0,0.0,0.0,0.0,0.0,0.0,0.0,0.0,0.0,0.0,0.0,0.0,0.0,0.0,0.0,0.0,0.0,0.0,0.0,0.0,0.0,0.0,0.0,0.0,1.4222,1.4711,0.0,0.0,0.0,0.0,0.0,0.0,0.0,0.0,0.0,0.0,0.0,0.0,0.0,0.0,0.0,0.0,0.0,0.0,0.0,0.0,0.0,0.0,0.0,0.0,0.0,0.0,0.0,0.0,0.0,0.0,0.0,0.0,0.0,0.0,0.0,0.0,0.0,0.0,0.0,0.0,0.0,0.0,0.0,0.0,0.0,0.0,0.0,0.0,0.0,0.0,0.0,0.0,0.0,0.0,0.0,0.0,0.0,0.0,0.0,0.0,0.0,0.0,0.0,0.0,0.0,0.0,0.0,0.0,0.0,0.0,0.0,0.0,0.0,0.0,0.0,0.0,0.0,0.0,0.0,0.0,0.0,0.0,0.0,0.0,0.0,0.0,0.0,0.0,0.0,0.0,0.0,0.0,0.0,0.0,0.0,0.0,0.0,0.0,0.0,0.0,0.0,0.0,0.0,0.0,0.0,0.0,0.0,0.0,1.5586,1.5348,1.5316,1.4925,1.4262,1.3429,1.3474,1.3484,1.3548,1.4476,0.0,0.0,0.0,0.0,0.0,0.0,0.0,0.0,0.0,0.0,0.0,0.0,0.0,0.0,0.0,0.0,0.0,0.0,0.0,0.0,0.0,0.0,0.0,0.0,0.0,0.0,0.0,0.0,0.0,0.0,0.0,0.0,0.0,0.0,0.0,0.0,0.0,0.0,1.5421,1.5825,1.5749,1.5151,0.0,0.0,0.0,0.0,0.0,0.0,0.0,0.0,0.0,0.0,0.0,0.0,0.0,0.0,0.0,0.0,0.0,0.0,0.0,0.0,0.0,0.0,0.0,0.0,0.0,0.0,0.0,0.0,0.0,0.0,0.0,0.0,0.0,0.0,0.0,0.0,0.0,0.0,0.0,0.0,0.0,0.0,0.0,0.0,1.2107,1.3634,0.0,0.0,0.0,0.0,0.0,0.0,0.0,0.0,0.0,0.0,0.0,0.0,0.0,1.5394,1.5372,1.48,1.45,1.45,1.3854,1.3538,1.352,1.3139,1.2878,1.2639,1.1241,0.0,1.2519,1.1813,0.0,0.0,0.0,0.0,0.0,0.0,0.0,0.0,0.0,0.0,0.0,0.0,0.0,0.0,0.0,0.0,0.0,0.0,0.0,0.0,0.0,0.0,0.0,0.0,0.0,0.0,0.0,0.0,0.0,0.0,0.0,0.0,0.0,0.0,0.0,0.0,1.5059,1.5628,1.6112,1.6309,1.6038,1.5323,1.4249,1.3619,1.3327,1.2313,0.0,0.0,0.0,0.0,0.0,0.0,0.0,0.0,0.0,0.0,0.0,0.0,0.0,0.0,0.0,0.0,0.0,0.0,0.0,0.0,0.0,0.0,0.0,0.0,0.0,0.0,0.0,0.0,0.0,0.0,0.0,0.0,0.0,0.0,0.0,0.0,0.0,0.0,0.0,1.2111,1.2399,1.2338,1.3322,1.429,0.0,0.0,0.0,0.0,0.0,0.0,0.0,0.0,0.0,1.4612,1.491,1.4923,1.4586,1.429,1.4139,1.4127,1.3514,1.3082,1.2861,1.2913,1.2549,1.1805,1.0821,1.0492,1.0655,1.06,1.1224,1.2301,0.0,0.0,0.0,0.0,1.3568,1.359,0.0,0.0,0.0,0.0,0.0,0.0,0.0,0.0,0.0,0.0,0.0,0.0,0.0,0.0,0.0,1.6618,0.0,0.0,0.0,0.0,0.0,0.0,0.0,0.0,0.0,0.0,0.0,0.0,1.5849,1.6417,1.6921,1.7045,1.6628,1.5821,1.5188,1.4325,1.3293,1.2194,1.1527,0.0,0.0,0.0,0.0,0.0,0.0,0.0,0.0,0.0,0.0,0.0,0.0,0.0,0.0,0.0,0.0,0.0,0.0,0.0,0.0,0.0,0.0,0.0,0.0,0.0,0.0,0.0,0.0,0.0,0.0,0.0,0.0,0.0,0.0,0.0,0.0,0.0,0.0,1.2188,1.2252,1.1616,1.2516,1.3488,0.0,0.0,0.0,0.0,0.0,0.0,1.486,1.4702,1.4381,1.3896,1.4311,1.4323,1.3871,1.3871,1.3871,1.3871,1.3398,1.3012,1.2738,1.282,1.2318,1.1387,1.072,1.004,0.945,0.975,1.0233,1.0883,1.1891,1.2636,1.3077,1.2457,1.2361,1.24,0.0,0.0,0.0,0.0,0.0,0.0,0.0,0.0,0.0,0.0,0.0,0.0,0.0,0.0,1.8084,1.8601,1.7722,1.6707,0.0,0.0,0.0,0.0,0.0,0.0,0.0,0.0,0.0,1.5649,1.6826,1.7719,1.832,1.8766,1.8465,1.7528,1.6492,1.5003,1.3219,1.2008,1.1328,1.0966,0.0,0.0,0.0,0.0,0.0,0.0,0.0,0.0,0.0,0.0,0.0,0.0,0.0,0.0,0.0,0.0,0.0,0.0,0.0,0.0,0.0,0.0,0.0,0.0,0.0,0.0,0.0,0.0,0.0,0.0,0.0,0.0,0.0,0.0,0.0,0.0,0.0,0.0,0.0,1.2523,1.2847,0.0,0.0,0.0,0.0,1.3977,1.3954,1.4043,1.4239,1.381,1.3484,1.3261,1.3261,1.3273,1.3248,1.3248,1.3248,1.3235,1.3154,1.3077,1.3042,1.2228,1.1847,1.1704,1.0469,0.9878,0.9721,0.8989,0.8973,0.948,1.0298,1.1136,1.1841,1.1429,1.1678,1.2052,0.0,0.0,0.0,0.0,0.0,0.0,0.0,0.0,0.0,0.0,0.0,0.0,0.0,1.8639,1.8857,1.8974,1.8101,1.6878,1.5284,0.0,0.0,0.0,0.0,0.0,0.0,0.0,1.6039,1.7063,1.8041,1.8788,1.9292,1.9454,1.8688,1.7168,1.6775,1.5411,1.3365,1.2413,1.175,1.1237,1.043,1.0136,0.0,0.0,0.0,0.0,0.0,0.0,0.0,0.0,0.0,0.0,0.0,0.0,0.0,0.0,0.0,0.0,0.0,0.0,0.0,0.0,0.0,0.0,0.0,0.0,0.0,0.0,0.0,0.0,0.0,0.0,0.0,0.0,0.0,0.0,0.0,0.0,0.0,1.2373,1.2231,0.0,1.2531,1.2698,1.2811,1.2811,1.277,1.2768,1.2836,1.2854,1.2698,1.2372,1.3161,1.3625,1.371,1.3625,1.3748,1.4094,1.3323,1.2855,1.2644,1.233,1.1714,1.0863,1.0095,0.9582,0.9261,0.898,0.9159,0.9637,0.9848,1.0327,1.0878,1.0687,1.0764,1.0916,0.0,0.0,0.0,0.0,0.0,0.0,0.0,0.0,0.0,0.0,0.0,1.7731,1.8515,1.9256,1.9601,1.9329,1.8186,1.6719,1.4878,0.0,0.0,0.0,0.0,0.0,0.0,1.5623,1.6938,1.781,1.8784,1.9443,1.9795,1.9795,1.8776,1.6959,1.6959,1.5786,1.3724,1.3073,1.2274,1.1422,1.0499,1.0199,1.0261,0.0,0.0,0.0,0.0,0.0,0.0,0.0,0.0,0.0,0.0,0.0,0.0,0.0,0.0,0.0,0.0,0.0,0.0,0.0,0.0,0.0,0.0,0.0,0.0,0.0,0.0,0.0,0.0,0.0,0.0,0.0,0.0,0.0,0.0,1.2446,1.2131,1.2452,1.2066,1.1903,1.2266,1.221,1.214,1.214,1.1913,1.1849,1.1986,1.2029,1.2,1.1872,1.2676,1.3228,1.3465,1.3371,1.3569,1.4024,1.3233,1.2685,1.233,1.2168,1.1451,1.0309,0.9857,0.9493,0.9201,0.9201,0.9508,0.9965,0.9872,1.0133,1.0553,1.038,1.04,1.0467,0.0,0.0,0.0,0.0,0.0,0.0,0.0,0.0,0.0,0.0,0.0,1.8166,1.8737,1.9841,2.0318,1.9761,1.7966,1.6205,1.4584,1.2903,0.0,0.0,0.0,0.0,1.3741,1.6287,1.7694,1.7868,1.9048,1.971,1.9835,1.9835,1.8875,1.7159,1.7122,1.6071,1.4321,1.391,1.2886,1.1511,1.0748,1.0415,1.0336,0.0,0.0,0.0,0.0,0.0,0.0,0.0,0.0,0.0,0.0,0.0,0.0,0.0,0.0,0.0,0.0,0.0,0.0,0.0,0.0,0.0,0.0,0.0,0.0,0.0,0.0,0.0,0.0,0.0,0.0,0.0,0.0,0.0,1.2837,1.2828,1.2808,1.2867,1.2414,1.2143,1.2278,1.2097,1.2002,1.1992,1.148,1.1363,1.1763,1.1415,1.1367,1.1737,1.1774,1.1968,1.2371,1.2377,1.2538,1.2885,1.2785,1.2561,1.2156,1.1689,1.1006,1.0184,0.9764,0.9592,0.9592,0.9592,0.9864,1.0303,1.0303,1.0544,1.0821,1.0448,1.0544,1.0764,0.0,0.0,0.0,0.0,0.0,0.0,0.0,0.0,0.0,0.0,1.7291,1.8515,1.8964,2.0169,2.0695,2.0129,1.7783,1.5657,1.4088,0.0,0.0,0.0,0.0,0.0,1.4767,1.7202,1.8734,1.9318,2.0005,2.0329,2.0367,2.0367,1.965,1.8323,1.7655,1.6604,1.5279,1.4568,1.3918,1.318,1.177,1.0992,1.0571,0.0,0.0,0.0,0.0,0.0,0.0,0.0,0.0,0.0,0.0,0.0,0.0,0.0,0.0,0.0,0.0,0.0,0.0,0.0,0.0,0.0,0.0,0.0,0.0,0.0,0.0,0.0,0.0,0.0,0.0,0.0,1.2278,1.2582,1.2855,1.2556,1.2296,1.2311,1.2183,1.2079,1.2018,1.1737,1.1665,1.191,1.1216,1.0942,1.1334,1.1159,1.0962,1.0791,1.13,1.168,1.1895,1.1804,1.199,1.2461,1.2053,1.1811,1.1682,1.1255,1.0759,1.0184,0.9764,0.9592,0.9592,0.9592,0.9864,1.0303,1.0303,1.038,1.0448,1.0341,1.038,1.039,0.0,0.0,0.0,0.0,0.0,0.0,0.0,0.0,0.0,0.0,1.6965,1.8211,1.8213,1.9617,2.0022,1.875,1.6754,1.4748,1.2898,0.0,0.0,0.0,0.0,1.444,1.5754,1.7708,1.9206,2.0185,2.0478,2.0791,2.1153,2.0781,2.0224,1.9519,1.8421,1.7376,1.6333,1.5313,1.4684,1.4289,1.3206,1.2117,1.1059,0.9888,0.9539,0.9637,0.9233,0.9714,1.0492,0.9913,0.0,0.0,0.0,0.0,0.0,0.0,0.0,0.0,0.0,0.0,0.0,0.0,0.0,0.0,0.0,0.0,0.0,0.0,0.0,0.0,0.0,0.0,0.0,0.0,1.1613,1.204,1.2622,1.2463,1.2313,1.2313,1.215,1.2066,1.218,1.1778,1.1617,1.1845,1.1164,1.0746,1.0815,1.0752,1.0592,1.037,1.0764,1.1117,1.1369,1.1299,1.1489,1.1971,1.1647,1.1404,1.1236,1.101,1.0555,0.9926,0.9702,0.9592,0.9592,0.9592,0.9864,0.0,0.0,0.0,0.0,0.0,0.9646,0.9487,0.0,0.0,0.0,0.0,0.0,0.0,0.0,0.0,0.0,0.0,0.0,1.7509,1.6921,1.8516,1.8738,1.6478,1.5315,1.3738,0.0,0.0,0.0,1.2081,1.3664,1.5223,1.6775,1.8184,1.9474,2.0683,2.0732,2.1153,2.1865,2.1124,2.0753,2.0694,1.9204,1.8205,1.7516,1.6106,1.533,1.5031,1.4721,1.346,1.1636,1.0447,0.9801,0.9455,0.8989,0.9198,0.9623,0.9341,0.0,0.0,0.0,0.0,0.0,0.0,0.0,0.0,0.0,0.0,0.0,0.0,0.0,0.0,0.0,0.0,0.0,0.0,0.0,0.0,0.0,0.0,0.0,0.0,1.0904,1.1116,1.2153,1.2448,1.2569,1.2639,1.2288,1.2185,1.2599,1.2116,1.1804,1.1838,1.1266,1.0742,1.0391,1.0332,0.0,0.0,0.0,1.0467,1.0831,1.0831,1.0973,1.1282,1.1282,1.1094,1.0745,1.0745,1.0342,0.9652,0.9652,0.9652,0.9652,0.9652,0.9838,1.0079,0.9726,0.9579,0.9489,0.9128,0.8773,0.8516,0.0,0.0,0.0,0.0,0.0,0.0,0.0,0.0,0.0,1.4466,1.6064,1.6909,1.6046,1.7564,1.7678,1.5175,1.452,1.3338,0.0,0.0,1.262,1.3397,1.5789,1.7349,1.7951,1.9764,2.0817,2.1064,2.1455,2.1719,2.1885,2.175,2.1637,2.1575,1.9771,1.8922,1.8667,1.6939,1.6155,1.6045,1.5474,1.3921,1.1929,1.1084,1.0242,0.9408,0.8679,0.9092,0.9886,0.9211,0.9816,1.0706,0.9805,0.0,0.0,0.0,0.0,0.0,0.0,0.0,0.0,0.0,0.0,0.0,0.0,0.0,0.0,0.0,0.0,0.0,0.0,0.0,0.0,1.016,1.0458,1.088,1.1585,1.1978,1.2406,1.2932,1.2924,1.2857,1.285,1.2483,1.2227,1.2122,1.1357,1.0879,1.0791,1.0488,1.0303,1.0303,1.0303,1.0341,1.0409,1.0409,1.0264,0.9972,0.0,0.0,0.9855,0.9785,0.9855,1.0002,0.9954,0.9915,0.9915,0.9915,0.9553,0.9059,0.9441,0.941,0.9116,0.9036,0.8955,0.8842,0.0,0.0,0.0,0.0,0.0,0.0,0.0,0.0,0.0,0.0,1.5185,1.5857,1.5408,1.6381,1.6332,1.4543,1.3259,0.0,0.0,1.1886,1.3083,1.453,1.6353,1.802,1.9421,2.0419,2.1189,2.1834,2.1885,2.21,2.25,2.209,2.1849,2.1712,2.0095,1.9198,1.8827,1.7295,1.6653,1.6565,1.5509,1.4135,1.2543,1.1752,1.0541,0.9173,0.8694,0.8872,0.928,0.8783,0.95,1.0515,0.9672,0.994,1.052,0.0,0.0,0.0,0.0,0.0,0.0,0.0,0.0,0.0,0.0,0.0,0.0,0.0,0.0,0.9284,0.9385,0.0,0.9597,0.9604,0.9877,1.0293,1.0854,1.1334,1.1993,1.2881,1.3002,1.2978,1.2905,1.2296,1.1883,1.1799,1.081,1.0203,1.0203,0.9837,0.9745,0.9952,0.9952,1.003,1.0205,1.0,0.9755,0.945,0.945,0.945,0.945,0.9666,0.9853,1.003,0.9774,0.9646,0.9636,0.9428,0.8958,0.839,0.876,0.8638,0.8247,0.8247,0.8296,0.8345,0.0,0.0,0.0,0.0,0.0,0.0,0.0,0.0,0.0,0.0,0.0,1.4831,1.4753,1.5142,1.4985,0.0,0.0,0.0,0.0,1.2064,1.3562,1.5679,1.6884,1.8481,2.0654,2.0869,2.1466,2.251,2.2256,2.248,2.3081,2.2441,2.1959,2.1632,2.0332,1.9376,1.8726,1.7507,1.6991,1.687,1.5666,1.4416,1.3204,1.2413,1.0814,0.9004,0.8751,0.8529,0.8343,0.8155,0.8859,0.9754,0.9339,0.9883,1.0572,1.0052,0.9799,0.0,0.0,0.0,0.0,0.0,0.0,0.0,0.0,0.9345,0.9318,0.9161,0.9129,0.9144,0.9185,0.9372,0.9468,0.9317,0.946,0.9795,1.0326,1.0778,1.141,1.2446,1.2774,1.2856,1.2749,1.2,1.1449,1.125,1.0301,0.9657,0.9512,0.924,0.9197,0.9441,0.954,0.9667,0.9824,0.966,0.9414,0.9142,0.9142,0.9142,0.9162,0.9464,0.9636,0.9675,0.9279,0.9099,0.9079,0.8756,0.8349,0.7951,0.8082,0.7876,0.7482,0.7523,0.76,0.7753,0.0,0.0,0.0,0.0,0.0,0.0,0.0,0.0,0.0,0.0,0.0,0.0,0.0,0.0,0.0,0.0,0.0,0.0,1.2072,1.318,1.4797,1.6998,1.8694,2.0077,2.1122,2.1867,2.2376,2.251,2.2789,2.3003,2.3091,2.3003,2.2513,2.165,2.0594,1.9654,1.8742,1.7701,1.7274,1.7198,1.6832,1.5409,1.3497,1.2985,1.1336,0.9173,0.8642,0.8072,0.7578,0.7389,0.769,0.8256,0.8791,0.9197,0.9591,1.0089,0.9821,0.9395,0.9566,0.9503,0.9365,0.9333,0.9358,0.9356,0.0,0.9182,0.9219,0.8906,0.8846,0.8912,0.9148,0.9229,0.9324,0.9526,0.9566,0.9795,1.0326,1.0446,1.0702,1.1309,1.2264,1.27,1.2249,1.2089,1.1652,1.0766,1.0567,1.018,0.9538,0.947,0.927,0.8889,0.929,0.9299,0.8857,0.9458,0.9376,0.8601,0.8601,0.8601,0.8572,0.827,0.8337,0.8663,0.848,0.8419,0.8398,0.8357,0.8103,0.7745,0.7884,0.7725,0.7433,0.7607,0.7691,0.7719,0.0,0.0,0.0,0.0,0.0,0.0,0.0,0.0,0.0,0.0,0.0,0.0,0.0,0.0,0.0,0.0,0.0,0.0,1.212,1.3074,1.4698,1.7191,1.8652,1.9947,2.115,2.2038,2.251,2.251,2.2886,2.3091,2.3091,2.3091,2.2599,2.1695,2.1239,2.024,1.8788,1.8334,1.7831,1.7203,1.6324,1.4941,1.332,1.2231,1.0477,0.8581,0.8448,0.7924,0.0,0.0,0.786,0.8681,0.8764,0.9416,1.0171,1.019,0.9895,0.9514,0.9163,0.9173,0.923,0.9006,0.9126,0.9254,0.9137,0.9187,0.9198,0.9065,0.9035,0.9009,0.8966,0.8964,0.8903,0.8646,0.8902,0.9223,0.9432,0.9867,1.0252,1.0475,1.1033,1.1435,1.1566,1.1284,1.0939,1.0532,0.9944,0.9483,0.9159,0.8936,0.8743,0.8638,0.8972,0.8968,0.8582,0.8805,0.862,0.8036,0.8036,0.8036,0.8036,0.811,0.8185,0.8247,0.8042,0.7926,0.7882,0.7714,0.76,0.753,0.7635,0.7593,0.7468,0.7551,0.7642,0.7691,0.0,0.0,0.0,0.0,0.0,0.0,0.0,0.0,0.0,0.0,0.0,0.0,0.0,0.0,0.0,0.0,0.0,0.0,0.0,1.26,1.4184,1.6891,1.8144,1.9533,2.1174,2.1977,2.2418,2.2418,2.2637,2.275,2.275,2.275,2.2255,2.1321,2.1321,2.0349,1.8653,1.8653,1.8064,1.7118,1.6053,1.4703,1.3218,1.1613,0.9836,0.8206,0.8155,0.7607,0.0,0.0,0.767,0.8616,0.8614,0.9411,1.0292,1.0142,0.9931,0.9636,0.9097,0.9082,0.9163,0.8985,0.9082,0.9222,0.9302,0.9317,0.9317,0.9317,0.9258,0.9116,0.8779,0.8683,0.8469,0.7901,0.8331,0.8751,0.8751,0.9267,0.9669,0.9669,0.9795,1.0049,1.0498,1.0346,1.0177,1.0,0.9351,0.8934,0.8841,0.8556,0.8414,0.8386,0.8692,0.8678,0.8332,0.8371,0.8172,0.7759,0.7667,0.7645,0.7645,0.7948,0.8076,0.8034,0.7767,0.7615,0.7544,0.7268,0.7202,0.7314,0.7454,0.7476,0.7433,0.7539,0.763,0.7691,0.0,0.0,0.0,0.0,0.0,0.0,0.0,0.0,0.0,0.0,0.0,0.0,0.0,0.0,0.0,0.0,0.0,0.0,0.0,1.1969,1.3442,1.6124,1.7504,1.916,2.1138,2.1859,2.2225,2.2225,2.2038,2.1924,2.1924,2.1924,2.1406,2.0446,2.0446,1.9627,1.8205,1.8205,1.7718,1.6888,1.6513,1.524,1.3426,1.1745,1.0001,0.8414,0.7746,0.0,0.0,0.0,0.6633,0.7318,0.8152,0.876,0.0,0.9913,0.987,0.0,0.9592,0.9387,0.9266,0.9519,0.938,0.9273,0.9533,0.9573,0.9573,0.9573,0.9372,0.9051,0.8595,0.8407,0.8175,0.7677,0.8158,0.86,0.86,0.8741,0.8831,0.8831,0.8849,0.8849,0.887,0.9441,0.9581,0.8997,0.9106,0.9038,0.8713,0.8686,0.8522,0.8129,0.8492,0.8445,0.7926,0.8374,0.8351,0.7896,0.7618,0.7493,0.7493,0.7522,0.7668,0.7903,0.7634,0.75,0.7464,0.7148,0.7,0.7047,0.7436,0.7447,0.725,0.7641,0.7759,0.7691,0.0,0.0,0.0,0.0,0.0,0.0,0.0,0.0,0.0,0.0,0.0,0.0,0.0,0.0,0.0,0.0,0.0,0.0,0.0,1.2041,1.3042,1.5178,1.6215,1.7269,1.8383,1.9479,2.0145,2.0394,2.0517,2.0723,2.1045,2.1045,2.0847,2.0509,1.9978,1.925,1.8335,1.7639,1.6927,1.6148,1.5174,1.3981,1.2581,1.123,0.9712,0.8263,0.0,0.0,0.0,0.0,0.0,0.0,0.8571,0.0,0.0,0.9696,0.9702,0.957,0.9372,0.9555,0.976,0.9643,0.987,1.0082,0.9965,0.9936,0.9819,0.9409,0.9115,0.8645,0.7739,0.7343,0.6999,0.6427,0.6789,0.7304,0.7794,0.8062,0.8325,0.8699,0.8574,0.8472,0.8472,0.8875,0.8984,0.8598,0.8339,0.8242,0.8307,0.8209,0.8223,0.8304,0.8605,0.8491,0.7912,0.8269,0.8269,0.7905,0.7799,0.7776,0.7776,0.7776,0.7936,0.8196,0.7712,0.765,0.7868,0.735,0.7297,0.7547,0.7679,0.7732,0.775,0.7871,0.7975,0.8012,0.0,0.0,0.0,0.0,0.0,0.0,0.0,0.0,0.0,0.0,0.0,0.0,0.0,0.0,0.0,0.0,0.0,0.0,0.0,0.0,1.2336,1.3951,1.4778,1.5615,1.6449,1.7521,1.8164,1.8404,1.8668,1.8952,1.9199,1.9199,1.9199,1.9199,1.8487,1.7879,1.7386,1.6403,1.5606,1.4962,1.3887,1.2906,1.1902,1.0613,0.9486,0.0,0.0,0.0,0.0,0.0,0.0,0.0,0.0,0.0,0.0,0.9588,0.9694,0.9746,0.9555,0.9885,1.0221,1.0016,1.0192,1.036,1.0148,0.976,0.9349,0.8966,0.8435,0.7791,0.6915,0.6517,0.6172,0.5604,0.592,0.6416,0.696,0.7226,0.7579,0.8205,0.8127,0.8094,0.8318,0.8342,0.8272,0.817,0.792,0.7847,0.8019,0.7951,0.8095,0.8537,0.8711,0.8624,0.8225,0.833,0.8223,0.7905,0.7905,0.7905,0.7912,0.8019,0.8196,0.8375,0.7986,0.7913,0.7984,0.7506,0.7454,0.7692,0.7692,0.7765,0.7846,0.7846,0.7973,0.8121,0.0,0.0,0.0,0.0,0.0,0.0,0.0,0.0,0.0,0.0,0.0,0.0,0.0,0.0,0.0,0.0,0.0,0.0,0.0,0.0,0.0,1.2486,1.3275,1.4204,1.5273,1.6038,1.6362,1.6287,1.6602,1.6715,1.6629,1.6629,1.6629,1.6597,1.6049,1.5725,1.5441,1.4588,1.3886,1.336,1.2694,1.2058,1.1376,0.9967,0.0,0.0,0.0,0.0,0.0,0.0,0.0,0.883,0.8804,0.9145,0.9569,0.9524,0.9775,1.005,1.0064,1.0332,1.0609,1.0616,1.0375,1.0113,1.0057,0.9138,0.8293,0.8235,0.7389,0.6549,0.6156,0.5951,0.5712,0.5278,0.5575,0.5938,0.6185,0.6318,0.6682,0.741,0.7516,0.7726,0.8291,0.7828,0.7536,0.7645,0.7739,0.7818,0.7845,0.7857,0.8162,0.8785,0.8804,0.8804,0.8804,0.8556,0.8257,0.7952,0.7952,0.7952,0.7959,0.827,0.8422,0.8422,0.8409,0.8203,0.7879,0.7618,0.7513,0.7513,0.7527,0.7585,0.7636,0.765,0.783,0.8068,0.0,0.0,0.0,0.0,0.0,0.0,0.0,0.0,0.0,0.0,0.0,0.0,0.0,0.0,0.0,0.0,0.0,0.0,0.0,0.0,0.0,0.0,0.0,0.0,0.0,0.0,0.0,0.0,0.0,1.5069,1.5722,1.5722,1.5722,0.0,1.5023,1.4591,1.4349,1.334,1.2687,1.2295,0.0,1.0982,1.0755,0.0,0.0,0.0,0.0,0.0,0.0,0.8745,0.8928,0.9328,0.8928,0.8902,0.895,0.8631,0.8993,0.9549,0.9698,1.0356,1.0953,1.0798,1.071,1.0443,0.9486,0.8878,0.8262,0.7315,0.6765,0.6343,0.5951,0.5512,0.5226,0.5281,0.5173,0.539,0.6294,0.646,0.6754,0.7483,0.7567,0.7581,0.7593,0.7577,0.7355,0.6847,0.6599,0.6729,0.7268,0.74,0.7856,0.8758,0.8804,0.8804,0.8804,0.8738,0.8657,0.8558,0.8558,0.8558,0.8565,0.8664,0.8697,0.8684,0.8496,0.8203,0.7879,0.7618,0.7513,0.7533,0.7831,0.8012,0.8157,0.8451,0.8712,0.8895,0.0,0.0,0.0,0.0,0.0,0.0,0.0,0.0,0.0,0.0,0.0,0.0,0.0,0.0,0.0,0.0,0.0,0.0,0.0,0.0,0.0,0.0,0.0,0.0,0.0,0.0,0.0,0.0,0.0,0.0,0.0,1.3876,1.408,1.427,1.3351,1.2959,1.2911,0.0,0.0,0.0,0.0,0.0,0.0,0.0,0.0,0.0,0.0,0.0,0.0,0.9249,0.9446,0.972,0.9106,0.9038,0.9059,0.8629,0.9139,0.9866,1.0015,1.0708,1.137,1.1152,1.0847,1.0296,0.935,0.8498,0.7614,0.6673,0.6121,0.5761,0.5544,0.518,0.4944,0.5073,0.4857,0.4923,0.5655,0.5894,0.6246,0.7026,0.716,0.7254,0.7417,0.7288,0.7047,0.6609,0.6721,0.6895,0.718,0.7572,0.8098,0.8785,0.8804,0.8804,0.8804,0.8804,0.8804,0.8804,0.8804,0.8744,0.8624,0.8751,0.8738,0.8617,0.8577,0.8397,0.811,0.8031,0.7899,0.7797,0.8084,0.8271,0.8403,0.8645,0.8938,0.92,0.0,0.0,0.0,0.0,0.0,0.0,0.0,0.0,0.0,0.0,0.0,0.0,0.0,0.0,0.0,0.0,0.0,0.0,0.0,0.0,0.0,0.0,0.0,0.0,0.0,0.0,0.0,0.0,0.0,0.0,0.0,0.0,0.0,0.0,0.0,0.0,0.0,0.0,0.0,0.0,0.0,0.0,0.0,0.0,0.0,0.0,0.0,0.0,0.0,0.9588,0.9754,0.9858,0.9198,0.9149,0.9294,0.8955,0.9581,1.0424,1.062,1.124,1.1793,1.1472,1.0725,0.9877,0.9192,0.7946,0.6752,0.6175,0.5544,0.5114,0.5113,0.4966,0.484,0.484,0.467,0.4626,0.4849,0.5147,0.563,0.638,0.6582,0.6868,0.7355,0.6954,0.6643,0.6593,0.7325,0.7618,0.7321,0.8016,0.8555,0.8791,0.8804,0.8804,0.8804,0.8804,0.8804,0.8804,0.8804,0.8671,0.8462,0.8691,0.8671,0.8469,0.8697,0.8644,0.8402,0.852,0.8361,0.8095,0.8272,0.8421,0.854,0.8606,0.888,0.9258,0.0,0.0,0.0,0.0,0.0,0.0,0.0,0.0,0.0,0.0,0.0,0.0,0.0,0.0,0.0,0.0,0.0,0.0,0.0,0.0,0.0,0.0,0.0,0.0,0.0,0.0,0.0,0.0,0.0,0.0,0.0,0.0,0.0,0.0,0.0,0.0,0.0,0.0,0.0,0.0,0.0,0.0,0.0,0.0,0.0,0.0,0.0,0.0,0.0,0.0,0.9461,0.917,0.8559,0.8201,0.8115,0.8596,0.9259,1.0033,1.088,1.1607,1.194,1.1134,1.042,0.9511,0.7919,0.7026,0.626,0.5461,0.5184,0.5129,0.5252,0.5157,0.5057,0.5057,0.4877,0.4852,0.516,0.5409,0.5718,0.6199,0.6372,0.6454,0.6456,0.6457,0.6328,0.6056,0.697,0.7474,0.7309,0.8098,0.8636,0.8798,0.8804,0.8804,0.8804,0.8804,0.8804,0.8804,0.8804,0.8784,0.8738,0.8784,0.8778,0.8738,0.8784,0.0,0.8402,0.8427,0.8246,0.7973,0.8393,0.863,0.8781,0.913,0.9361,0.9541,0.0,0.0,0.0,0.0,0.0,0.0,0.0,0.0,0.0,0.0,0.0,0.0,0.0,0.0,0.0,0.0,0.0,0.0,0.0,0.0,0.0,0.0,0.0,0.0,0.0,0.0,0.9915,0.9967,0.0,0.0,0.0,1.1023,1.1209,0.0,0.0,0.0,0.0,0.0,0.0,0.0,0.0,0.0,0.0,0.0,0.0,0.0,0.0,0.0,0.0,0.0,0.9269,0.8781,0.8348,0.8195,0.8237,0.8298,0.9026,0.9966,1.0746,1.1416,1.1763,1.1084,1.0198,0.9141,0.7699,0.6917,0.6243,0.5394,0.5195,0.5224,0.5281,0.5179,0.5106,0.5106,0.4926,0.4897,0.5147,0.5441,0.5709,0.6012,0.62,0.631,0.6318,0.631,0.6245,0.6172,0.6993,0.7433,0.7314,0.8205,0.8736,0.8791,0.8804,0.8804,0.8804,0.8804,0.8804,0.8804,0.8804,0.8804,0.8804,0.8804,0.8804,0.8804,0.8804,0.8731,0.8623,0.8674,0.8524,0.8274,0.8799,0.894,0.8909,0.935,0.9536,0.9588,0.0,0.0,0.0,0.0,0.0,0.0,0.0,0.0,0.0,0.0,0.0,0.0,0.0,0.0,0.0,0.0,0.0,0.0,0.0,0.0,0.0,0.0,0.0,0.0,0.0,0.0,0.0,0.9495,0.9673,0.0,0.0,0.0,0.0,0.0,1.0549,1.0344,0.0,0.0,0.0,0.0,0.0,0.0,0.0,0.0,0.0,0.0,0.0,0.0,0.0,0.0,0.9223,0.8705,0.8302,0.8349,0.8545,0.8476,0.9238,1.0253,1.0748,1.1348,1.1717,1.0994,0.999,0.8886,0.7678,0.6935,0.6293,0.5471,0.5297,0.5297,0.5297,0.5212,0.5129,0.5114,0.4958,0.4901,0.5033,0.5364,0.5653,0.5758,0.6061,0.6278,0.6351,0.6298,0.6261,0.6298,0.6863,0.7288,0.7401,0.8078,0.8465,0.8434,0.8427,0.8427,0.8427,0.8427,0.848,0.8613,0.8613,0.8672,0.8804,0.8804,0.8804,0.8804,0.8804,0.8804,0.8804,0.8936,0.8846,0.8648,0.9165,0.9211,0.9044,0.9423,0.9588,0.9588,0.0,0.0,0.0,0.0,0.0,0.0,0.0,0.0,0.0,0.0,0.0,0.0,0.0,0.0,0.0,0.0,0.0,0.0,0.0,0.0,0.0,0.0,0.0,0.0,0.0,0.0,0.0,0.9755,0.9658,0.0,0.0,0.0,0.0,0.0,0.0,1.0138,0.9666,0.0,0.0,0.0,0.0,0.0,0.0,0.0,0.0,0.0,0.0,0.9588,0.9588,0.9588,0.9484,0.9188,0.837,0.8141,0.8376,0.9552,1.0388,1.0969,1.1345,1.1935,1.2054,1.0568,0.9684,0.8835,0.7465,0.6663,0.6047,0.5441,0.5297,0.5297,0.5297,0.5285,0.5248,0.5108,0.5094,0.5029,0.4849,0.5279,0.5531,0.5365,0.5959,0.6335,0.6216,0.6306,0.6266,0.5961,0.6171,0.6741,0.7691,0.7544,0.7378,0.7252,0.7246,0.7246,0.7246,0.7246,0.7509,0.7978,0.7978,0.8256,0.8804,0.8804,0.8804,0.8804,0.8804,0.8804,0.0,0.8936,0.8995,0.8967,0.9152,0.9268,0.9344,0.9406,0.9484,0.9588,0.0,0.0,0.0,0.0,0.0,0.0,0.0,0.0,0.0,0.0,0.0,0.0,0.0,0.0,0.0,0.0,0.0,0.0,0.0,0.0,0.0,0.0,0.0,0.0,0.0,0.0,0.9465,0.9799,0.974,0.0,0.0,0.0,0.0,0.0,0.0,0.9803,0.9588,0.9588,0.0,0.0,0.0,0.0,0.0,0.0,0.0,0.0,0.0,0.0,0.9484,0.9562,0.938,0.9083,0.8917,0.8575,0.8306,0.8663,0.9203,0.9804,1.039,1.0784,1.0805,0.9822,0.9124,0.8371,0.71,0.648,0.6022,0.541,0.5297,0.5297,0.5297,0.5297,0.5277,0.5232,0.5153,0.5092,0.5102,0.5292,0.5442,0.5474,0.5856,0.6071,0.6029,0.6184,0.6229,0.6086,0.6147,0.629,0.6473,0.6923,0.7149,0.7112,0.7112,0.7112,0.7112,0.7429,0.7691,0.7898,0.8256,0.856,0.8804,0.8804,0.8804,0.8804,0.8883,0.891,0.0,0.9061,0.9106,0.9133,0.9263,0.9361,0.9413,0.9484,0.9562,0.9588,0.0,0.0,0.0,0.0,0.0,0.0,0.0,0.0,0.0,0.0,0.0,0.0,0.0,0.0,0.0,0.0,0.0,0.0,0.0,0.0,0.0,0.0,0.0,0.0,0.0,0.0,0.0,0.0,0.974,0.9706,0.0,0.0,0.9588,0.9588,0.0,0.0,0.0,0.0,0.0,0.0,0.0,0.0,0.0,0.0,0.0,0.0,0.0,0.0,0.0,0.0,0.0,0.8954,0.9113,0.0,0.0,0.824,0.8547,0.9063,0.9555,0.9806,0.9778,0.9132,0.8507,0.7759,0.6717,0.6235,0.5848,0.5383,0.5297,0.5297,0.5297,0.5297,0.5297,0.0,0.0,0.519,0.5236,0.5337,0.5409,0.5454,0.5713,0.5868,0.5811,0.5996,0.6122,0.6203,0.6078,0.591,0.5624,0.6216,0.6571,0.6571,0.6729,0.6837,0.6837,0.7396,0.7744,0.7898,0.8335,0.8613,0.8804,0.8804,0.8831,0.8857,0.891,0.8982,0.0,0.9159,0.9211,0.9256,0.9413,0.9465,0.9458,0.9562,0.9588,0.9588,0.0,0.0,0.0,0.0,0.0,0.0,0.0,0.0,0.0,0.0,0.0,0.0,0.0,0.0,0.0,0.0,0.0,0.0,0.0,0.0,0.0,0.0,0.0,0.0,0.0,0.0,0.0,0.0,0.0,0.0,0.9588,0.9588,0.9588,0.9588,0.0,0.0,0.0,0.0,0.0,0.0,0.0,0.0,0.0,0.0,0.0,0.0,0.0,0.0,0.0,0.0,0.0,0.0,0.0,0.0,0.0,0.0,0.9075,0.9278,0.9218,0.9342,0.933,0.8582,0.7807,0.7032,0.6358,0.5848,0.5478,0.5329,0.5297,0.5297,0.5297,0.5297,0.5297,0.0,0.0,0.526,0.5108,0.5385,0.5478,0.5155,0.5588,0.5815,0.5632,0.5783,0.5992,0.6195,0.5815,0.5616,0.5612,0.5418,0.5325,0.5325,0.5887,0.6209,0.6209,0.681,0.7375,0.7898,0.7898,0.8229,0.8804,0.8804,0.8883,0.8982,0.8857,0.8956,0.0,0.9211,0.929,0.9413,0.9536,0.9588,0.9588,0.9588,0.9588,0.9588,0.0,0.0,0.0,0.0,0.0,0.0,0.0,0.0,0.0,0.0,0.0,0.0,0.0,0.0,0.0,0.0,0.0,0.0,0.0,0.0,0.0,0.0,0.0,0.0,0.0,0.0,0.0,0.0,0.0,0.0,0.0,0.0,0.0,0.9465,0.9361,0.9335,0.0,0.0,0.0,0.0,0.0,0.0,0.0,0.0,0.0,0.0,0.0,0.0,0.0,0.0,0.0,0.0,0.0,0.0,0.0,0.0,0.0,0.8538,0.8847,0.868,0.8353,0.8116,0.7718,0.7144,0.6214,0.5978,0.5829,0.5274,0.524,0.5297,0.5297,0.5297,0.5257,0.519,0.0,0.5264,0.5104,0.526,0.5365,0.5252,0.5389,0.5567,0.5783,0.5738,0.5722,0.5774,0.5677,0.5531,0.5413,0.5329,0.5485,0.5914,0.61,0.6399,0.681,0.7369,0.7738,0.7898,0.8315,0.8613,0.8804,0.8804,0.8831,0.8857,0.891,0.9035,0.9211,0.9309,0.9413,0.9536,0.9588,0.9588,0.9588,0.9588,0.9588,0.964,0.0,0.0,0.0,0.0,0.0,0.0,0.0,0.0,0.0,0.0,0.0,0.0,0.0,0.0,0.0,0.0,0.0,0.0,0.0,0.0,0.0,0.0,0.0,0.0,0.0,0.0,0.0,0.0,0.0,0.0,0.0,0.0,0.0,0.0,0.0,0.0,0.0,0.0,0.0,0.0,0.0,0.0,0.8975,0.0,0.0,0.0,0.0,0.0,0.0,0.0,0.0,0.0,0.0,0.0,0.0,0.0,0.0,0.7878,0.8504,0.8228,0.7756,0.7756,0.7273,0.6629,0.5924,0.5646,0.5456,0.5065,0.5121,0.5224,0.5224,0.5253,0.5261,0.5175,0.5252,0.5264,0.5104,0.5212,0.5297,0.5297,0.5297,0.5438,0.5754,0.5681,0.5612,0.5612,0.5612,0.5506,0.5309,0.5513,0.5918,0.6507,0.6534,0.6804,0.7402,0.7963,0.8229,0.8256,0.8613,0.8804,0.8804,0.8804,0.8831,0.8883,0.8956,0.9113,0.0,0.9361,0.9491,0.9588,0.9588,0.9588,0.9614,0.9821,0.9906,0.9976,0.0,0.0,0.0,0.0,0.0,0.0,0.0,0.0,0.0,0.0,0.0,0.0,0.0,0.0,0.0,0.0,0.0,0.0,0.0,0.0,0.0,0.0,0.0,0.0,0.0,0.0,0.0,0.0,0.8949,0.9211,0.9211,0.0,0.0,0.0,0.0,0.0,0.0,0.0,0.0,0.0,0.0,0.0,0.0,0.0,0.0,0.0,0.0,0.0,0.0,0.0,0.0,0.0,0.0,0.0,0.0,0.0,0.0,0.0,0.0,0.793,0.7464,0.7484,0.6624,0.5696,0.5556,0.5024,0.0,0.4751,0.4942,0.5106,0.5106,0.5203,0.5293,0.5281,0.5301,0.5276,0.5108,0.5224,0.5313,0.5301,0.5309,0.5374,0.5551,0.5592,0.5592,0.5592,0.5592,0.5494,0.5309,0.5859,0.648,0.7085,0.7139,0.7429,0.7957,0.8527,0.8804,0.8804,0.8804,0.8804,0.8804,0.8804,0.8883,0.0,0.9008,0.9159,0.9413,0.9413,0.9491,0.9588,0.9588,0.9588,0.9666,1.0164,1.0344,1.0421,0.0,0.0,0.0,0.0,0.0,0.0,0.0,0.0,0.0,0.0,0.0,0.0,0.0,0.0,0.0,0.0,0.0,0.0,0.0,0.0,0.0,0.0,0.0,0.0,0.0,0.0,0.0,0.9001,0.9133,0.9211,0.9211,0.908,0.0,0.0,0.0,0.0,0.0,0.0,0.0,0.0,0.0,0.0,0.0,0.0,0.0,0.0,0.7536,0.7664,0.0,0.0,0.0,0.0,0.0,0.0,0.0,0.0,0.6877,0.0,0.0,0.0,0.7181,0.743,0.6821,0.6081,0.0,0.5328,0.4948,0.4644,0.4861,0.5106,0.5106,0.5203,0.5253,0.5165,0.5372,0.5441,0.5151,0.5352,0.5474,0.5313,0.5442,0.5486,0.5393,0.5357,0.5357,0.5357,0.5357,0.5341,0.5301,0.5859,0.648,0.7085,0.7503,0.799,0.8586,0.8725,0.8804,0.8804,0.8804,0.8804,0.8804,0.8804,0.8883,0.9008,0.9008,0.9159,0.9413,0.9413,0.9491,0.9588,0.9588,0.9588,0.9614,0.9744,0.9795,0.9925,0.0,0.0,0.0,0.0,0.0,0.0,0.0,0.0,0.0,0.0,0.0,0.0,0.0,0.0,0.0,0.0,0.0,0.0,0.0,0.0,0.0,0.0,0.0,0.0,0.0,0.0,0.0,0.0,0.0,0.9008,0.0,0.0,0.0,0.0,0.0,0.0,0.0,0.0,0.0,0.0,0.8804,0.0,0.0,0.0,0.0,0.0,0.7664,0.7824,0.0,0.8368,0.8176,0.7818,0.0,0.0,0.0,0.0,0.6106,0.0,0.0,0.6236,0.6642,0.6806,0.6267,0.5658,0.5506,0.5122,0.476,0.4653,0.482,0.4983,0.5094,0.5161,0.5195,0.5183,0.5295,0.5332,0.5222,0.5299,0.5364,0.5301,0.5409,0.543,0.5309,0.5297,0.5297,0.5297,0.5297,0.5297,0.5297,0.5859,0.6344,0.6669,0.7471,0.8203,0.8804,0.8804,0.8804,0.8804,0.8804,0.8831,0.8883,0.8883,0.8956,0.908,0.9159,0.9263,0.9413,0.9465,0.9536,0.9588,0.9588,0.9744,1.001,1.0226,1.0507,1.0871,0.0,0.0,0.0,0.0,0.0,0.0,0.0,0.0,0.0,0.0,0.0,0.0,0.0,0.0,0.0,0.0,0.0,0.0,0.0,0.0,0.0,0.0,0.0,0.0,0.0,0.0,0.0,0.0,0.0,0.0,0.0,0.0,0.0,0.0,0.0,0.0,0.0,0.0,0.0,0.0,0.8804,0.0,0.0,0.0,0.0,0.0,0.0,0.0,0.0,0.8037,0.7791,0.7471,0.6502,0.0,0.0,0.0,0.0,0.0,0.5125,0.5431,0.5864,0.6037,0.554,0.5065,0.5209,0.4806,0.4461,0.4743,0.4828,0.4885,0.5041,0.5084,0.5165,0.5264,0.5179,0.5186,0.5313,0.5259,0.521,0.5285,0.5321,0.5325,0.5301,0.5297,0.5297,0.5297,0.5297,0.5297,0.5297,0.5859,0.6236,0.6344,0.7364,0.8203,0.8804,0.8804,0.8804,0.8804,0.8831,0.8883,0.9008,0.9008,0.9113,0.9237,0.0,0.0,0.9439,0.9562,0.9588,0.9614,0.9692,1.001,1.0454,1.1006,1.151,1.2051,0.0,0.0,0.0,0.0,0.0,0.0,0.0,0.0,0.0,0.0,0.0,0.0,0.0,0.0,0.0,0.0,0.0,0.0,0.0,0.0,0.0,0.0,0.0,0.0,0.0,0.0,0.0,0.0,0.0,0.0,0.8804,0.8804,0.8804,0.0,0.0,0.0,0.0,0.0,0.0,0.0,0.8804,0.0,0.0,0.0,0.0,0.0,0.0,0.0,0.0,0.7771,0.7257,0.6421,0.6258,0.0,0.0,0.0,0.0,0.0,0.4473,0.4512,0.479,0.571,0.5553,0.5213,0.5414,0.5079,0.4739,0.4792,0.493,0.4999,0.4869,0.5078,0.5244,0.5145,0.5203,0.5345,0.5519,0.5547,0.5458,0.5313,0.5454,0.5486,0.5313,0.5297,0.5297,0.5297,0.5297,0.5297,0.5297,0.5859,0.6426,0.6945,0.7584,0.8203,0.8804,0.8804,0.8804,0.8804,0.891,0.8982,0.9008,0.9106,0.9237,0.9361,0.0,0.9465,0.9562,0.9588,0.9588,0.964,1.0113,1.0326,1.0454,1.1006,1.125,1.141,0.0,0.0,0.0,0.0,0.0,0.0,0.0,0.0,0.0,0.0,0.0,0.0,0.0,0.0,0.0,0.0,0.0,0.0,0.0,0.0,0.0,0.0,0.0,0.0,0.0,0.0,0.0,0.0,0.0,0.9011,0.9011,0.8878,0.8804,0.8804,0.0,0.0,0.0,0.0,0.0,0.0,0.0,0.0,0.0,0.0,0.0,0.0,0.0,0.0,0.0,0.0,0.6637,0.6154,0.5809,0.0,0.0,0.0,0.0,0.0,0.442,0.4349,0.4427,0.5001,0.4924,0.4787,0.5055,0.4821,0.4629,0.4993,0.5011,0.4938,0.495,0.5092,0.5182,0.5122,0.5207,0.5325,0.5434,0.5442,0.5413,0.5309,0.5369,0.5413,0.5309,0.5297,0.5297,0.5297,0.5297,0.5297,0.5297,0.5859,0.6317,0.662,0.7444,0.8037,0.8309,0.8718,0.891,0.891,0.8982,0.9087,0.9211,0.929,0.9387,0.9517,0.0,0.9536,0.9588,0.9588,0.9769,1.0061,1.03,1.0778,1.1393,1.1918,1.2116,1.2166,0.0,0.0,0.0,0.0,0.0,0.0,0.0,0.0,0.0,0.0,0.0,0.0,0.0,0.0,0.0,0.0,0.0,0.0,0.0,0.0,0.0,0.0,0.0,0.0,0.0,0.0,0.0,0.9111,0.9178,0.9178,0.9104,0.8884,0.8804,0.0,0.0,0.0,0.0,0.0,0.0,0.0,0.0,0.0,0.0,0.0,0.0,0.0,0.0,0.0,0.0,0.0,0.0,0.0,0.0,0.0,0.0,0.0,0.4731,0.446,0.446,0.4382,0.4331,0.4424,0.441,0.443,0.4788,0.4682,0.4633,0.5177,0.5102,0.4962,0.5086,0.5106,0.5122,0.5137,0.5236,0.5297,0.5297,0.5297,0.5297,0.5297,0.5297,0.5297,0.5297,0.5297,0.5297,0.5297,0.5297,0.5352,0.5513,0.5941,0.6312,0.6583,0.7444,0.7978,0.817,0.8712,0.9008,0.9008,0.9061,0.9211,0.9413,0.9439,0.951,0.9588,0.9588,0.9588,0.9614,0.9744,1.0035,1.0429,1.0676,1.141,1.2348,1.2759,1.2964,1.3042,0.0,0.0,0.0,0.0,0.0,0.0,0.0,0.0,0.0,0.0,0.0,0.0,0.0,0.0,0.0,0.0,0.0,0.0,0.0,0.0,0.0,0.0,0.0,0.0,0.0,0.8982,0.905,0.8838,0.9078,0.9078,0.8838,0.8818,0.8804,0.0,0.0,0.0,0.0,0.0,0.0,0.0,0.0,0.0,0.0,0.0,0.0,0.0,0.0,0.0,0.0,0.0,0.0,0.0,0.0,0.0,0.0,0.0,0.4447,0.4314,0.4314,0.4306,0.4298,0.4314,0.441,0.4597,0.4978,0.5065,0.5088,0.5253,0.5277,0.524,0.5108,0.5106,0.5137,0.528,0.5289,0.5297,0.5297,0.5297,0.5297,0.5297,0.5297,0.5297,0.5297,0.5297,0.5297,0.5297,0.5297,0.554,0.61,0.6182,0.6691,0.7738,0.7845,0.8223,0.8929,0.8982,0.9008,0.9008,0.9263,0.9387,0.9413,0.9543,0.9588,0.9588,0.9588,0.9588,0.964,1.0138,1.0377,1.0506,1.1569,1.2323,1.2856,1.2881,1.315,1.3408,0.0,0.0,0.0,0.0,0.0,0.0,0.0,0.0,0.0,0.0,0.0,0.0,0.0,0.0,0.0,0.0,0.0,0.0,0.0,0.0,0.0,0.0,0.0,0.7756,0.7756,0.8367,0.8648,0.854,0.8986,0.9064,0.8804,0.8804,0.0,0.0,0.0,0.0,0.0,0.0,0.0,0.0,0.0,0.0,0.0,0.0,0.0,0.0,0.0,0.0,0.0,0.0,0.0,0.0,0.0,0.0,0.0,0.0,0.0,0.4322,0.4414,0.4361,0.4294,0.4294,0.4125,0.4122,0.4779,0.4601,0.4486,0.5159,0.5236,0.5198,0.5216,0.5064,0.5007,0.5253,0.5297,0.5297,0.5297,0.5297,0.5297,0.5297,0.5297,0.5297,0.5297,0.5297,0.5297,0.5297,0.5645,0.5968,0.6182,0.688,0.7444,0.7898,0.8335,0.8712,0.9008,0.9159,0.9237,0.9237,0.9361,0.9439,0.951,0.9588,0.9588,0.9588,0.9588,0.9588,0.9614,0.9821,1.031,1.1049,1.2418,1.3086,1.3271,1.3271,1.3535,1.3812,0.0,0.0,0.0,0.0,0.0,0.0,0.0,0.0,0.0,0.0,0.0,0.0,0.0,0.0,0.0,0.0,0.0,0.0,0.0,0.0,0.0,0.0,0.0,0.7004,0.681,0.7593,0.8064,0.8251,0.8791,0.8978,0.8804,0.0,0.0,0.0,0.0,0.0,0.0,0.0,0.0,0.0,0.0,0.0,0.0,0.0,0.0,0.0,0.0,0.0,0.0,0.0,0.0,0.0,0.0,0.0,0.0,0.0,0.0,0.426,0.4404,0.4248,0.4051,0.4064,0.3771,0.3665,0.4402,0.4222,0.4108,0.4854,0.5107,0.5179,0.5277,0.5123,0.5034,0.5261,0.5297,0.5297,0.5297,0.5297,0.5297,0.5297,0.5297,0.5297,0.5297,0.5297,0.5297,0.5297,0.5859,0.629,0.648,0.7391,0.8004,0.8249,0.8738,0.9035,0.914,0.9316,0.9413,0.9465,0.9465,0.951,0.9588,0.9588,0.9588,0.9614,0.9769,0.9803,0.9787,1.0221,1.1014,1.2016,1.3084,1.3584,1.3685,1.3685,1.3948,1.425,0.0,0.0,0.0,0.0,0.0,0.0,0.0,0.0,0.0,0.0,0.0,0.0,0.0,0.0,0.0,0.0,0.0,0.0,0.0,0.0,0.0,0.0,0.0,0.681,0.6209,0.6783,0.7375,0.7898,0.8507,0.8804,0.8778,0.0,0.0,0.0,0.0,0.0,0.0,0.0,0.0,0.0,0.0,0.0,0.0,0.0,0.0,0.0,0.0,0.0,0.0,0.0,0.5297,0.0,0.0,0.0,0.0,0.0,0.4313,0.413,0.4254,0.39,0.3512,0.358,0.3392,0.3362,0.3956,0.4108,0.4153,0.4362,0.4873,0.5297,0.5297,0.5297,0.5297,0.5297,0.5297,0.5297,0.5297,0.5297,0.5297,0.5297,0.5297,0.5297,0.5301,0.5301,0.5301,0.5329,0.5887,0.648,0.7085,0.761,0.8249,0.8982,0.9008,0.9133,0.9387,0.9413,0.9465,0.9588,0.9588,0.9588,0.9588,0.9588,0.9614,0.964,1.0164,1.0279,1.0203,1.154,1.2642,1.348,1.3516,1.3753,1.4114,1.4114,1.4387,1.4727,0.0,0.0,0.0,0.0,0.0,0.0,0.0,0.0,0.0,0.0,0.0,0.0,0.0,0.0,0.0,0.0,0.0,0.0,0.0,0.0,0.0,0.0,0.0,0.0,0.0,0.0,0.7744,0.7898,0.8507,0.8586,0.0,0.0,0.0,0.7321,0.0,0.0,0.0,0.0,0.0,0.0,0.0,0.0,0.0,0.0,0.0,0.0,0.0,0.0,0.0,0.0,0.0,0.0,0.0,0.0,0.0,0.4719,0.4488,0.4194,0.3944,0.3722,0.3511,0.3241,0.3147,0.3185,0.342,0.3916,0.4447,0.4935,0.5107,0.5202,0.5277,0.5224,0.5179,0.5277,0.5297,0.5297,0.5297,0.5297,0.5297,0.5297,0.5297,0.5458,0.5887,0.5941,0.6105,0.6544,0.7074,0.7471,0.7664,0.8203,0.8666,0.8982,0.908,0.9237,0.9387,0.9484,0.9562,0.9588,0.9588,0.9588,0.9588,0.9588,0.9795,1.0164,1.0326,1.0579,1.0968,1.2057,1.2691,1.3039,1.4036,1.4482,1.459,1.459,1.4863,1.5166,0.0,0.0,0.0,0.0,0.0,0.0,0.0,0.0,0.0,0.0,0.0,0.0,0.0,0.0,0.0,0.0,0.0,0.0,0.0,0.0,0.0,0.0,0.0,0.0,0.0,0.7551,0.801,0.0,0.0,0.0,0.0,0.0,0.0,0.6729,0.0,0.0,0.0,0.0,0.0,0.0,0.0,0.0,0.0,0.0,0.0,0.0,0.0,0.0,0.0,0.0,0.0,0.0,0.0,0.0,0.0,0.4529,0.4248,0.3854,0.3491,0.3468,0.3419,0.2841,0.2907,0.3226,0.3494,0.4,0.4571,0.5179,0.524,0.5195,0.5277,0.5236,0.5199,0.5281,0.5297,0.5297,0.5297,0.5297,0.5297,0.5297,0.5513,0.5805,0.6154,0.6426,0.6701,0.7085,0.761,0.7898,0.7898,0.8474,0.8883,0.9087,0.9159,0.929,0.9484,0.9562,0.9588,0.9588,0.9588,0.9588,0.9588,0.9588,0.9899,1.0411,1.0779,1.1268,1.1929,1.262,1.3033,1.3363,1.4402,1.4893,1.5039,1.5039,1.5195,1.5381,0.0,0.0,0.0,0.0,0.0,0.0,0.0,0.0,0.0,0.0,0.0,0.0,0.0,0.0,0.0,0.0,0.0,0.0,0.0,0.0,0.0,0.0,0.0,0.0,0.0,0.0,0.0,0.0,0.0,0.0,0.0,0.0,0.6783,0.6154,0.0,0.57,0.0,0.0,0.0,0.0,0.0,0.0,0.0,0.0,0.0,0.0,0.0,0.0,0.0,0.0,0.0,0.0,0.5297,0.4793,0.4175,0.4125,0.3795,0.335,0.2951,0.3109,0.3184,0.236,0.2674,0.3365,0.3956,0.4281,0.462,0.5159,0.5285,0.5297,0.5297,0.5297,0.5297,0.5297,0.5297,0.5297,0.5297,0.5297,0.5325,0.538,0.5859,0.6236,0.6344,0.6858,0.7192,0.7246,0.7691,0.7978,0.7978,0.8501,0.8929,0.9185,0.9211,0.9335,0.9588,0.9588,0.9614,0.9666,0.9614,0.964,0.9744,0.964,0.9925,1.0522,1.1419,1.2228,1.2915,1.3148,1.3537,1.4094,1.46,1.5019,1.5361,1.5371,1.5381,1.541,0.0,0.0,0.0,0.0,0.0,0.0,0.0,0.0,0.0,0.0,0.0,0.0,0.0,0.0,0.0,0.0,0.0,0.0,0.0,0.0,0.0,0.0,0.0,0.0,0.0,0.0,0.0,0.0,0.0,0.0,0.0,0.0,0.0,0.6055,0.0,0.629,0.0,0.0,0.0,0.0,0.0,0.0,0.0,0.0,0.0,0.0,0.0,0.0,0.0,0.0,0.0,0.0,0.5297,0.5118,0.4783,0.4311,0.395,0.3535,0.2653,0.2407,0.2299,0.184,0.2478,0.3365,0.3956,0.4535,0.4988,0.5102,0.5228,0.5297,0.5297,0.5297,0.5297,0.5297,0.5297,0.5297,0.5297,0.5297,0.5485,0.5941,0.6127,0.6556,0.7444,0.7658,0.7931,0.8401,0.8533,0.8613,0.8613,0.8824,0.9035,0.9185,0.9309,0.9439,0.9588,0.9588,0.9821,1.0216,0.9795,1.0053,1.0821,0.9969,1.0131,1.1082,1.2159,1.2738,1.292,1.3301,1.3513,1.3695,1.4373,1.475,1.4961,1.5168,1.5313,1.541,0.0,0.0,0.0,0.0,0.0,0.0,0.0,0.0,0.0,0.0,0.0,0.0,0.0,0.0,0.0,0.0,0.0,0.0,0.0,0.0,0.0,0.0,0.0,0.0,0.0,0.0,0.0,0.0,0.0,0.0,0.0,0.0,0.0,0.6295,0.0,0.6799,0.0,0.0,0.0,0.0,0.0,0.0,0.0,0.0,0.0,0.0,0.0,0.0,0.0,0.0,0.0,0.0,0.0,0.0,0.4711,0.4393,0.4047,0.3596,0.2604,0.2576,0.2727,0.2332,0.2656,0.3209,0.3738,0.4353,0.4849,0.493,0.5139,0.5297,0.5297,0.5297,0.5297,0.5297,0.5297,0.5297,0.5297,0.554,0.5837,0.6154,0.6691,0.7257,0.7845,0.817,0.8448,0.8778,0.8804,0.8804,0.8804,0.8936,0.9185,0.9562,0.971,0.9969,1.0362,1.0379,1.0515,1.0778,1.0515,1.0668,1.12,1.0922,1.1099,1.1694,1.2529,1.2905,1.2935,1.3254,1.3429,1.3549,1.4094,1.4517,1.4814,1.4963,1.5167,1.541,0.0,0.0,0.0,0.0,0.0,0.0,0.0,0.0,0.0,0.0,0.0,0.0,0.0,0.0,0.0,0.0,0.0,0.0,0.0,0.0,0.0,0.0,0.0,0.0,0.0,0.0,0.0,0.0,0.0,0.0,0.0,0.0,0.0,0.6723,0.0,0.0,0.0,0.0,0.0,0.0,0.0,0.0,0.0,0.0,0.0,0.0,0.0,0.0,0.5968,0.5458,0.0,0.0,0.0,0.0,0.4541,0.4435,0.4184,0.3696,0.2788,0.3009,0.3385,0.2987,0.295,0.3115,0.3503,0.4092,0.461,0.4775,0.5046,0.5261,0.5293,0.5297,0.5297,0.5297,0.5297,0.5325,0.543,0.5887,0.6263,0.6475,0.7337,0.7951,0.8037,0.8507,0.8804,0.8804,0.8804,0.8831,0.8929,0.9061,0.9439,1.0072,1.0277,1.0609,1.1183,1.1183,1.1259,1.136,1.146,1.1435,1.1334,1.1918,1.2175,1.2126,1.2627,1.2881,1.291,1.3101,1.3272,1.3447,1.3823,1.4284,1.4697,1.4816,1.506,1.5362,0.0,0.0,0.0,0.0,0.0,0.0,0.0,0.0,0.0,0.0,0.0,0.0,0.0,0.0,0.0,0.0,0.0,0.0,0.0,0.0,0.0,0.0,0.0,0.0,0.0,0.0,0.0,0.0,0.0,0.0,0.0,0.0,0.0,0.7208,0.0,0.0,0.0,0.0,0.0,0.0,0.0,0.0,0.0,0.0,0.0,0.0,0.0,0.0,0.5407,0.5325,0.5297,0.0,0.0,0.0,0.5097,0.4625,0.4417,0.4148,0.3321,0.3052,0.2987,0.2921,0.3198,0.3518,0.359,0.4202,0.4775,0.48,0.497,0.5165,0.5269,0.5297,0.5297,0.5297,0.5297,0.5485,0.5991,0.6154,0.6556,0.7551,0.7818,0.8117,0.8639,0.8752,0.8804,0.8804,0.8804,0.9008,0.9465,0.9614,0.995,1.0498,1.0812,1.1015,1.1124,1.1158,1.146,1.2002,1.2446,1.2372,1.1828,1.2372,1.2431,1.2126,1.2529,1.2774,1.2881,1.2817,1.2861,1.3037,1.3671,1.4036,1.4262,1.4792,1.507,1.5205,0.0,0.0,0.0,0.0,0.0,0.0,0.0,0.0,0.0,0.0,0.0,0.0,0.0,0.0,0.0,0.0,0.0,0.0,0.0,0.0,0.0,0.0,0.0,0.0,0.0,0.0,0.0,0.0,0.0,0.0,0.0,0.7381,0.7461,0.0,0.0,0.0,0.0,0.0,0.0,0.0,0.0,0.0,0.0,0.0,0.0,0.0,0.0,0.0,0.0,0.5297,0.5297,0.5297,0.5297,0.0,0.0,0.0,0.4873,0.4603,0.3755,0.3275,0.3052,0.3252,0.3513,0.3781,0.4036,0.4455,0.4832,0.4938,0.5049,0.5137,0.5265,0.5297,0.5297,0.5297,0.5595,0.5887,0.6154,0.6745,0.7337,0.7845,0.8203,0.8501,0.8778,0.8804,0.8804,0.8804,0.9087,0.9361,0.9588,1.0072,1.0617,1.1124,1.1494,1.1803,1.2101,1.215,1.2298,1.2554,1.27,1.2627,1.2348,1.2505,1.2529,1.2455,1.2627,1.2783,1.2881,1.2759,1.2725,1.2822,1.303,1.3425,1.3901,1.4174,1.462,1.5098,0.0,0.0,0.0,0.0,0.0,0.0,0.0,0.0,0.0,0.0,0.0,0.0,0.0,0.0,0.0,0.0,0.0,0.0,0.0,0.0,0.0,0.0,0.0,0.0,0.0,0.0,0.0,0.0,0.0,0.0,0.7241,0.7139,0.7354,0.0,0.7601,0.0,0.0,0.0,0.0,0.0,0.0,0.0,0.0,0.0,0.0,0.0,0.0,0.0,0.5297,0.5297,0.5297,0.5297,0.5297,0.5297,0.0,0.0,0.0,0.4972,0.4311,0.3825,0.3573,0.3773,0.3913,0.4073,0.4427,0.4654,0.4857,0.5069,0.5121,0.5194,0.5273,0.5297,0.5352,0.5513,0.5914,0.629,0.6583,0.7364,0.7957,0.8117,0.8533,0.8804,0.8804,0.8804,0.8804,0.8804,0.9159,0.951,0.9788,1.0405,1.1049,1.171,1.2067,1.2431,1.2774,1.2856,1.2881,1.2856,1.2759,1.2652,1.2603,1.2505,1.2529,1.2652,1.2652,1.2735,1.2832,1.27,1.2686,1.2695,1.2668,1.3026,1.355,1.361,1.4119,1.476,0.0,0.0,0.0,0.0,0.0,0.0,0.0,0.0,0.0,0.0,0.0,0.0,0.0,0.0,0.0,0.0,0.0,0.0,0.0,0.0,0.0,0.0,0.0,0.0,0.0,0.0,0.0,0.0,0.0,0.0,0.5469,0.6566,0.6945,0.6696,0.7246,0.7295,0.6907,0.0,0.0,0.0,0.0,0.0,0.0,0.0,0.0,0.0,0.0,0.5297,0.5297,0.5297,0.5297,0.5297,0.5297,0.5297,0.5297,0.0,0.0,0.0,0.5034,0.4871,0.4674,0.4506,0.447,0.4474,0.4501,0.4654,0.4857,0.5069,0.5191,0.5289,0.5297,0.5297,0.5485,0.605,0.6182,0.6583,0.7658,0.7871,0.8117,0.8699,0.8778,0.8804,0.8804,0.8804,0.8804,0.8804,0.8831,0.929,1.0287,1.0517,1.1057,1.2051,1.2455,1.2627,1.2529,1.2774,1.2832,1.27,1.27,1.2578,1.2323,1.2298,1.2382,1.2505,1.2505,1.2578,1.27,1.2578,1.2578,1.2715,1.2982,1.3077,1.3171,1.3418,1.3784,1.4119,0.0,0.0,0.0,0.0,0.0,0.0,0.0,0.0,0.0,0.0,0.0,0.0,0.0,0.0,0.0,0.0,0.0,0.0,0.0,0.0,0.0,0.0,0.0,0.0,0.0,0.0,0.0,0.0,0.0,0.5932,0.5878,0.605,0.6105,0.61,0.6317,0.6426,0.6421,0.6186,0.0,0.0,0.0,0.0,0.0,0.0,0.0,0.4996,0.5233,0.5297,0.5297,0.5297,0.5297,0.5297,0.5297,0.5297,0.5297,0.5297,0.5253,0.5203,0.5113,0.5057,0.4938,0.4731,0.4686,0.4686,0.4686,0.4853,0.5024,0.5094,0.5199,0.5407,0.5809,0.5887,0.5941,0.6154,0.6826,0.7444,0.7845,0.8229,0.856,0.8778,0.8804,0.8804,0.8804,0.8804,0.8936,0.929,0.964,1.0149,1.0947,1.1426,1.1859,1.2224,1.2529,1.2676,1.2627,1.2725,1.27,1.2578,1.248,1.2431,1.2431,1.2348,1.2332,1.2382,1.2455,1.2578,1.27,1.2652,1.2554,1.244,1.2541,1.2697,1.29,1.3247,1.3626,1.4005,0.0,0.0,0.0,0.0,0.0,0.0,0.0,0.0,0.0,0.0,0.0,0.0,0.0,0.0,0.0,0.0,0.0,0.0,0.0,0.0,0.0,0.0,0.0,0.0,0.0,0.0,0.0,0.0,0.0,0.0,0.0,0.5618,0.5536,0.5422,0.5473,0.5609,0.0,0.0,0.0,0.5234,0.0,0.5124,0.4958,0.4858,0.4885,0.4996,0.5233,0.5297,0.5297,0.5297,0.5297,0.5297,0.5297,0.0,0.0,0.5297,0.5297,0.5273,0.5179,0.5173,0.5129,0.4942,0.4897,0.4897,0.4897,0.4991,0.5122,0.5161,0.5398,0.5727,0.6127,0.6502,0.6772,0.6772,0.7417,0.7978,0.8176,0.856,0.8804,0.8804,0.8804,0.8804,0.8804,0.8804,0.9035,0.9562,0.9935,1.0482,1.1251,1.1778,1.2126,1.2357,1.2505,1.2578,1.2627,1.2627,1.2578,1.2421,1.2348,1.2323,1.2357,1.2274,1.2249,1.2298,1.2397,1.248,1.2578,1.2578,1.2455,1.2298,1.2249,1.2341,1.2542,1.2955,1.3341,1.3773,0.0,0.0,0.0,0.0,0.0,0.0,0.0,0.0,0.0,0.0,0.0,0.0,0.0,0.0,0.0,0.0,0.0,0.0,0.0,0.0,0.0,0.0,0.0,0.0,0.0,0.0,0.0,0.0,0.0,0.0,0.0,0.0,0.5266,0.4719,0.4846,0.4956,0.5097,0.0,0.5097,0.5085,0.4816,0.4853,0.5054,0.4801,0.4853,0.5104,0.5233,0.5297,0.5297,0.5297,0.5297,0.5297,0.5297,0.0,0.0,0.0,0.5297,0.5297,0.0,0.0,0.0,0.5133,0.511,0.5106,0.5106,0.5106,0.5133,0.528,0.5778,0.6209,0.6236,0.7149,0.7898,0.7925,0.7925,0.8117,0.8725,0.8804,0.8804,0.8804,0.8804,0.8804,0.8804,0.8804,0.9035,0.9588,0.964,1.0131,1.1267,1.1452,1.1828,1.248,1.2382,1.2357,1.2505,1.2505,1.2431,1.2298,1.2298,1.2224,1.2101,1.2101,1.2175,1.2298,1.2298,1.2298,1.2298,1.2298,1.2298,1.2274,1.215,1.2101,1.2147,1.2542,1.2946,1.336,0.0,0.0,0.0,0.0,0.0,0.0,0.0,0.0,0.0,0.0,0.0,0.0,0.0,0.0,0.0,0.0,0.0,0.0,0.0,0.0,0.0,0.0,0.0,0.0,0.0,0.0,0.0,0.0,0.0,0.0,0.0,0.0,0.0,0.0,0.4743,0.4822,0.4956,0.4956,0.5014,0.5093,0.4907,0.4896,0.4958,0.4869,0.482,0.4816,0.4953,0.5014,0.5014,0.5014,0.5069,0.5183,0.527,0.0,0.0,0.0,0.0,0.0,0.5297,0.0,0.0,0.0,0.0,0.0,0.5106,0.5106,0.5227,0.5646,0.5976,0.6453,0.7283,0.7685,0.8037,0.8474,0.856,0.8613,0.8778,0.8804,0.8804,0.8804,0.8804,0.8804,0.8804,0.9159,0.9614,0.0,1.0592,1.1133,1.1852,1.1902,1.2051,1.2357,1.2323,1.2323,1.2348,1.2357,1.2283,1.215,1.215,1.2175,1.2249,1.2249,1.2249,1.2298,1.2298,1.2249,1.215,1.2249,1.2249,1.215,1.2101,1.2101,1.2147,1.2542,1.2954,1.3396,0.0,0.0,0.0,0.0,0.0,0.0,0.0,0.0,0.0,0.0,0.0,0.0,0.0,0.0,0.0,0.0,0.0,0.0,0.0,0.0,0.0,0.0,0.0,0.0,0.0,0.0,0.0,0.0,0.0,0.0,0.0,0.0,0.0,0.0,0.0,0.0,0.0,0.0,0.4598,0.468,0.4291,0.4324,0.4602,0.4477,0.4596,0.4801,0.4867,0.4928,0.4983,0.4928,0.4983,0.5128,0.5183,0.0,0.0,0.0,0.0,0.0,0.0,0.0,0.5297,0.5297,0.0,0.0,0.5558,0.5743,0.6034,0.6324,0.6586,0.695,0.7605,0.795,0.8222,0.8572,0.8731,0.8804,0.8804,0.8804,0.8804,0.8804,0.8804,0.8804,0.8804,0.929,0.9814,1.0364,1.0947,1.1519,1.2076,1.2101,1.215,1.22,1.2224,1.2224,1.2224,1.2224,1.2175,1.2101,1.2101,1.215,1.2224,1.2224,1.2224,1.2224,1.2224,1.2175,1.2101,1.2175,1.2175,1.2101,1.2101,1.2101,1.2174,1.2744,1.3088,1.3421,0.0,0.0,0.0,0.0,0.0,0.0,0.0,0.0,0.0,0.0,0.0,0.0,0.0,0.0,0.0,0.0,0.0,0.0,0.0,0.0,0.0,0.0,0.0,0.0,0.0,0.0,0.0,0.0,0.0,0.0,0.0,0.0,0.0,0.0,0.0,0.0,0.0,0.4215,0.4045,0.4039,0.3461,0.3647,0.4241,0.3984,0.4284,0.482,0.4838,0.4928,0.5014,0.4901,0.4959,0.5069,0.5097,0.5183,0.5297,0.5297,0.5297,0.0,0.0,0.0,0.0,0.5407,0.5864,0.0,0.629,0.6729,0.7112,0.7187,0.7384,0.7555,0.7631,0.8075,0.8449,0.8449,0.8637,0.8804,0.8804,0.8804,0.8804,0.8804,0.8857,0.891,0.891,0.9439,0.9994,1.0499,1.1057,1.1603,1.2101,1.2126,1.2126,1.215,1.2126,1.2126,1.2126,1.2101,1.2101,1.2101,1.2101,1.2101,1.2101,1.2101,1.2101,1.2101,1.2101,1.2101,1.2101,1.2101,1.2101,1.2101,1.2101,1.2128,1.2257,1.2983,1.3277,1.3479,0.0,0.0,0.0,0.0,0.0,0.0,0.0,0.0,0.0,0.0,0.0,0.0,0.0,0.0,0.0,0.0,0.0,0.0,0.0,0.0,0.0,0.0,0.0,0.0,0.0,0.0,0.0,0.0,0.0,0.0,0.0,0.0,0.0,0.0,0.0,0.0,0.0,0.4374,0.3901,0.3511,0.3846,0.4222,0.4593,0.4556,0.4446,0.4357,0.4529,0.4601,0.4629,0.4715,0.4822,0.4956,0.5069,0.5183,0.5297,0.5297,0.5297,0.5297,0.5297,0.0,0.6023,0.6023,0.6485,0.0,0.6918,0.7004,0.7214,0.7664,0.7776,0.7958,0.8449,0.8639,0.8724,0.8724,0.8771,0.8804,0.8804,0.8804,0.8804,0.8804,0.9185,0.9491,0.9588,1.0446,1.1057,1.1267,1.1694,1.2051,1.2258,1.2249,1.2298,1.2431,1.2323,1.2249,1.2249,1.215,1.2101,1.2101,1.2101,1.2101,1.2101,1.2101,1.2101,1.2101,1.2101,1.2101,1.2101,1.2101,1.2101,1.2101,1.2101,1.2294,1.2597,1.2753,1.3232,1.3876,0.0,0.0,0.0,0.0,0.0,0.0,0.0,0.0,0.0,0.0,0.0,0.0,0.0,0.0,0.0,0.0,0.0,0.0,0.0,0.0,0.0,0.0,0.0,0.0,0.0,0.0,0.0,0.0,0.0,0.0,0.0,0.0,0.0,0.0,0.0,0.0,0.0,0.4292,0.4125,0.4177,0.379,0.3701,0.3815,0.4076,0.4224,0.4365,0.4464,0.4491,0.4543,0.4739,0.4846,0.4928,0.5069,0.5183,0.5297,0.5297,0.5513,0.5755,0.5755,0.6186,0.6647,0.6647,0.7074,0.0,0.0,0.7723,0.8023,0.8289,0.8227,0.8242,0.8539,0.8591,0.8591,0.8591,0.8711,0.8804,0.8804,0.8804,0.8804,0.8804,0.9335,0.9718,0.9788,1.0778,1.1553,1.1877,1.215,1.2332,1.2406,1.2348,1.2323,1.2406,1.2274,1.22,1.22,1.2126,1.2101,1.2101,1.2101,1.2101,1.2101,1.2101,1.2101,1.2101,1.2101,1.2101,1.2101,1.2101,1.2101,1.2119,1.2312,1.2395,1.2415,1.2696,1.3013,1.3405,0.0,0.0,0.0,0.0,0.0,0.0,0.0,0.0,0.0,0.0,0.0,0.0,0.6209,0.5391,0.4952,0.5281,0.0,0.0,0.0,0.0,0.0,0.0,0.0,0.5964,0.0,0.0,0.0,0.0,0.0,0.0,0.0,0.0,0.0,0.0,0.0,0.0,0.4669,0.4361,0.4463,0.4767,0.3824,0.3378,0.3322,0.3683,0.4101,0.4546,0.4519,0.4491,0.4546,0.4791,0.4873,0.4928,0.5069,0.5183,0.5325,0.543,0.5809,0.6236,0.6344,0.6804,0.7241,0.7241,0.7664,0.8064,0.0,0.0,0.0,0.8804,0.8617,0.8482,0.8482,0.8482,0.8508,0.8602,0.8728,0.8883,0.9106,0.9061,0.8936,0.8804,0.9491,0.9969,0.9987,1.1049,1.1902,1.2308,1.2431,1.2505,1.2505,1.2406,1.2348,1.2348,1.22,1.215,1.215,1.2101,1.2101,1.2101,1.2101,1.2101,1.2101,1.2101,1.2101,1.2101,1.2101,1.2101,1.2101,1.2101,1.2097,1.2138,1.2461,1.2406,1.2202,1.269,1.2865,1.2868,0.8804,0.8804,0.0,0.0,0.0,0.0,0.0,0.0,0.0,0.0,0.0,0.6209,0.6209,0.6073,0.5828,0.5332,0.5304,0.5332,0.5391,0.5959,0.0,0.0,0.0,0.6182,0.61,0.0,0.0,0.0,0.0,0.0,0.0,0.0,0.0,0.0,0.4625,0.468,0.4721,0.4897,0.457,0.399,0.4484,0.4677,0.4677,0.4601,0.4605,0.466,0.4546,0.4491,0.4519,0.466,0.4794,0.4928,0.5069,0.5183,0.5407,0.5941,0.6154,0.6317,0.6837,0.7396,0.7818,0.7818,0.8256,0.8699,0.8699,0.0,0.8804,0.8804,0.0,0.8758,0.8758,0.0,0.0,0.9389,0.9093,0.9185,1.0244,0.9994,0.9465,0.8883,0.9814,1.0568,1.0661,1.1825,1.2529,1.248,1.2505,1.2505,1.2505,1.248,1.248,1.248,1.2357,1.2274,1.2274,1.215,1.2101,1.2101,1.2101,1.2101,1.2101,1.2101,1.2101,1.2101,1.2101,1.2101,1.2101,1.2101,1.2135,1.2192,1.2168,1.2206,1.2306,1.2671,1.2865,1.305,0.8778,0.8745,0.0,0.0,0.0,0.0,0.0,0.0,0.0,0.6615,0.6041,0.5691,0.5691,0.5391,0.5226,0.5304,0.5304,0.5605,0.629,0.6593,0.0,0.0,0.6507,0.6046,0.5687,0.0,0.0,0.0,0.4491,0.0,0.0,0.0,0.0,0.0,0.4508,0.458,0.4609,0.4863,0.4763,0.4484,0.4873,0.4956,0.4873,0.4656,0.4574,0.4574,0.4519,0.4491,0.4519,0.0,0.4794,0.4928,0.5069,0.5183,0.5407,0.6023,0.6453,0.6837,0.7423,0.8099,0.8626,0.8459,0.8737,0.8984,0.8844,0.0,0.8804,0.8804,0.0,0.0,0.0,0.0,0.0,0.0,0.9943,1.0012,1.0542,1.0466,1.0287,0.9987,1.0737,1.1475,1.1875,1.2471,1.2735,1.2529,1.2578,1.2578,1.2505,1.2431,1.2382,1.2382,1.2249,1.2175,1.2175,1.2126,1.2101,1.2101,1.2101,1.2101,1.2101,1.2101,1.2101,1.2101,1.2101,1.2229,1.2441,1.2441,1.2362,1.2263,1.2223,1.2245,1.2292,1.2338,1.2459,1.266,0.8156,0.0,0.0,0.0,0.0,0.0,0.0,0.0,0.0,0.5959,0.5441,0.5089,0.5089,0.4736,0.4653,0.5034,0.5089,0.5582,0.6783,0.6864,0.6918,0.7085,0.6507,0.5905,0.5308,0.4763,0.0,0.0,0.0,0.0,0.0,0.0,0.0,0.0,0.4443,0.4511,0.452,0.4743,0.4818,0.4791,0.4932,0.4904,0.4763,0.4629,0.4519,0.4491,0.4491,0.4491,0.4519,0.466,0.477,0.0,0.5042,0.5156,0.5403,0.6209,0.6797,0.7356,0.7981,0.0,0.9144,0.0,0.0,0.0,0.0,0.0,0.0,0.9008,0.9133,0.0,0.0,0.0,0.0,0.0,0.0,1.072,1.1082,1.1099,1.1015,1.0813,1.1391,1.2055,1.27,1.2832,1.2832,1.2627,1.2686,1.2627,1.2505,1.2372,1.2274,1.2258,1.215,1.2101,1.2101,1.2101,1.2101,1.2101,1.2101,1.2101,1.2101,1.2101,1.2101,1.2101,1.2101,1.233,1.2689,1.2689,1.2544,1.2325,1.2325,1.2272,1.2206,1.2021,1.2118,1.2292,0.6669,0.7144,0.0,0.0,0.0,0.0,0.0,0.0,0.5332,0.5332,0.4873,0.4515,0.4515,0.4519,0.4519,0.4515,0.4515,0.5007,0.6154,0.6236,0.6485,0.7085,0.6507,0.5905,0.5308,0.4763,0.4491,0.0,0.0,0.0,0.0,0.0,0.0,0.0,0.4487,0.4487,0.4512,0.466,0.4632,0.4519,0.466,0.4632,0.4519,0.466,0.4605,0.4491,0.4491,0.0,0.0,0.466,0.4691,0.0,0.0,0.0,0.0,0.0,0.0,0.0,0.0,0.0,0.0,0.8878,0.0,0.0,0.0,0.0,0.9562,0.0,0.0,0.0,0.0,0.0,0.0,0.0,0.0,0.0,0.0,1.2039,1.1541,1.0889,1.1391,1.208,1.2822,1.2905,1.2905,1.2881,1.2774,1.2627,1.2505,1.2372,1.2249,1.2101,1.2101,1.2101,1.2101,1.2101,1.2101,1.2101,1.2101,1.2101,1.2101,1.2101,1.2101,1.2101,1.2101,1.233,1.2689,1.2689,1.2574,1.24,1.24,1.2235,1.1993,1.1922,1.1963,1.2067,0.0,0.0,0.0,0.6416,0.6068,0.5605,0.5195,0.4994,0.4894,0.4894,0.4755,0.4641,0.4641,0.4552,0.4653,0.5007,0.5034,0.5363,0.6154,0.6209,0.629,0.6507,0.5932,0.5496,0.5304,0.4763,0.4491,0.0,0.0,0.0,0.0,0.0,0.0,0.0,0.0,0.4574,0.4519,0.4736,0.4767,0.4632,0.4688,0.4668,0.4631,0.4588,0.4546,0.4491,0.4491,0.4491,0.0,0.4546,0.4632,0.4798,0.5266,0.5481,0.5854,0.7373,0.7901,0.0,0.0,0.0,0.9724,0.9459,0.0,0.0,0.0,0.0,0.0,0.0,0.0,0.0,0.0,0.0,0.0,0.0,0.0,0.0,0.0,1.3147,1.3136,1.2658,1.2547,1.2642,1.2881,1.2377,1.2246,1.2735,1.211,1.1902,1.2344,1.2249,1.2338,1.2686,1.2559,1.2569,1.2686,1.2559,1.2357,1.2101,1.2101,1.2101,1.2101,1.2101,1.2101,1.2101,1.2101,1.2487,1.3075,1.2851,1.2661,1.2434,1.2231,1.1794,1.1384,1.1812,1.2164,1.2423,0.5089,0.5007,0.5171,0.5628,0.5332,0.4897,0.4546,0.4621,0.4691,0.4691,0.4691,0.4691,0.4691,0.4583,0.4625,0.4979,0.5007,0.5254,0.585,0.5878,0.5878,0.5878,0.5496,0.5226,0.5007,0.468,0.4491,0.4491,0.0,0.4491,0.0,0.0,0.0,0.0,0.0,0.4664,0.4569,0.4764,0.4739,0.4636,0.4692,0.4691,0.4684,0.0,0.4621,0.4573,0.0,0.4573,0.4573,0.4573,0.4629,0.4826,0.5525,0.58,0.6193,0.7767,0.8311,0.855,0.9363,0.9804,0.0,0.976,1.0143,0.0,1.0681,0.0,1.1555,0.0,0.0,0.0,0.0,0.0,0.0,0.0,0.0,0.0,0.0,1.3823,1.4007,1.3734,1.3359,1.2944,1.2475,1.2178,1.2093,1.2289,1.191,1.1949,1.2652,1.255,1.2769,1.3351,1.3011,1.2866,1.2991,1.2657,1.2357,1.2101,1.2101,1.2101,1.2101,1.2101,1.2101,1.2101,1.2101,1.256,1.3268,1.2949,1.2674,1.2479,1.2262,1.1714,1.105,1.1495,1.1956,1.2383,0.4491,0.4494,0.4501,0.4501,0.4494,0.4494,0.4511,0.4638,0.4701,0.4701,0.4701,0.4701,0.4691,0.4583,0.4491,0.4491,0.4491,0.4708,0.5226,0.5254,0.5254,0.5254,0.5254,0.5034,0.4519,0.4491,0.4491,0.4491,0.4491,0.0,0.0,0.0,0.0,0.0,0.4738,0.4724,0.4699,0.4696,0.4636,0.4515,0.4668,0.4707,0.4728,0.4867,0.4833,0.4711,0.4704,0.4701,0.4701,0.4701,0.473,0.4901,0.5768,0.6052,0.6404,0.7907,0.8536,0.8827,0.9292,0.9665,0.9899,0.977,0.9755,0.0,0.0,0.0,1.1732,0.0,0.0,0.0,0.0,0.0,0.0,0.0,0.0,0.0,0.0,1.4172,1.4163,1.4143,1.3773,1.3047,1.18,1.2289,1.2382,1.1712,1.2152,1.2716,1.3372,1.3266,1.3447,1.4014,1.3375,1.304,1.304,1.2427,1.2126,1.2101,1.2101,1.2101,1.2101,1.2101,1.2101,1.2101,1.2101,1.2544,1.3241,1.2922,1.2664,1.2494,1.2464,1.1866,1.0979,1.101,1.1424,1.1895,0.4491,0.4583,0.4662,0.4662,0.4566,0.4566,0.4765,0.4833,0.486,0.486,0.486,0.4816,0.4704,0.4583,0.4491,0.4491,0.4491,0.4546,0.4708,0.4708,0.4708,0.4708,0.4708,0.4653,0.4491,0.4491,0.4491,0.4491,0.4491,0.0,0.4662,0.0,0.0,0.0,0.0,0.5021,0.472,0.4812,0.478,0.4675,0.4799,0.4921,0.4978,0.0,0.4928,0.4972,0.4897,0.486,0.486,0.486,0.5217,0.5777,0.6397,0.6959,0.7648,0.8794,0.9163,0.9309,0.973,1.0013,1.0177,1.0161,1.0605,1.109,0.0,0.0,0.0,0.0,0.0,0.0,0.0,0.0,0.0,0.0,0.0,0.0,0.0,1.5059,1.4971,1.4658,1.4211,1.3695,1.3066,1.2589,1.2385,1.2553,1.202,1.2197,1.3331,0.0,1.3555,1.4352,1.3779,1.3443,1.3443,1.2861,1.2406,1.2101,1.2101,1.2101,1.2101,1.2101,1.2101,1.2101,1.2101,1.2432,1.2894,1.2572,1.2456,1.2455,1.1959,1.1291,1.0695,1.1205,1.132,1.132,0.4576,0.4684,0.4809,0.487,0.4762,0.4697,0.4802,0.4897,0.4958,0.4897,0.4887,0.4887,0.4799,0.4624,0.4491,0.4491,0.4491,0.4491,0.4491,0.4491,0.4491,0.4491,0.4491,0.4491,0.4491,0.4491,0.4491,0.4491,0.4556,0.0,0.4694,0.0,0.0,0.0,0.0,0.5233,0.4916,0.4844,0.4848,0.4918,0.4982,0.5029,0.0,0.5427,0.5597,0.5696,0.5923,0.5751,0.5477,0.5477,0.5932,0.6629,0.7264,0.7754,0.8251,0.9166,0.9438,0.95,0.9818,0.9989,1.0117,1.0269,1.0649,1.1139,1.1787,1.2243,1.27,0.0,1.3603,1.3649,0.0,0.0,0.0,1.3931,1.4383,0.0,1.5245,1.5362,1.5322,1.5088,1.4678,1.4248,1.3792,1.2959,1.2381,1.2338,1.2115,1.2507,1.3734,0.0,1.4097,1.5051,1.4406,1.3941,1.3776,1.3062,1.2501,1.2101,1.2101,1.2101,1.2101,1.2101,1.2101,1.2101,1.2101,1.238,1.2776,1.2434,1.2374,1.2427,1.1772,1.1189,1.0775,1.113,1.1161,1.1026,0.4694,0.4843,0.4955,0.5076,0.5015,0.4918,0.4748,0.4938,0.5019,0.4877,0.4891,0.4891,0.4891,0.4653,0.4518,0.4518,0.4518,0.4511,0.4491,0.4491,0.4491,0.4491,0.4491,0.4491,0.4491,0.4491,0.4501,0.4518,0.4655,0.474,0.481,0.0,0.0,0.0,0.5468,0.5407,0.5207,0.4914,0.4942,0.5197,0.5255,0.5222,0.524,0.6204,0.6531,0.6539,0.7259,0.6992,0.6371,0.6371,0.6804,0.7491,0.8115,0.8395,0.8601,0.9279,0.9516,0.9548,0.9708,0.9772,0.9868,1.0174,1.0302,1.0721,1.2058,1.2398,1.2791,1.4088,1.4357,1.4387,0.0,0.0,0.0,1.4686,1.4931,1.5147,1.5186,1.5284,1.5362,1.5362,1.5011,0.0,1.4116,1.3291,1.2522,1.1819,1.2347,1.3176,0.0,0.0,1.4674,1.5513,1.4918,1.437,1.3907,1.3173,1.2569,1.2174,1.2174,1.2147,1.2101,1.2101,1.2101,1.2101,1.2156,1.2398,1.2714,1.246,1.2354,1.2311,1.1776,1.1304,1.0939,1.1026,1.1034,1.0955,0.4874,0.4965,0.5069,0.5096,0.5216,0.5225,0.4921,0.4891,0.4901,0.4752,0.4731,0.4731,0.4731,0.4684,0.4679,0.4679,0.4679,0.4627,0.4498,0.4491,0.4491,0.4491,0.4491,0.4491,0.4491,0.4491,0.4552,0.4679,0.4677,0.4909,0.5279,0.0,0.0,0.0,0.5923,0.5809,0.535,0.5299,0.5231,0.5167,0.5895,0.5836,0.55,0.6991,0.72,0.6852,0.7723,0.7682,0.7205,0.7205,0.7685,0.8297,0.8425,0.8852,0.9322,0.9466,0.9516,0.9516,0.9548,0.9676,0.9836,1.0015,1.0348,1.0816,1.151,1.1877,1.2378,1.3458,1.367,1.3851,1.4387,0.0,0.0,0.0,0.0,0.0,1.5,1.5059,1.5059,1.5059,1.4821,1.4443,1.3982,1.3578,1.3168,1.2709,1.2793,1.3113,1.3681,0.0,1.4247,0.0,1.4438,0.0,0.0,0.0,1.3001,1.2588,1.2588,1.2413,1.2101,1.2101,1.2101,1.2119,1.2441,1.2489,1.2334,1.2659,1.2344,1.1692,1.1837,1.1368,1.0655,1.1221,1.1233,1.1026,0.3997,0.4345,0.4691,0.4691,0.4984,0.5169,0.4921,0.4853,0.4775,0.4701,0.4691,0.4721,0.4799,0.4738,0.4721,0.4802,0.4735,0.466,0.4614,0.4607,0.4607,0.4607,0.4607,0.4607,0.4607,0.4532,0.4566,0.4691,0.4769,0.4952,0.5262,0.0,0.0,0.5762,0.5871,0.5782,0.5499,0.0,0.0,0.538,0.5749,0.6033,0.639,0.7513,0.8064,0.8354,0.9152,0.9222,0.884,0.8345,0.864,0.9188,0.9057,0.9247,0.9516,0.9516,0.9516,0.9516,0.9516,0.958,0.9734,1.0174,1.0552,1.1117,1.2065,1.2531,1.3015,1.3865,1.401,1.413,1.4446,1.4515,0.0,0.0,0.0,0.0,1.4843,1.4941,1.5,1.5,1.4678,1.44,1.4263,1.3922,1.3462,1.2832,1.2856,1.3065,1.3467,0.0,1.3884,0.0,0.0,0.0,1.3451,0.0,1.3314,1.2689,1.2689,1.2487,1.2101,1.2101,1.2101,1.2119,1.2523,1.2437,1.2034,1.2305,1.2292,1.2089,1.2264,1.1765,1.1085,1.1574,1.1439,1.105,0.3405,0.3865,0.4384,0.4525,0.4765,0.4938,0.4955,0.486,0.4752,0.4682,0.4672,0.4701,0.4853,0.4762,0.4741,0.486,0.4762,0.4691,0.4691,0.4691,0.4691,0.4691,0.4691,0.4674,0.4672,0.4583,0.4614,0.4741,0.4891,0.5036,0.5211,0.5527,0.0,0.0,0.0,0.0,0.0,0.0,0.5361,0.5633,0.587,0.6435,0.7246,0.8348,0.9178,0.985,1.0507,1.0672,1.0418,0.9559,0.9541,0.9871,0.966,0.9558,0.9516,0.9516,0.9516,0.9516,0.9516,0.958,0.9798,1.0364,1.0866,1.1573,1.2742,1.3288,1.3765,1.4375,1.4515,1.4515,1.4515,1.4515,0.0,0.0,0.0,0.0,0.0,1.4793,1.4882,1.4882,1.459,1.4402,1.4486,1.4216,1.3744,1.2968,1.2958,1.3096,1.3369,1.3466,1.3625,0.0,0.0,1.4135,1.3704,0.0,1.3635,1.2827,1.2827,1.2615,1.2229,1.2229,1.2275,1.2386,1.2781,1.2654,1.2153,1.211,1.2246,1.2479,1.2479,1.2059,1.1535,1.1884,1.1678,1.1265,0.4227,0.4341,0.466,0.5216,0.4779,0.4525,0.5004,0.5066,0.4945,0.4563,0.4511,0.4569,0.4697,0.4701,0.4697,0.4711,0.4701,0.4691,0.4691,0.4691,0.4691,0.4691,0.4691,0.4655,0.4515,0.4634,0.4745,0.4867,0.5009,0.525,0.5562,0.0,0.0,0.0,0.0,0.0,0.0,0.5559,0.5557,0.5738,0.7251,0.7603,0.7557,1.0036,1.0688,1.0347,1.1059,1.1298,1.1218,1.0695,1.0263,0.9901,0.9877,0.9709,0.9516,0.9516,0.9516,0.9516,0.9516,0.9862,1.0269,1.0453,1.1287,1.2249,1.2868,1.345,1.3975,1.4399,1.4515,1.4515,1.4515,1.4515,1.4515,0.0,0.0,0.0,0.0,1.4545,1.4545,1.4545,1.4638,1.454,1.4175,1.4382,1.4274,1.3643,1.3394,1.3295,1.331,1.3585,1.3585,1.3199,1.4221,1.4511,1.4054,1.4309,1.4038,1.3231,1.3231,1.3038,1.2634,1.2634,1.2845,1.3204,1.3626,1.362,1.3301,1.2617,1.2241,1.2067,1.2067,1.1829,1.1535,1.1884,1.195,1.1972,0.2999,0.3372,0.3936,0.4631,0.4754,0.4842,0.5075,0.5026,0.4908,0.4758,0.4657,0.4657,0.4813,0.4745,0.4728,0.4819,0.4826,0.4826,0.4826,0.4908,0.4918,0.483,0.4826,0.4799,0.4738,0.4707,0.4806,0.5015,0.5196,0.5396,0.5617,0.0,0.0,0.0,0.0,0.6079,0.5613,0.6079,0.6409,0.674,0.7419,0.8334,0.9405,1.0486,1.1063,1.1371,1.1662,1.1669,1.1539,1.1212,1.0785,1.0346,1.019,0.9961,0.9781,0.9937,0.9763,0.961,1.0094,1.0425,1.0697,1.1157,1.2073,1.2933,1.3222,1.3813,1.4326,1.4483,1.4515,1.4515,1.4515,1.4515,1.4515,1.4515,0.0,0.0,0.0,1.4515,1.4515,1.4515,1.4565,1.4551,1.4463,1.4589,1.4639,1.4592,1.4088,1.3639,1.3311,1.3574,1.3532,1.3121,0.0,1.4176,1.3968,1.4334,1.4222,1.3644,1.3644,1.3461,1.3066,1.3066,1.3295,1.3644,1.3189,1.3185,1.3416,1.2548,1.2236,1.2375,1.2375,1.2123,1.1853,1.221,1.2202,1.2037,0.2415,0.2902,0.3587,0.4467,0.4742,0.4939,0.5167,0.5114,0.505,0.505,0.4914,0.4847,0.4881,0.4782,0.4735,0.4843,0.4853,0.487,0.4884,0.5019,0.5056,0.4955,0.4951,0.4931,0.4891,0.4853,0.4921,0.51,0.5284,0.0,0.0,0.0,0.0,0.0,0.6556,0.6556,0.6118,0.688,0.7424,0.7784,0.8191,0.9246,1.0603,1.0967,1.1455,1.2003,1.2003,1.1892,1.1744,1.1558,1.1279,1.0936,1.0526,1.0232,1.0039,1.0148,0.9919,0.9752,1.0405,1.0784,1.119,1.1782,1.2656,1.3433,1.361,1.4118,1.456,1.465,1.4588,1.4515,1.4515,1.4515,1.4515,1.4515,0.0,0.0,0.0,1.4515,1.4515,1.4515,1.4515,1.4536,1.4636,1.4686,1.4804,1.5029,1.4648,1.4146,1.3643,1.3757,1.3695,0.0,0.0,0.0,1.4143,1.4389,1.4304,1.3911,1.3911,1.3736,1.347,1.3598,1.3743,1.3874,1.3063,1.2964,1.3282,1.2484,1.2329,1.259,1.259,1.2431,1.221,1.2503,1.2431,1.2218,0.3159,0.3388,0.3892,0.5175,0.4788,0.4553,0.5289,0.5392,0.5388,0.5388,0.522,0.5042,0.4904,0.4782,0.4691,0.4694,0.4694,0.4758,0.4877,0.5019,0.51,0.5096,0.5096,0.5029,0.4891,0.5022,0.5096,0.51,0.0,0.0,0.5399,0.0,0.6299,0.7189,0.7116,0.7116,0.7219,0.8054,0.8451,0.8709,1.0016,1.0523,1.0634,1.1842,1.215,1.2003,1.2003,1.2003,1.1966,1.1744,1.1706,1.1582,1.0906,1.0497,1.0238,0.9985,0.9907,0.994,1.0226,1.0936,1.1684,1.2166,1.2932,1.3665,1.395,1.4318,1.4702,1.5022,1.4781,1.4515,1.4515,1.4515,1.4515,1.4515,0.0,0.0,0.0,1.4515,1.4515,1.4515,1.4515,1.4515,1.4515,1.4606,1.4715,1.4715,0.0,1.481,0.0,0.0,0.0,1.41,1.4344,0.0,1.4706,1.4556,1.4304,1.3911,1.3911,1.3911,1.392,1.4304,1.4309,1.3971,1.3653,1.3299,1.2989,1.2705,1.259,1.259,1.259,1.259,1.259,1.259,1.259,1.259,0.3095,0.3657,0.4345,0.5243,0.5193,0.5123,0.5362,0.5395,0.5395,0.5395,0.5351,0.5303,0.5259,0.4996,0.4847,0.4847,0.4935,0.4978,0.0,0.5203,0.524,0.5103,0.51,0.5076,0.5032,0.5076,0.5182,0.532,0.0,0.0,0.0,0.6622,0.7017,0.6913,0.78,0.8126,0.8073,0.8778,0.9416,0.9939,1.0204,1.09,1.1737,1.1855,1.2003,1.2194,1.204,1.2077,1.215,1.1966,1.1818,1.165,1.1458,1.1093,1.0759,1.0749,1.06,1.063,1.1506,1.19,1.2205,1.273,1.3355,1.3918,1.403,1.4524,1.4896,1.4723,1.4598,1.4515,1.4515,1.4515,1.4515,1.4515,1.4515,0.0,1.4515,0.0,1.4515,1.4515,1.4515,1.4515,1.4515,1.4536,0.0,0.0,0.0,0.0,0.0,0.0,0.0,0.0,1.4354,0.0,1.4556,1.4506,1.4442,1.4313,1.4313,1.4187,1.3942,1.3858,1.3761,1.364,1.3307,1.2962,1.2657,1.2617,1.2447,1.2218,1.2495,1.259,1.259,1.259,1.259,1.256,0.3431,0.4055,0.4634,0.5279,0.5395,0.5395,0.5395,0.5395,0.5395,0.5395,0.5395,0.5395,0.5395,0.5228,0.0,0.4972,0.5049,0.51,0.51,0.5277,0.5351,0.522,0.5216,0.5216,0.5216,0.5216,0.0,0.5395,0.5491,0.5905,0.6709,0.7089,0.7395,0.7588,0.845,0.8853,0.8922,0.9667,1.0315,1.0899,1.0888,1.1401,1.215,1.2003,1.204,1.2187,1.212,1.2121,1.2158,1.2117,1.2151,1.2217,1.2251,1.2164,1.1903,1.1365,1.1201,1.1323,1.2006,1.2255,1.2432,1.2963,1.3364,1.3737,1.403,1.4489,1.4854,1.4753,1.4616,1.4515,1.4515,1.4515,1.4515,1.4515,1.4515,1.4515,1.4515,0.0,1.4515,1.4515,1.4515,0.0,0.0,1.4515,1.4536,0.0,0.0,0.0,0.0,0.0,0.0,1.4275,1.4407,1.4515,1.4515,1.4515,1.4515,1.4515,1.4357,1.4198,1.398,1.3662,1.342,1.3307,1.3103,1.2827,1.2541,1.2594,1.2455,1.2242,1.2503,1.259,1.259,1.259,1.256,1.2467,0.4061,0.4503,0.4803,0.5309,0.5395,0.5395,0.5395,0.5395,0.5395,0.5395,0.5395,0.5395,0.5395,0.5395,0.5337,0.5127,0.0,0.0,0.5113,0.5281,0.5395,0.5395,0.5395,0.5395,0.5395,0.5395,0.5428,0.5458,0.5538,0.6556,0.842,0.7333,0.7623,0.9013,0.903,0.9344,0.9846,1.0575,1.1191,1.1638,1.1898,1.2003,1.204,1.2187,1.2137,1.2013,1.2198,1.2084,1.1919,1.2244,1.2619,1.3031,1.3244,1.3491,1.3446,1.1929,1.1751,1.2018,1.1914,1.2095,1.2434,1.2988,1.3124,1.334,1.3967,1.4351,1.4653,1.4992,1.4772,1.4515,1.4515,1.4515,1.4515,1.4515,1.4515,1.4515,1.4515,1.4515,1.4515,1.4515,0.0,0.0,1.4515,1.4515,1.4515,0.0,0.0,0.0,0.0,0.0,1.4636,1.4515,1.4515,1.4515,1.4515,1.4515,1.4515,1.4515,1.4139,1.398,1.395,1.361,1.3277,1.2981,1.2981,1.282,1.2558,1.2582,1.2582,1.2558,1.2582,1.259,1.259,1.259,1.2467,1.2305,0.0,0.0,0.5241,0.5372,0.5395,0.5395,0.5395,0.5395,0.5395,0.5395,0.5395,0.5395,0.5395,0.5395,0.5382,0.5344,0.5341,0.5341,0.5341,0.5375,0.5395,0.5395,0.5395,0.5395,0.5395,0.5395,0.5653,0.6174,0.6873,0.7481,0.799,0.8751,0.912,0.908,0.9456,0.9992,1.0638,1.0817,1.1307,1.1911,1.1792,1.1966,1.2187,1.1929,1.1872,1.1899,1.1791,1.1678,1.1646,1.253,1.2827,1.2953,1.3956,1.4214,1.3966,1.2867,1.2557,1.2516,1.2495,1.2508,1.2625,1.2988,1.3467,1.3967,1.4313,1.4679,1.49,1.4698,1.4579,1.4515,1.4515,1.4515,1.4515,1.4515,1.4515,1.4515,1.4515,1.4515,1.4515,0.0,1.4515,1.4515,1.4515,1.4515,1.4515,0.0,0.0,1.4515,1.4515,1.4536,1.4536,1.4515,1.4515,1.4515,1.4515,1.4515,1.4515,1.4476,1.3881,1.3631,1.3601,1.3072,1.2775,1.2683,1.2683,1.2492,1.217,1.2479,1.2431,1.2178,1.2487,1.259,1.259,1.2436,1.2336,1.2274,0.4734,0.5182,0.5477,0.5405,0.5395,0.5395,0.5395,0.5395,0.5395,0.5395,0.5395,0.5395,0.5395,0.5395,0.5395,0.5395,0.5395,0.5395,0.5395,0.5395,0.5395,0.5395,0.5395,0.5395,0.5395,0.5395,0.5951,0.7056,0.766,0.8309,0.8938,0.9428,0.9639,0.9661,0.9898,1.0365,1.0965,1.0965,1.1348,1.2003,1.1892,1.2003,1.2268,1.2077,1.2021,1.2064,1.1956,1.2013,1.2256,1.2983,1.3512,1.4036,1.4888,1.5188,1.5086,1.4431,1.3711,1.3112,1.3123,1.2869,1.2638,1.2829,1.3502,1.4124,1.4282,1.472,1.5038,1.4827,1.4634,1.4515,1.4515,1.4515,1.4515,1.4515,1.4515,1.4515,1.4515,1.4515,1.4515,1.4515,1.4515,1.4515,1.4515,1.4515,1.4515,1.4515,1.4515,0.0,1.4515,1.4515,1.4515,1.4515,1.4515,1.4515,1.4515,1.4515,1.4515,1.4476,1.3821,1.3511,1.348,1.2889,1.259,1.259,1.259,1.2479,1.2282,1.2511,1.2479,1.2289,1.2519,1.2529,1.2467,1.2336,1.2212,1.2058,0.5286,0.5501,0.5549,0.5419,0.5416,0.5429,0.5429,0.5429,0.5429,0.5429,0.5409,0.5395,0.5395,0.5395,0.5395,0.5395,0.5395,0.5395,0.5395,0.5395,0.5395,0.5395,0.5491,0.5502,0.5429,0.5584,0.6427,0.801,0.8294,0.9108,1.0352,0.9792,0.9828,1.0352,1.031,1.0577,1.1042,1.1042,1.1416,1.204,1.204,1.215,1.2305,1.2305,1.2271,1.2238,1.2238,1.2541,1.302,1.3459,1.4366,1.5394,1.5817,1.6123,1.6245,1.6011,1.4959,1.3809,1.3654,1.3127,1.2707,1.2873,1.3491,1.4119,1.4302,1.4684,1.504,1.5102,1.4781,1.4515,1.4515,1.4515,1.4515,1.4515,1.4515,1.4515,1.4515,0.0,1.4515,1.4515,1.4515,1.4515,1.4515,1.4417,1.4387,1.4476,1.4417,1.4387,1.4476,1.4515,1.4515,1.4515,1.4515,1.4515,1.4515,1.4515,1.4476,1.4417,1.3791,1.348,1.342,1.2858,1.259,1.259,1.259,1.259,1.259,1.259,1.259,1.259,1.259,1.2467,1.2305,1.2274,1.2081,1.1802,0.5365,0.5416,0.5423,0.5399,0.5501,0.5555,0.5555,0.5555,0.5555,0.5555,0.5477,0.5395,0.5395,0.5395,0.5395,0.5395,0.5395,0.5395,0.5395,0.5395,0.5395,0.5395,0.5947,0.6044,0.5586,0.6328,0.75,0.9082,0.9353,0.9863,1.0623,1.0515,1.0551,1.0611,1.0394,1.0653,1.1257,1.1257,1.1633,1.2268,1.2268,1.2268,1.2305,1.2305,1.2151,1.1973,1.1973,1.2263,1.2791,1.3777,1.4616,1.547,1.6426,1.6517,1.6368,1.6653,1.5944,1.4816,1.3856,1.3291,1.3159,1.4042,1.4136,1.4279,1.5246,1.5,1.4698,1.504,1.4781,1.4515,1.4515,1.4515,1.4515,1.4515,1.4515,1.4515,1.4515,0.0,1.4515,1.4515,1.4515,1.4515,1.4515,1.398,1.3881,1.4455,1.398,1.3881,1.4476,1.4515,1.4515,1.4515,1.4515,1.4515,1.4515,1.4515,1.4357,1.407,1.37,1.3368,1.3072,1.2744,1.259,1.259,1.259,1.259,1.259,1.259,1.259,1.259,1.259,1.2467,1.2274,1.2182,1.1996,1.1771,0.5599,0.5599,0.5599,0.5599,0.5657,0.5705,0.5705,0.5705,0.5705,0.5705,0.5644,0.5603,0.5528,0.5518,0.5484,0.5402,0.5395,0.5429,0.5515,0.5518,0.5518,0.5518,0.5861,0.6179,0.6362,0.774,0.8816,0.9507,1.0143,1.0599,1.093,1.093,1.0967,1.1071,1.0948,1.1178,1.1661,1.1661,1.1922,1.2305,1.2305,1.2305,1.2305,1.2305,1.2218,1.217,1.2604,1.3176,1.3801,1.4735,1.5566,1.6231,1.674,1.676,1.6665,1.6839,1.6273,1.5373,1.4441,1.4072,1.4022,1.4523,1.483,1.5107,1.5634,1.5444,1.5255,1.5643,1.5093,1.4579,1.479,1.4653,1.4515,1.4515,1.4515,0.0,1.4515,1.4515,1.4515,1.4515,1.4515,1.4515,1.4515,1.4228,1.4169,1.4485,1.4198,1.4169,1.4485,1.4515,1.4515,1.4515,1.4515,1.4515,1.4515,1.4515,1.4327,1.401,1.367,1.3307,1.2981,1.2713,1.259,1.259,1.259,1.259,1.259,1.259,1.259,1.259,1.2467,1.2336,1.2182,1.1996,1.1584,1.1076,0.58,0.58,0.58,0.58,0.583,0.5854,0.5854,0.5854,0.5854,0.5854,0.5823,0.5759,0.565,0.564,0.5579,0.5463,0.5477,0.5535,0.5586,0.5654,0.5677,0.564,0.5954,0.6673,0.7851,0.9114,0.9825,1.0045,1.075,1.1111,1.1111,1.1149,1.126,1.1409,1.1446,1.1669,1.2003,1.2003,1.2114,1.2305,1.2305,1.2305,1.2305,1.2305,1.2305,1.2415,1.3208,1.3962,1.4708,1.5542,1.6298,1.6908,1.6908,1.6908,1.6908,1.6908,1.6508,1.5911,1.5254,1.4948,1.4872,1.5024,1.5426,1.5842,1.6008,1.5815,1.5683,1.6068,1.5254,1.4607,1.4909,1.4717,1.4515,1.4515,0.0,1.4515,0.0,1.4515,1.4515,1.4515,1.4515,1.4515,1.4515,1.4357,1.4327,1.4476,1.4357,1.4327,1.4476,1.4598,1.4653,1.4653,1.4561,1.4515,1.4515,1.4417,1.4228,1.3881,1.3549,1.3216,1.2897,1.2683,1.259,1.259,1.259,1.259,1.259,1.259,1.259,1.259,1.2367,1.2212,1.2096,1.1872,1.1233,1.0446,0.58,0.58,0.58,0.58,0.5918,0.5976,0.5976,0.5976,0.5976,0.5976,0.5888,0.5796,0.5786,0.5786,0.5728,0.5586,0.5694,0.5718,0.5596,0.5844,0.5899,0.5793,0.6616,0.8134,1.0395,1.0068,1.0265,1.1007,1.1068,1.1111,1.1111,1.1298,1.1409,1.1409,1.1595,1.1781,1.2003,1.2003,1.2114,1.2305,1.2305,1.2305,1.2305,1.2305,1.2305,1.2415,1.3208,1.3962,1.4708,1.5542,1.6298,1.6908,1.6908,1.6908,1.6908,1.6908,1.6846,1.6736,1.6309,1.5695,1.5343,1.6009,1.5941,1.5904,1.6633,1.5947,1.5269,1.5661,1.5084,1.4524,1.4552,1.4533,1.4515,1.4515,0.0,0.0,1.4515,1.4515,1.4515,1.4515,1.4515,1.4515,1.4515,1.3941,1.3821,1.4446,1.3911,1.3851,1.4476,1.4854,1.5056,1.5056,1.4708,1.4515,1.4515,1.4198,1.3881,1.3541,1.3186,1.2897,1.2629,1.2598,1.259,1.259,1.259,1.259,1.259,1.259,1.259,1.259,1.2367,1.2212,1.2096,1.1872,1.1163,1.0307,0.6122,0.6122,0.6122,0.6122,0.6135,0.6173,0.6173,0.6173,0.6173,0.6173,0.616,0.6051,0.5956,0.5905,0.5884,0.5735,0.5769,0.582,0.5861,0.6404,0.6786,0.6866,0.8164,0.9292,1.019,1.0504,1.0775,1.1111,1.1111,1.1149,1.1298,1.1223,1.1409,1.1781,1.1706,1.1892,1.2194,1.2194,1.2224,1.2305,1.2305,1.2305,1.2305,1.2305,1.2305,1.2482,1.3745,1.435,1.478,1.6044,1.6656,1.6908,1.6908,1.6908,1.6908,1.6908,1.6908,1.6872,1.6725,1.6467,1.6317,1.6608,1.6567,1.6471,1.6526,1.616,1.5803,1.5711,1.5258,1.4955,1.5194,1.5038,1.4955,1.5203,0.0,1.5157,1.4909,1.4873,1.4781,1.4543,1.4515,1.4515,1.4515,1.4258,1.4228,1.4485,1.4258,1.4336,1.4864,1.5019,1.5102,1.5102,1.4496,1.4198,1.4198,1.407,1.3739,1.3194,1.3072,1.2867,1.259,1.259,1.259,1.259,1.259,1.2529,1.2398,1.2398,1.2375,1.2282,1.2058,1.1965,1.1872,1.1584,1.0975,1.0205,0.63,0.63,0.63,0.63,0.63,0.63,0.63,0.63,0.63,0.63,0.63,0.6259,0.6112,0.6101,0.604,0.5884,0.5918,0.5969,0.599,0.7037,0.7835,0.8237,0.9311,1.003,1.0255,1.0812,1.1111,1.1111,1.1111,1.1186,1.1298,1.1223,1.1446,1.1892,1.1818,1.1966,1.2305,1.2305,1.2305,1.2305,1.2305,1.2305,1.2305,1.2305,1.2305,1.2519,1.4063,1.4601,1.4859,1.6368,1.6908,1.6908,1.6908,1.6908,1.6908,1.6908,1.6908,1.6908,1.6908,1.6908,1.6908,1.6908,1.6908,1.6835,1.656,1.6379,1.623,1.5945,1.556,1.5368,1.5643,1.5469,1.5377,1.5643,1.5689,1.5551,1.5157,1.5102,1.4955,1.4561,1.4616,1.4698,1.4698,1.4698,1.4623,1.4527,1.452,1.4673,1.5123,1.5097,1.5151,1.5269,1.4671,1.425,1.4044,1.38,1.3467,1.2989,1.2928,1.2775,1.259,1.259,1.259,1.259,1.2529,1.2436,1.2305,1.2243,1.2182,1.2096,1.1864,1.1771,1.1716,1.1397,1.0818,0.9983,0.63,0.63,0.63,0.63,0.63,0.63,0.63,0.63,0.63,0.63,0.63,0.63,0.63,0.63,0.6238,0.6006,0.6173,0.6235,0.6044,0.7719,0.9084,0.9884,0.9922,1.0293,1.108,1.1111,1.1111,1.1111,1.1111,1.1111,1.1111,1.1298,1.1521,1.1706,1.1898,1.212,1.2305,1.2305,1.2305,1.2305,1.2305,1.2305,1.2305,1.2305,1.2305,1.2519,1.4027,1.4601,1.4816,1.6368,1.6908,1.6908,1.6908,1.6908,1.6908,1.6908,1.6908,1.6908,1.6908,1.6908,1.6908,1.6908,1.6908,1.6908,1.6899,1.6606,1.6288,1.6312,1.5982,1.5689,1.5689,1.5689,1.5698,1.5698,1.5698,1.556,1.5166,1.5111,1.4955,1.454,1.4864,1.5102,1.5102,1.5102,1.4944,1.4622,1.4522,1.4684,1.5172,1.512,1.5274,1.5687,1.5292,1.476,1.4093,1.3386,1.2989,1.2981,1.2713,1.259,1.259,1.259,1.259,1.259,1.2398,1.2305,1.2274,1.2151,1.2096,1.2058,1.1872,1.1709,1.156,1.1373,1.0667,0.9709,0.63,0.63,0.63,0.63,0.63,0.63,0.63,0.63,0.63,0.63,0.63,0.63,0.63,0.63,0.6282,0.6235,0.6272,0.6821,0.8082,0.9189,1.0273,1.1241,1.0936,1.0938,1.1363,1.1214,1.1111,1.1111,1.1111,1.1186,1.1298,1.1223,1.1446,1.1905,1.208,1.2322,1.265,1.265,1.265,1.263,1.2385,1.2305,1.2305,1.2305,1.2305,1.2445,1.3455,1.4178,1.4744,1.5798,1.6473,1.6908,1.6908,1.6908,1.6908,1.6908,1.6908,1.6908,1.6908,1.6908,1.6908,1.6908,1.6908,1.6835,1.6526,1.6615,1.6569,1.5991,1.601,1.6129,1.6129,1.6129,1.6221,1.6496,1.6541,1.6404,1.601,1.5698,1.5269,1.4635,1.4383,1.4193,1.4004,1.3809,1.3664,1.3622,1.3685,1.4108,1.4951,1.4706,1.4782,1.5325,1.4742,1.4052,1.3339,1.3378,1.3165,1.2713,1.2652,1.259,1.259,1.259,1.2529,1.2398,1.2336,1.2182,1.1957,1.1903,1.1747,1.1522,1.1459,1.1373,1.1216,1.1028,1.0383,0.9486,0.63,0.63,0.63,0.63,0.63,0.632,0.6375,0.6334,0.632,0.6375,0.6334,0.63,0.63,0.63,0.63,0.63,0.6606,0.7445,0.8992,0.9836,1.0813,1.2018,1.1661,1.1477,1.1639,1.1419,1.1274,1.1274,1.1166,1.1149,1.1298,1.1223,1.1546,1.2085,1.2235,1.2563,1.2965,1.2965,1.2898,1.2777,1.2685,1.2518,1.2311,1.2432,1.2405,1.2415,1.3208,1.3962,1.4708,1.5542,1.6298,1.6908,1.6908,1.6908,1.6908,1.6908,1.6908,1.6908,1.6908,1.6908,1.6908,1.6908,1.6908,1.6844,1.6606,1.6734,1.6771,1.6266,1.6376,1.6551,1.6551,1.6551,1.6633,1.6872,1.6908,1.6771,1.6376,1.5752,1.5105,1.4403,1.3966,1.359,1.3332,1.3253,1.316,1.3068,1.3001,1.3316,1.4178,1.4162,1.4308,1.4806,1.4362,1.3851,1.3234,1.3353,1.3122,1.259,1.259,1.256,1.2467,1.2467,1.2406,1.2212,1.2151,1.1996,1.1802,1.1747,1.1553,1.1303,1.1303,1.1185,1.0965,1.0776,1.0168,0.9294,0.63,0.63,0.6303,0.6317,0.632,0.6368,0.6511,0.6422,0.6385,0.6515,0.6409,0.632,0.632,0.6306,0.63,0.63,0.7115,0.8078,0.9154,0.9969,1.0982,1.2247,1.2083,1.1956,1.1956,1.1639,1.1495,1.1495,1.1212,1.1111,1.1111,1.1298,1.1684,1.2196,1.2415,1.2778,1.3253,1.3253,1.3086,1.2884,1.3073,1.2839,1.2365,1.265,1.2576,1.2409,1.3135,1.3854,1.4637,1.5507,1.6298,1.6908,1.6908,1.6908,1.6908,1.6908,1.6908,1.6908,1.6908,1.6908,1.6908,1.6908,1.6908,1.6908,1.6908,1.6908,1.6908,1.6908,1.6908,1.6874,1.6839,1.6874,1.6874,1.6839,1.6874,1.6745,1.6278,1.547,1.4614,1.3897,1.3502,1.3194,1.2935,1.3107,1.3085,1.2664,1.2362,1.2462,1.3086,1.3476,1.3797,1.3999,1.4049,1.3876,1.3434,1.3164,1.2877,1.259,1.259,1.2498,1.2305,1.2305,1.2212,1.2058,1.1864,1.1802,1.1771,1.1622,1.1466,1.1272,1.1209,1.0958,1.0643,1.046,0.9817,0.8941,0.63,0.63,0.6334,0.6446,0.6467,0.6518,0.6627,0.6624,0.6617,0.6647,0.6559,0.6467,0.6467,0.6368,0.63,0.63,0.7805,0.9115,0.9987,1.0999,1.1773,1.23,1.2258,1.2228,1.2228,1.173,1.1495,1.1495,1.1212,1.1111,1.1111,1.1149,1.1527,1.2209,1.2465,1.2915,1.3507,1.3507,1.3467,1.3373,1.3045,1.2804,1.267,1.2496,1.2358,1.2335,1.2482,1.3062,1.3962,1.533,1.6298,1.6908,1.6908,1.6908,1.6908,1.6908,1.6908,1.6908,1.6908,1.6908,1.6908,1.6908,1.6908,1.6908,1.6908,1.6908,1.6908,1.6908,1.6908,1.6804,1.6491,1.67,1.6804,1.6482,1.6691,1.662,1.5782,1.5239,1.4443,1.326,1.2756,1.2424,1.208,1.1987,1.1801,1.1482,1.1409,1.1689,1.2396,1.26,1.2655,1.257,1.2905,1.2825,1.2196,1.2368,1.2521,1.259,1.259,1.2498,1.2305,1.2305,1.2151,1.1872,1.1833,1.1747,1.1622,1.1428,1.1279,1.109,1.0383,0.9939,0.9556,0.8941,0.8091,0.7144,0.63,0.6354,0.6426,0.6501,0.6573,0.663,0.6787,0.6749,0.6725,0.68,0.6675,0.6552,0.6521,0.6446,0.6402,0.6402,0.8042,0.9325,0.9782,1.1266,1.2168,1.2306,1.2312,1.2312,1.2312,1.176,1.1495,1.1495,1.1212,1.1111,1.1111,1.1186,1.1594,1.2244,1.2587,1.3084,1.364,1.3771,1.3653,1.338,1.3247,1.2913,1.2589,1.2685,1.2559,1.2318,1.2496,1.3189,1.4214,1.5401,1.6298,1.6908,1.6908,1.6908,1.6908,1.6908,1.6908,1.6908,1.6908,1.6908,1.6908,1.6908,1.6908,1.6954,1.7138,1.7183,1.7238,1.7449,1.7188,1.6901,1.6865,1.6712,1.6447,1.5974,1.6079,1.5895,1.4914,1.4222,1.3519,1.2641,1.2064,1.1666,1.1484,1.1375,1.1254,1.1099,1.1111,1.1322,1.1828,1.1794,1.1785,1.1775,1.1866,1.1882,1.1809,1.1918,1.2139,1.2467,1.2467,1.2305,1.2058,1.2058,1.1934,1.1716,1.1716,1.1622,1.1466,1.1341,1.1146,1.0863,0.9996,0.9524,0.9177,0.8296,0.7316,0.6301,0.6371,0.647,0.6559,0.6546,0.6654,0.679,0.69,0.6858,0.682,0.6906,0.6834,0.6692,0.6563,0.6566,0.6592,0.671,0.8093,0.9126,0.9497,1.112,1.2147,1.2271,1.2312,1.2312,1.2312,1.1844,1.1585,1.1495,1.1212,1.1111,1.1111,1.1309,1.1718,1.2332,1.2742,1.3207,1.3737,1.3997,1.3808,1.338,1.3527,1.316,1.2572,1.2979,1.2819,1.2405,1.2636,1.3467,1.4494,1.518,1.5903,1.6508,1.6508,1.6508,1.6508,1.6508,1.6561,1.658,1.658,1.6615,1.6685,1.6685,1.672,1.6881,1.7243,1.7297,1.7406,1.7705,1.7205,1.6776,1.692,1.6448,1.5868,1.5251,1.5207,1.4914,1.3903,1.3106,1.244,1.2051,1.1481,1.1111,1.1111,1.1111,1.1111,1.1111,1.1111,1.1181,1.1335,1.1246,1.1166,1.1153,1.0967,1.1038,1.1452,1.1303,1.149,1.205,1.205,1.1957,1.1802,1.1802,1.1716,1.1591,1.156,1.1466,1.1303,1.124,1.1052,1.0706,0.9678,0.9198,0.8947,0.7702,0.6695,0.5844,0.6614,0.6658,0.6712,0.6844,0.6842,0.6903,0.7045,0.7051,0.7045,0.7065,0.6943,0.6849,0.6868,0.6749,0.6953,0.7648,0.8151,0.8971,1.0247,1.0796,1.1436,1.2271,1.2312,1.2312,1.2312,1.2246,1.1946,1.1495,1.1212,1.1111,1.1117,1.1359,1.1793,1.2305,1.2779,1.3265,1.3737,1.3997,1.4041,1.3948,1.3693,1.3533,1.3373,1.3012,1.2797,1.2697,1.2476,1.2921,1.368,1.3781,1.4286,1.4922,1.4922,1.4922,1.4922,1.4922,1.5114,1.5357,1.5357,1.5548,1.5768,1.5768,1.6069,1.6422,1.6519,1.6482,1.6493,1.6519,1.6213,1.5698,1.4876,1.4944,1.4796,1.3926,1.4019,1.3867,1.2924,1.2675,1.2265,1.1354,1.1162,1.1111,1.1111,1.1111,1.1111,1.1111,1.1111,1.0997,1.0803,1.1213,1.1029,1.0113,1.025,1.0237,1.0059,0.9779,1.0091,1.0993,1.0993,1.1281,1.1802,1.1802,1.1716,1.1591,1.1435,1.1334,1.1272,1.0996,1.0832,1.0643,0.9005,0.8291,0.7962,0.6137,0.5348,0.5186,0.6685,0.677,0.6851,0.6873,0.695,0.7024,0.7088,0.7095,0.7095,0.7095,0.7041,0.6974,0.6896,0.6793,0.6857,0.7319,0.84,0.9331,0.9897,1.1157,1.2002,1.2277,1.2312,1.2312,1.2312,1.2168,1.1908,1.1495,1.1369,1.1309,1.1347,1.1435,1.1791,1.2312,1.2804,1.322,1.3568,1.3955,1.3988,1.3828,1.3653,1.3507,1.3333,1.3106,1.2938,1.2744,1.2412,1.2806,1.3499,1.3499,1.3998,1.4601,1.4601,1.4601,1.4601,1.4601,1.4738,1.4895,1.4895,1.5006,1.5155,1.5155,1.5306,1.5551,1.5988,1.5594,1.5471,1.6733,1.6371,1.5737,1.5311,1.4735,1.3984,1.3149,1.3113,1.2894,1.1916,1.1768,1.1583,1.1149,1.1111,1.1111,1.1111,1.1111,1.1111,1.1111,1.1111,1.0952,1.0617,1.0689,1.0396,0.9687,0.9633,0.9631,0.9676,0.9414,0.963,1.0243,1.0117,1.0433,1.1083,1.1007,1.0717,1.0338,1.0496,1.0534,1.0478,1.0706,1.0681,1.0364,0.871,0.7377,0.6264,0.5415,0.4987,0.4824]},{"header":{"parameterUnit":"m.s-1","parameterCategory":1,"la1":30.6,"la2":28.766,"lo1":-90.7593,"lo2":-88.6598,"dx":0.0162,"dy":0.0183,"nx":116,"ny":114,"refTime":"2023-01-30T06:00:00:Z","depth":0,"parameterNumber":3,"parameterNumberName":"V-component_of_WINDS"},"data":[0.0,0.0,0.0,0.0,0.0,0.0,0.0,0.0,0.0,0.0,0.0,0.0,0.0,0.0,0.0,0.0,0.0,0.0,0.0,0.0,0.0,0.0,0.0,0.0,0.0,0.0,0.0,0.0,0.0,0.0,0.0,0.0,0.0,0.0,0.0,0.0,0.0,0.0,0.0,0.0,0.0,0.0,0.0,0.0,0.0,0.0,0.0,0.0,0.0,0.0,0.0,0.0,0.0,0.0,0.0,0.0,0.0,0.0,0.0,0.0,0.0,0.0,0.0,0.0,0.0,0.0,0.0,0.0,0.0,0.0,0.0,0.0,0.0,0.0,0.0,0.0,0.0,0.0,0.0,0.0,0.0,0.0,0.0,0.0,0.0,0.0,0.0,0.0,0.0,0.0,0.0,0.0,0.0,0.0,0.0,0.0,0.0,0.0,0.0,0.0,0.0,0.0,0.0,0.0,0.0,0.0,0.0,0.0,0.0,0.0,0.0,0.0,0.0,0.0,0.0,0.0,0.0,0.0,0.0,0.0,0.0,0.0,0.0,0.0,0.0,0.0,0.0,0.0,0.0,0.0,0.0,0.0,0.0,0.0,0.0,0.0,0.0,0.0,0.0,0.0,0.0,0.0,0.0,0.0,0.0,0.0,0.0,0.0,0.0,0.0,0.0,0.0,0.0,0.0,0.0,0.0,0.0,0.0,0.0,0.0,0.0,0.0,0.0,0.0,0.0,0.0,0.0,0.0,0.0,0.0,0.0,0.0,0.0,0.0,0.0,0.0,0.0,0.0,0.0,0.0,0.0,0.0,0.0,0.0,0.0,0.0,0.0,0.0,0.0,0.0,0.0,0.0,0.0,0.0,0.0,0.0,0.0,0.0,0.0,0.0,0.0,0.0,0.0,0.0,0.0,0.0,0.0,0.0,0.0,0.0,0.0,0.0,0.0,0.0,0.0,0.0,0.0,0.0,0.0,0.0,0.0,0.0,0.0,0.0,0.0,0.0,0.0,0.0,0.0,0.0,0.0,0.0,0.0,0.0,0.0,0.0,0.0,0.0,0.0,0.0,0.0,0.0,0.0,0.0,0.0,0.0,0.0,0.0,0.0,0.0,0.0,0.0,0.0,0.0,0.0,0.0,0.0,0.0,0.0,0.0,0.0,0.0,0.0,0.0,0.0,0.0,0.0,0.0,0.0,0.0,0.0,0.0,0.0,0.0,0.0,0.0,0.0,0.0,0.0,0.0,0.0,0.0,0.0,0.0,0.0,0.0,0.0,0.0,0.0,0.0,0.0,0.0,0.0,0.0,0.0,0.0,0.0,0.0,0.0,0.0,0.0,0.0,0.0,0.0,0.0,0.0,0.0,0.0,0.0,0.0,0.0,0.0,0.0,0.0,0.0,0.0,0.0,0.0,0.0,0.0,0.0,0.0,0.0,0.0,0.0,0.0,0.0,0.0,0.0,0.0,0.0,0.0,0.0,0.0,0.0,0.0,0.0,0.0,0.0,0.0,0.0,0.0,0.0,0.0,0.0,0.0,0.0,0.0,0.0,0.0,0.0,0.0,0.0,0.0,0.0,0.0,0.0,0.0,0.0,0.0,0.0,0.0,0.0,0.0,0.0,0.0,0.0,0.0,0.0,0.0,0.0,0.0,0.0,0.0,0.0,0.0,0.0,0.0,0.0,0.0,0.0,0.0,0.0,0.0,0.0,0.0,0.0,0.0,0.0,0.0,0.0,0.0,0.0,0.0,0.0,0.0,0.0,0.0,0.0,0.0,0.0,0.0,0.0,0.0,0.0,0.0,0.0,0.0,0.0,0.0,0.0,0.0,0.0,0.0,0.0,0.0,0.0,0.0,0.0,0.0,0.0,0.0,0.0,0.0,0.0,0.0,0.0,0.0,0.0,0.0,0.0,0.0,0.0,0.0,0.0,0.0,0.0,0.0,0.0,0.0,0.0,0.0,0.0,0.0,0.0,0.0,0.0,0.0,0.0,0.0,0.0,0.0,0.0,0.0,0.0,0.0,0.0,0.0,0.0,0.0,0.0,0.0,0.0,0.0,0.0,0.0,0.0,0.0,0.0,0.0,0.0,0.0,0.0,0.0,0.0,0.0,0.0,0.0,0.0,0.0,0.0,0.0,0.0,0.0,0.0,0.0,0.0,0.0,0.0,0.0,0.0,0.0,0.0,0.0,0.0,0.0,0.0,0.0,0.0,0.0,0.0,0.0,0.0,0.0,0.0,0.0,0.0,0.0,0.0,0.0,0.0,0.0,0.0,0.0,0.0,0.0,0.0,0.0,0.0,0.0,0.0,0.0,0.0,0.0,0.0,0.0,0.0,0.0,0.0,0.0,0.0,0.0,0.0,0.0,0.0,0.0,0.0,0.0,0.0,0.0,0.0,0.0,0.0,0.0,0.0,0.0,0.0,0.0,0.0,0.0,0.0,0.0,0.0,0.0,0.0,0.0,0.0,0.0,0.0,0.0,0.0,0.0,0.0,0.0,0.0,0.0,0.0,0.0,0.0,0.0,0.0,0.0,0.0,0.0,0.0,0.0,0.0,0.0,0.0,0.0,0.0,0.0,0.0,0.0,0.0,0.0,0.0,0.0,0.0,0.0,0.0,0.0,0.0,0.0,0.0,0.0,0.0,0.0,0.0,0.0,0.0,0.0,0.0,0.0,0.0,0.0,0.0,0.0,0.0,0.0,0.0,0.0,0.0,0.0,0.0,0.0,0.0,0.0,0.0,0.0,0.0,0.0,0.0,0.0,0.0,0.0,0.0,0.0,0.0,0.0,0.0,0.0,0.0,0.0,0.0,0.0,0.0,0.0,0.0,0.0,0.0,0.0,0.0,0.0,0.0,0.0,0.0,0.0,0.0,0.0,0.0,0.0,0.0,0.0,0.0,0.0,0.0,0.0,0.0,0.0,0.0,0.0,0.0,0.0,0.0,0.0,0.0,0.0,0.0,0.0,0.0,0.0,0.0,0.0,0.0,0.0,0.0,0.0,0.0,0.0,0.0,0.0,0.0,0.0,0.0,0.0,0.0,0.0,0.0,0.0,0.0,0.0,0.0,0.0,0.0,0.0,0.0,0.0,0.0,0.0,0.0,0.0,0.0,0.0,0.0,0.0,0.0,0.0,0.0,0.0,0.0,0.0,0.0,0.0,0.0,0.0,0.0,0.0,0.0,0.0,0.0,0.0,0.0,0.0,0.0,0.0,0.0,0.0,0.0,0.0,0.0,0.0,0.0,0.0,0.0,0.0,0.0,0.0,0.0,0.0,0.0,0.0,0.0,0.0,0.0,0.0,0.0,0.0,0.0,0.0,0.0,0.0,0.0,0.0,0.0,0.0,0.0,0.0,0.0,0.0,0.0,0.0,0.0,0.0,0.0,0.0,0.0,0.0,0.0,0.0,0.0,0.0,0.0,0.0,0.0,0.0,0.0,0.0,0.0,0.0,0.0,0.0,0.0,0.0,0.0,0.0,0.0,0.0,0.0,0.0,0.0,0.0,0.0,0.0,0.0,0.0,0.0,0.0,0.0,0.0,0.0,0.0,0.0,0.0,0.0,0.0,0.0,0.0,0.0,0.0,0.0,0.0,0.0,0.0,0.0,0.0,0.0,0.0,0.0,0.0,0.0,0.0,0.0,0.0,0.0,0.0,0.0,0.0,0.0,0.0,0.0,0.0,0.0,0.0,0.0,0.0,0.0,0.0,0.0,0.0,0.0,0.0,0.0,0.0,0.0,0.0,0.0,0.0,0.0,0.0,0.0,0.0,0.0,0.0,0.0,0.0,0.0,0.0,0.0,0.0,0.0,0.0,0.0,0.0,0.0,0.0,0.0,0.0,0.0,0.0,0.0,0.0,0.0,0.0,0.0,0.0,0.0,0.0,0.0,0.0,0.0,0.0,0.0,0.0,0.0,0.0,0.0,0.0,0.0,0.0,0.0,0.0,0.0,0.0,0.0,0.0,0.0,0.0,0.0,0.0,0.0,0.0,0.0,0.0,0.0,0.0,0.0,0.0,0.0,0.0,0.0,0.0,0.0,0.0,0.0,0.0,0.0,0.0,0.0,0.0,0.0,0.0,0.0,0.0,0.0,0.0,0.0,0.0,0.0,0.0,0.0,0.0,0.0,0.0,0.0,0.0,0.0,0.0,0.0,0.0,0.0,0.0,0.0,0.0,0.0,0.0,0.0,0.0,0.0,0.0,0.0,0.0,0.0,0.0,0.0,0.0,0.0,0.0,0.0,0.0,0.0,0.0,0.0,0.0,0.0,0.0,0.0,0.0,0.0,0.0,0.0,0.0,0.0,0.0,0.0,0.0,0.0,0.0,0.0,0.0,0.0,0.0,0.0,0.0,0.0,0.0,0.0,0.0,0.0,0.0,0.0,0.0,0.0,0.0,0.0,0.0,0.0,0.0,0.0,0.0,0.0,0.0,0.0,0.0,0.0,0.0,0.0,0.0,0.0,0.0,0.0,0.0,0.0,0.0,0.0,0.0,0.0,0.0,0.0,0.0,0.0,0.0,0.0,0.0,0.0,0.0,0.0,0.0,0.0,0.0,0.0,0.0,0.0,0.0,0.0,0.0,0.0,0.0,0.0,0.0,0.0,0.0,0.0,0.0,0.0,0.0,0.0,0.0,0.0,0.0,0.0,0.0,0.0,0.0,0.0,0.0,0.0,0.0,0.0,0.0,0.0,0.0,0.0,0.0,0.0,0.0,0.0,0.0,0.0,0.0,0.0,0.0,0.0,0.0,0.0,0.0,0.0,0.0,0.0,0.0,0.0,0.0,0.0,0.0,0.0,0.0,0.0,0.0,0.0,0.0,0.0,0.0,0.0,0.0,0.0,0.0,0.0,0.0,0.0,0.0,0.0,0.0,0.0,0.0,0.0,0.0,0.0,0.0,0.0,0.0,0.0,0.0,0.0,0.0,0.0,0.0,0.0,0.0,0.0,0.0,0.0,0.0,0.0,0.0,0.0,0.0,0.0,0.0,0.0,0.0,0.0,0.0,0.0,0.0,0.0,0.0,0.0,0.0,0.0,0.0,0.0,0.0,0.0,0.0,0.0,0.0,0.0,0.0,0.0,0.0,0.0,0.0,0.0,0.0,0.0,0.0,0.0,0.0,0.0,0.0,0.0,0.0,0.0,0.0,0.0,0.0,0.0,0.0,0.0,0.0,0.0,0.0,0.0,0.0,0.0,0.0,0.0,0.0,0.0,0.0,0.0,0.0,0.0,0.0,0.0,0.0,0.0,0.0,0.0,0.0,0.0,0.0,0.0,0.0,0.0,0.0,0.0,0.0,0.0,0.0,0.0,0.0,0.0,0.0,0.0,0.0,0.0,0.0,0.0,0.0,0.0,0.0,0.0,0.0,0.0,0.0,0.0,0.0,0.0,0.0,0.0,0.0,0.0,0.0,0.0,0.0,0.0,0.0,0.0,0.0,0.0,0.0,0.0,0.0,0.0,0.0,0.0,0.0,0.0,0.0,0.0,0.0,0.0,0.0,0.0,0.0,0.0,0.0,0.0,0.0,0.0,0.0,0.0,0.0,0.0,0.0,0.0,0.0,0.0,0.0,0.0,0.0,0.0,0.0,0.0,0.0,0.0,0.0,0.0,0.0,0.0,0.0,0.0,0.0,0.0,0.0,0.0,0.0,0.0,0.0,0.0,0.0,0.0,0.0,0.0,0.0,0.0,0.0,0.0,0.0,0.0,0.0,0.0,0.0,0.0,0.0,0.0,0.0,0.0,0.0,0.0,0.0,0.0,0.0,0.0,0.0,0.0,0.0,0.0,0.0,0.0,0.0,0.0,0.0,0.0,0.0,0.0,0.0,0.0,0.0,0.0,0.0,0.0,0.0,0.0,0.0,0.0,0.0,0.0,0.0,0.0,0.0,0.0,0.0,0.0,0.0,0.0,0.0,0.0,0.0,0.0,0.0,0.0,0.0,0.0,0.0,0.0,0.0,0.0,0.0,0.0,0.0,0.0,0.0,0.0,0.0,0.0,0.0,0.0,0.0,0.0,0.0,0.0,0.0,0.0,0.0,0.0,0.0,0.0,0.0,0.0,0.0,0.0,0.0,0.0,0.0,0.0,0.0,0.0,0.0,1.5538,1.5785,0.0,0.0,0.0,0.0,0.0,0.0,0.0,0.0,0.0,0.0,0.0,0.0,0.0,0.0,0.0,0.0,0.0,0.0,0.0,0.0,0.0,0.0,0.0,0.0,0.0,0.0,0.0,0.0,0.0,0.0,0.0,0.0,0.0,0.0,0.0,0.0,0.0,0.0,0.0,0.0,0.0,0.0,0.0,0.0,0.0,0.0,0.0,0.0,0.0,0.0,0.0,0.0,0.0,0.0,0.0,0.0,0.0,0.0,0.0,0.0,0.0,0.0,0.0,0.0,0.0,0.0,0.0,0.0,0.0,0.0,0.0,0.0,0.0,0.0,0.0,0.0,0.0,0.0,0.0,0.0,0.0,0.0,0.0,0.0,0.0,0.0,0.0,0.0,0.0,0.0,0.0,0.0,0.0,0.0,0.0,0.0,0.0,0.0,0.0,0.0,0.0,0.0,0.0,0.0,0.0,0.0,0.0,0.0,0.0,0.0,0.0,0.0,0.0,0.0,1.5657,1.5604,0.0,0.0,0.0,0.0,0.0,0.0,0.0,0.0,0.0,0.0,0.0,0.0,0.0,0.0,0.0,0.0,0.0,0.0,0.0,0.0,0.0,0.0,0.0,0.0,0.0,0.0,0.0,0.0,0.0,0.0,0.0,0.0,0.0,0.0,0.0,0.0,0.0,0.0,0.0,0.0,0.0,0.0,0.0,0.0,0.0,0.0,0.0,0.0,0.0,0.0,0.0,0.0,0.0,0.0,0.0,0.0,0.0,0.0,0.0,0.0,0.0,0.0,0.0,0.0,0.0,0.0,0.0,0.0,0.0,0.0,0.0,0.0,0.0,0.0,0.0,0.0,0.0,0.0,0.0,0.0,0.0,0.0,0.0,0.0,0.0,0.0,0.0,0.0,0.0,0.0,0.0,0.0,0.0,0.0,0.0,0.0,0.0,0.0,0.0,0.0,0.0,0.0,0.0,0.0,0.0,0.0,0.0,0.0,1.6497,1.6639,1.6642,1.7019,1.7073,1.677,1.533,1.5008,1.5551,1.6112,0.0,0.0,0.0,0.0,0.0,0.0,0.0,0.0,0.0,0.0,0.0,0.0,0.0,0.0,0.0,0.0,0.0,0.0,0.0,0.0,0.0,0.0,0.0,0.0,0.0,0.0,0.0,0.0,0.0,0.0,0.0,0.0,0.0,0.0,0.0,0.0,0.0,0.0,2.4679,2.5325,2.5763,2.5915,0.0,0.0,0.0,0.0,0.0,0.0,0.0,0.0,0.0,0.0,0.0,0.0,0.0,0.0,0.0,0.0,0.0,0.0,0.0,0.0,0.0,0.0,0.0,0.0,0.0,0.0,0.0,0.0,0.0,0.0,0.0,0.0,0.0,0.0,0.0,0.0,0.0,0.0,0.0,0.0,0.0,0.0,0.0,0.0,1.6213,1.7849,0.0,0.0,0.0,0.0,0.0,0.0,0.0,0.0,0.0,0.0,0.0,0.0,0.0,1.7361,1.7223,1.6765,1.6535,1.6535,1.6113,1.5921,1.5936,1.6226,1.6335,1.625,1.5226,0.0,1.6169,1.5085,0.0,0.0,0.0,0.0,0.0,0.0,0.0,0.0,0.0,0.0,0.0,0.0,0.0,0.0,0.0,0.0,0.0,0.0,0.0,0.0,0.0,0.0,0.0,0.0,0.0,0.0,0.0,0.0,0.0,0.0,0.0,0.0,0.0,0.0,0.0,0.0,2.41,2.5011,2.5722,2.6036,2.6365,2.6674,2.5509,2.4697,2.4167,2.3779,0.0,0.0,0.0,0.0,0.0,0.0,0.0,0.0,0.0,0.0,0.0,0.0,0.0,0.0,0.0,0.0,0.0,0.0,0.0,0.0,0.0,0.0,0.0,0.0,0.0,0.0,0.0,0.0,0.0,0.0,0.0,0.0,0.0,0.0,0.0,0.0,0.0,0.0,0.0,1.7746,1.8211,1.7826,1.9069,1.9987,0.0,0.0,0.0,0.0,0.0,0.0,0.0,0.0,0.0,1.7033,1.7343,1.7357,1.7003,1.6768,1.6665,1.665,1.6069,1.587,1.6024,1.5982,1.6244,1.6626,1.5241,1.5089,1.5759,1.4895,1.5238,1.636,0.0,0.0,0.0,0.0,1.7802,1.7711,0.0,0.0,0.0,0.0,0.0,0.0,0.0,0.0,0.0,0.0,0.0,0.0,0.0,0.0,0.0,2.127,0.0,0.0,0.0,0.0,0.0,0.0,0.0,0.0,0.0,0.0,0.0,0.0,2.5426,2.6337,2.7013,2.7212,2.7537,2.7964,2.8046,2.7156,2.5536,2.4932,2.4234,0.0,0.0,0.0,0.0,0.0,0.0,0.0,0.0,0.0,0.0,0.0,0.0,0.0,0.0,0.0,0.0,0.0,0.0,0.0,0.0,0.0,0.0,0.0,0.0,0.0,0.0,0.0,0.0,0.0,0.0,0.0,0.0,0.0,0.0,0.0,0.0,0.0,0.0,1.8634,1.8732,1.7887,1.8955,1.995,0.0,0.0,0.0,0.0,0.0,0.0,1.736,1.7443,1.7177,1.6488,1.6904,1.6919,1.6458,1.6458,1.6458,1.6458,1.6038,1.5926,1.6122,1.6081,1.6421,1.6962,1.5597,1.5277,1.5649,1.4907,1.496,1.5651,1.6709,1.7593,1.8165,1.7791,1.7572,1.7425,0.0,0.0,0.0,0.0,0.0,0.0,0.0,0.0,0.0,0.0,0.0,0.0,0.0,0.0,2.3568,2.4132,2.406,2.3804,0.0,0.0,0.0,0.0,0.0,0.0,0.0,0.0,0.0,2.5044,2.7256,2.8633,2.9248,2.9959,3.058,3.1059,3.0693,2.9445,2.756,2.6273,2.5294,2.4557,0.0,0.0,0.0,0.0,0.0,0.0,0.0,0.0,0.0,0.0,0.0,0.0,0.0,0.0,0.0,0.0,0.0,0.0,0.0,0.0,0.0,0.0,0.0,0.0,0.0,0.0,0.0,0.0,0.0,0.0,0.0,0.0,0.0,0.0,0.0,0.0,0.0,0.0,0.0,1.8787,1.8305,0.0,0.0,0.0,0.0,1.8423,1.8392,1.7854,1.6709,1.7015,1.6801,1.5873,1.5873,1.5888,1.5858,1.5858,1.5858,1.5844,1.5886,1.5899,1.5927,1.6488,1.6763,1.6793,1.6512,1.644,1.642,1.4924,1.4751,1.5471,1.5972,1.6471,1.6911,1.7145,1.6953,1.6665,0.0,0.0,0.0,0.0,0.0,0.0,0.0,0.0,0.0,0.0,0.0,0.0,0.0,2.4961,2.6254,2.7224,2.6899,2.6114,2.488,0.0,0.0,0.0,0.0,0.0,0.0,0.0,2.6432,2.8119,2.9878,3.1115,3.1792,3.2059,3.2286,3.2458,3.2311,3.1598,3.0373,2.8295,2.6624,2.5313,2.4131,2.345,0.0,0.0,0.0,0.0,0.0,0.0,0.0,0.0,0.0,0.0,0.0,0.0,0.0,0.0,0.0,0.0,0.0,0.0,0.0,0.0,0.0,0.0,0.0,0.0,0.0,0.0,0.0,0.0,0.0,0.0,0.0,0.0,0.0,0.0,0.0,0.0,0.0,1.9282,1.8699,0.0,1.9342,1.8693,1.8211,1.8211,1.7616,1.706,1.6615,1.6601,1.6549,1.638,1.6509,1.6863,1.7469,1.6863,1.6789,1.7212,1.6379,1.6053,1.622,1.6436,1.6499,1.6373,1.5846,1.5752,1.592,1.536,1.555,1.6198,1.639,1.6853,1.7408,1.7526,1.7479,1.7384,0.0,0.0,0.0,0.0,0.0,0.0,0.0,0.0,0.0,0.0,0.0,2.3371,2.4907,2.7121,2.8855,2.9693,2.8893,2.7688,2.6163,0.0,0.0,0.0,0.0,0.0,0.0,2.659,2.833,2.9789,3.1573,3.2681,3.3108,3.3108,3.3271,3.3555,3.3555,3.3282,3.2727,3.0797,2.8569,2.6192,2.5036,2.4547,2.4395,0.0,0.0,0.0,0.0,0.0,0.0,0.0,0.0,0.0,0.0,0.0,0.0,0.0,0.0,0.0,0.0,0.0,0.0,0.0,0.0,0.0,0.0,0.0,0.0,0.0,0.0,0.0,0.0,0.0,0.0,0.0,0.0,0.0,0.0,1.9536,1.9042,1.9879,1.8713,1.8329,1.9488,1.8712,1.8126,1.8126,1.762,1.712,1.6688,1.6633,1.663,1.6722,1.686,1.7201,1.7708,1.7115,1.6983,1.7319,1.6451,1.6163,1.6436,1.6557,1.6469,1.622,1.5812,1.576,1.5977,1.5977,1.6386,1.7002,1.7056,1.7288,1.7607,1.7755,1.7743,1.7681,0.0,0.0,0.0,0.0,0.0,0.0,0.0,0.0,0.0,0.0,0.0,2.4217,2.5907,2.914,3.1286,3.1548,2.99,2.8352,2.7284,2.4395,0.0,0.0,0.0,0.0,2.4853,2.8282,3.0039,2.9959,3.2257,3.3295,3.3175,3.3175,3.3618,3.4416,3.4435,3.4464,3.4467,3.3686,3.1109,2.745,2.6686,2.6356,2.6157,0.0,0.0,0.0,0.0,0.0,0.0,0.0,0.0,0.0,0.0,0.0,0.0,0.0,0.0,0.0,0.0,0.0,0.0,0.0,0.0,0.0,0.0,0.0,0.0,0.0,0.0,0.0,0.0,0.0,0.0,0.0,0.0,0.0,2.0744,1.9848,1.9582,2.0541,1.8319,1.7463,1.9412,1.8762,1.8219,1.8248,1.8506,1.8141,1.6918,1.7084,1.7093,1.6841,1.6815,1.6701,1.6454,1.6425,1.6303,1.6055,1.6109,1.626,1.6541,1.685,1.6746,1.6298,1.6576,1.6699,1.6699,1.6699,1.7128,1.78,1.78,1.7635,1.7444,1.7692,1.7635,1.7479,0.0,0.0,0.0,0.0,0.0,0.0,0.0,0.0,0.0,0.0,2.3262,2.6138,2.7918,3.1057,3.3199,3.35,3.0801,2.8613,2.75,0.0,0.0,0.0,0.0,0.0,2.8292,3.0481,3.2124,3.3208,3.439,3.4947,3.4925,3.4925,3.4908,3.4918,3.5217,3.5207,3.493,3.5063,3.4126,3.2318,2.9223,2.764,2.7009,0.0,0.0,0.0,0.0,0.0,0.0,0.0,0.0,0.0,0.0,0.0,0.0,0.0,0.0,0.0,0.0,0.0,0.0,0.0,0.0,0.0,0.0,0.0,0.0,0.0,0.0,0.0,0.0,0.0,0.0,0.0,2.1867,2.1738,2.0824,2.0045,1.9677,1.9944,1.931,1.9098,1.9757,1.9013,1.8759,1.9388,1.8484,1.7988,1.8182,1.76,1.7332,1.7439,1.7113,1.7235,1.7844,1.7175,1.7045,1.7429,1.6976,1.6789,1.6879,1.7167,1.6929,1.6298,1.6576,1.6699,1.6699,1.6699,1.7128,1.78,1.78,1.7755,1.7692,1.7777,1.7755,1.7726,0.0,0.0,0.0,0.0,0.0,0.0,0.0,0.0,0.0,0.0,2.4005,2.6872,2.8112,3.1016,3.2834,3.2723,2.9993,2.7883,2.6891,0.0,0.0,0.0,0.0,2.8963,3.0024,3.2278,3.3947,3.4962,3.538,3.5921,3.6546,3.5904,3.5929,3.6517,3.6646,3.6635,3.6577,3.6741,3.6345,3.5367,3.2687,3.106,2.9978,2.7827,2.7411,2.7791,2.6256,2.5894,2.5968,2.4769,0.0,0.0,0.0,0.0,0.0,0.0,0.0,0.0,0.0,0.0,0.0,0.0,0.0,0.0,0.0,0.0,0.0,0.0,0.0,0.0,0.0,0.0,0.0,0.0,2.2249,2.2465,2.1535,2.0743,2.0241,2.0241,1.9974,1.9933,2.0321,1.9651,1.9383,1.9861,1.8812,1.8197,1.8315,1.7806,1.7584,1.7738,1.7479,1.7535,1.7976,1.7441,1.7317,1.7581,1.7187,1.7068,1.7179,1.7325,1.7057,1.648,1.6636,1.6699,1.6699,1.6699,1.7128,0.0,0.0,0.0,0.0,0.0,1.8142,1.8225,0.0,0.0,0.0,0.0,0.0,0.0,0.0,0.0,0.0,0.0,0.0,2.6706,2.7013,2.9632,3.1031,3.0191,2.8133,2.6603,0.0,0.0,0.0,2.6131,2.9725,3.1473,3.0896,3.3842,3.5497,3.5735,3.5819,3.6546,3.7872,3.6495,3.6775,3.8413,3.8307,3.8382,3.8658,3.8527,3.8064,3.7321,3.6435,3.5294,3.3795,3.0775,3.0618,3.1665,2.9174,2.7692,2.6801,2.5927,0.0,0.0,0.0,0.0,0.0,0.0,0.0,0.0,0.0,0.0,0.0,0.0,0.0,0.0,0.0,0.0,0.0,0.0,0.0,0.0,0.0,0.0,0.0,0.0,2.267,2.311,2.256,2.1725,2.118,2.1139,2.0552,2.0431,2.1072,2.0518,2.0089,2.0047,1.9318,1.8606,1.7952,1.785,0.0,0.0,0.0,1.7681,1.746,1.746,1.7349,1.7126,1.7126,1.7248,1.7491,1.7491,1.7255,1.6845,1.6845,1.6845,1.6845,1.6845,1.7256,1.7905,1.8055,1.8111,1.818,1.8408,1.8601,1.8742,0.0,0.0,0.0,0.0,0.0,0.0,0.0,0.0,0.0,2.1246,2.3985,2.5791,2.5556,2.8108,2.9276,2.7876,2.6742,2.6107,0.0,0.0,2.7453,2.9396,3.1411,3.2716,3.3235,3.5381,3.6514,3.6575,3.7161,3.7618,3.7905,3.7577,3.7665,3.8037,3.8699,3.9012,3.9135,3.9786,3.9985,3.9713,3.8301,3.6623,3.4768,3.2889,3.2117,3.1761,3.002,2.951,2.9439,2.8037,2.7624,2.7354,2.5295,0.0,0.0,0.0,0.0,0.0,0.0,0.0,0.0,0.0,0.0,0.0,0.0,0.0,0.0,0.0,0.0,0.0,0.0,0.0,0.0,2.3227,2.3351,2.3265,2.2922,2.2587,2.2265,2.2009,2.1832,2.1827,2.2035,2.1299,2.0861,2.0944,1.9672,1.8843,1.8691,1.8121,1.78,1.78,1.78,1.7777,1.7715,1.7715,1.7777,1.7898,0.0,0.0,1.7963,1.8023,1.7918,1.7679,1.7729,1.775,1.775,1.775,1.8014,1.842,1.8184,1.8222,1.8435,1.8475,1.8514,1.859,0.0,0.0,0.0,0.0,0.0,0.0,0.0,0.0,0.0,0.0,2.2834,2.3958,2.448,2.6152,2.6848,2.5836,2.5003,0.0,0.0,2.7417,2.8959,3.0635,3.3529,3.4988,3.4768,3.6648,3.774,3.7912,3.7905,3.8278,3.8971,3.8261,3.8421,3.9371,3.9652,4.0137,4.0722,4.0993,4.1089,4.0999,4.0009,3.8836,3.7488,3.5508,3.4479,3.3938,3.2732,3.159,3.0474,2.9298,2.86,2.7846,2.5868,2.5074,2.4709,0.0,0.0,0.0,0.0,0.0,0.0,0.0,0.0,0.0,0.0,0.0,0.0,0.0,0.0,2.2072,2.2517,0.0,2.3169,2.3187,2.3412,2.3531,2.3277,2.3047,2.2734,2.231,2.224,2.2254,2.2296,2.1677,2.1327,2.1396,2.0066,1.9239,1.9239,1.8549,1.8089,1.7954,1.7954,1.791,1.7856,1.7949,1.8061,1.8201,1.8201,1.8201,1.8201,1.8131,1.8053,1.7955,1.8095,1.8142,1.817,1.8256,1.8469,1.8734,1.8521,1.8578,1.8798,1.8798,1.8798,1.8797,0.0,0.0,0.0,0.0,0.0,0.0,0.0,0.0,0.0,0.0,0.0,2.2248,2.3439,2.4232,2.4513,0.0,0.0,0.0,0.0,2.8594,3.0371,3.1619,3.5398,3.6966,3.5864,3.765,3.8726,3.8988,3.8548,3.8937,4.0079,3.887,3.9211,4.0791,4.0669,4.1199,4.2183,4.2006,4.1922,4.1886,4.135,4.0851,4.0191,3.7922,3.6803,3.6282,3.5097,3.2977,3.0602,2.9783,2.8642,2.7356,2.6011,2.5746,2.5682,2.4418,2.3804,0.0,0.0,0.0,0.0,0.0,0.0,0.0,0.0,2.2491,2.2566,2.2462,2.2453,2.249,2.2662,2.3198,2.3433,2.2988,2.3415,2.3721,2.3538,2.3313,2.301,2.2511,2.2349,2.2324,2.2363,2.2043,2.1762,2.1668,2.066,1.991,1.9612,1.9049,1.8548,1.8184,1.8132,1.8086,1.8046,1.8311,1.8526,1.8641,1.8641,1.8641,1.8631,1.8326,1.817,1.8148,1.831,1.84,1.841,1.8566,1.8753,1.8904,1.8869,1.8956,1.9115,1.9099,1.9111,1.907,0.0,0.0,0.0,0.0,0.0,0.0,0.0,0.0,0.0,0.0,0.0,0.0,0.0,0.0,0.0,0.0,0.0,0.0,2.7847,2.943,3.1373,3.3907,3.62,3.717,3.6677,3.8163,3.8952,3.8988,3.9571,3.9943,4.0096,3.9943,4.0199,4.0825,4.1193,4.1672,4.2218,4.2602,4.2755,4.2702,4.1923,4.1489,4.1082,3.9379,3.8116,3.6965,3.4661,3.2227,2.9975,2.9096,2.8087,2.711,2.6757,2.6062,2.5314,2.4972,2.3858,2.2893,2.3604,2.3229,2.261,2.2602,2.2592,2.2381,0.0,2.203,2.2395,2.1701,2.1556,2.1783,2.2572,2.2771,2.3006,2.3578,2.3751,2.3721,2.3538,2.3463,2.3348,2.306,2.2588,2.2391,2.2619,2.2616,2.2383,2.189,2.1726,2.1046,1.9664,1.9524,1.9165,1.8481,1.8283,1.83,1.8518,1.9073,1.9547,1.99,1.99,1.99,1.9892,1.9192,1.878,1.8631,1.8715,1.8743,1.8752,1.877,1.886,1.8989,1.8974,1.906,1.9176,1.9129,1.9095,1.9105,0.0,0.0,0.0,0.0,0.0,0.0,0.0,0.0,0.0,0.0,0.0,0.0,0.0,0.0,0.0,0.0,0.0,0.0,2.8125,2.9712,3.17,3.4292,3.6507,3.7417,3.6818,3.8268,3.8988,3.8988,3.974,4.0096,4.0096,4.0096,4.0353,4.0802,4.1019,4.1499,4.2198,4.2418,4.2653,4.2847,4.2249,4.1473,4.0544,3.9088,3.684,3.4415,3.3884,3.1781,0.0,0.0,2.8223,2.7531,2.6971,2.6315,2.5655,2.5142,2.4187,2.3182,2.2608,2.2562,2.256,2.2082,2.2307,2.255,2.2197,2.2387,2.2552,2.2226,2.2154,2.2439,2.3358,2.3505,2.3654,2.4081,2.405,2.3949,2.3868,2.3246,2.2758,2.2657,2.1888,2.1791,2.2822,2.3072,2.3064,2.2845,2.2532,2.2072,2.1446,2.0989,2.035,1.9458,1.9801,1.9566,1.8669,1.949,1.9765,1.9461,1.9461,1.9461,1.9461,1.9048,1.9165,1.9606,1.912,1.9253,1.9755,1.9275,1.9111,1.9117,1.9076,1.9092,1.9142,1.9109,1.9094,1.9095,0.0,0.0,0.0,0.0,0.0,0.0,0.0,0.0,0.0,0.0,0.0,0.0,0.0,0.0,0.0,0.0,0.0,0.0,0.0,2.9151,3.1033,3.324,3.5802,3.693,3.6399,3.7874,3.8635,3.8635,3.9208,3.9503,3.9503,3.9503,3.9739,4.0204,4.0204,4.0814,4.1895,4.1895,4.2173,4.2502,4.1956,4.0811,3.9219,3.7399,3.4586,3.1729,3.2408,3.0511,0.0,0.0,2.7424,2.7019,2.6609,2.6213,2.5796,2.5183,2.4426,2.3554,2.2445,2.2409,2.2608,2.2238,2.2409,2.2753,2.2952,2.2988,2.2988,2.2988,2.2843,2.2922,2.3637,2.3776,2.3833,2.4048,2.4109,2.4126,2.4126,2.3156,2.2439,2.2439,2.1743,2.1735,2.2904,2.3102,2.3198,2.3275,2.3143,2.2972,2.2736,2.2218,2.1498,2.0563,2.1049,2.0759,1.957,2.021,2.0291,1.9762,1.9525,1.9408,1.9408,1.9307,1.9803,2.0661,1.978,1.9839,2.045,1.9635,1.9264,1.9243,1.9419,1.9348,1.9176,1.9386,1.9309,1.9095,0.0,0.0,0.0,0.0,0.0,0.0,0.0,0.0,0.0,0.0,0.0,0.0,0.0,0.0,0.0,0.0,0.0,0.0,0.0,2.7445,2.9074,3.0646,3.3715,3.5379,3.5354,3.6925,3.773,3.773,3.7884,3.7973,3.7973,3.7973,3.8223,3.8656,3.8656,3.9581,4.1131,4.1131,4.1365,4.1669,4.0872,3.9317,3.714,3.4109,3.16,2.971,2.9952,0.0,0.0,0.0,2.4974,2.4904,2.5465,2.5531,0.0,2.5085,2.4429,0.0,2.3741,2.3234,2.2862,2.356,2.3216,2.288,2.3596,2.3769,2.3769,2.3769,2.3198,2.2758,2.2913,2.2942,2.3005,2.3196,2.3776,2.4201,2.4201,2.338,2.2782,2.2782,2.2754,2.2754,2.2809,2.2515,2.2434,2.2696,2.3492,2.3623,2.2848,2.2775,2.2419,2.167,2.1488,2.1507,2.1703,2.1534,2.1544,2.1694,2.0859,2.0448,2.0448,2.0458,2.0924,2.1712,2.0833,2.0466,2.0437,1.9638,1.9297,1.9363,2.0156,1.9986,1.9392,2.0101,1.9825,1.9095,0.0,0.0,0.0,0.0,0.0,0.0,0.0,0.0,0.0,0.0,0.0,0.0,0.0,0.0,0.0,0.0,0.0,0.0,0.0,2.673,2.7968,2.9157,3.1149,3.2139,3.1921,3.3317,3.4285,3.4796,3.5357,3.5893,3.636,3.636,3.6474,3.6621,3.6891,3.7781,3.9098,3.8817,3.9281,3.9967,3.7558,3.5951,3.4683,3.1495,2.8921,2.7027,0.0,0.0,0.0,0.0,0.0,0.0,2.4543,0.0,0.0,2.4226,2.4013,2.3687,2.3198,2.365,2.4157,2.3868,2.4429,2.4954,2.4664,2.4592,2.4302,2.3288,2.3363,2.3354,2.2474,2.2853,2.3348,2.3573,2.3675,2.3889,2.4349,2.3582,2.2951,2.2811,2.2337,2.1999,2.1999,2.2387,2.2953,2.3704,2.3548,2.3519,2.3787,2.3841,2.3464,2.2584,2.3014,2.2786,2.1812,2.2264,2.2264,2.1794,2.15,2.1363,2.1363,2.1363,2.1804,2.252,2.1116,2.0806,2.1184,1.9855,1.9583,2.0052,2.0337,2.0275,2.0059,2.0305,2.0181,1.9892,0.0,0.0,0.0,0.0,0.0,0.0,0.0,0.0,0.0,0.0,0.0,0.0,0.0,0.0,0.0,0.0,0.0,0.0,0.0,0.0,2.653,2.7307,2.877,2.9523,2.9448,3.0501,3.1303,3.1796,3.2253,3.2743,3.3254,3.3254,3.3254,3.3254,3.361,3.4621,3.6045,3.5581,3.6107,3.7033,3.4371,3.2764,3.1623,2.8769,2.6788,0.0,0.0,0.0,0.0,0.0,0.0,0.0,0.0,0.0,0.0,2.3806,2.3994,2.4121,2.365,2.4465,2.5298,2.4791,2.5226,2.5642,2.5117,2.462,2.3963,2.2981,2.3098,2.3117,2.2271,2.2635,2.3136,2.3341,2.3202,2.3333,2.4073,2.3361,2.2817,2.2932,2.2482,2.2162,2.21,2.2612,2.3198,2.3813,2.3671,2.3798,2.4317,2.4381,2.4107,2.3456,2.3933,2.3694,2.2675,2.2887,2.2593,2.1794,2.1794,2.1794,2.1812,2.2106,2.252,2.2933,2.1868,2.1521,2.1641,2.0276,2.0004,2.0436,2.0436,2.0429,2.044,2.044,2.037,2.0291,0.0,0.0,0.0,0.0,0.0,0.0,0.0,0.0,0.0,0.0,0.0,0.0,0.0,0.0,0.0,0.0,0.0,0.0,0.0,0.0,0.0,2.518,2.6554,2.7506,2.7911,2.8492,2.8847,2.8934,2.8755,2.8734,2.8874,2.8874,2.8874,2.8892,2.9178,3.0369,3.2191,3.1643,3.2127,3.3067,3.1419,2.9844,2.8244,2.6049,0.0,0.0,0.0,0.0,0.0,0.0,0.0,2.4097,2.4107,2.3979,2.3834,2.3873,2.4425,2.5031,2.5067,2.5654,2.6258,2.6276,2.5679,2.511,2.5049,2.3961,2.2941,2.2859,2.2489,2.2199,2.2291,2.2306,2.2388,2.2635,2.2463,2.2653,2.3597,2.2975,2.2648,2.3324,2.3392,2.3344,2.3171,2.3311,2.3366,2.3269,2.3998,2.4424,2.4415,2.4452,2.4393,2.4218,2.419,2.419,2.419,2.3428,2.2685,2.1923,2.1923,2.1923,2.1941,2.2721,2.3061,2.3061,2.3024,2.2538,2.1721,2.0859,2.0503,2.0503,2.0539,2.056,2.0561,2.0598,2.053,2.0417,0.0,0.0,0.0,0.0,0.0,0.0,0.0,0.0,0.0,0.0,0.0,0.0,0.0,0.0,0.0,0.0,0.0,0.0,0.0,0.0,0.0,0.0,0.0,0.0,0.0,0.0,0.0,0.0,0.0,2.6908,2.73,2.73,2.73,0.0,2.7669,2.8559,2.9748,2.9272,2.9709,3.0527,0.0,2.7182,2.662,0.0,0.0,0.0,0.0,0.0,0.0,2.4107,2.404,2.3909,2.404,2.405,2.4178,2.4977,2.5222,2.5372,2.6025,2.6631,2.7109,2.715,2.7017,2.6597,2.5541,2.4558,2.3575,2.2513,2.2746,2.2968,2.2407,2.2418,2.2747,2.3456,2.2979,2.3231,2.5243,2.5322,2.5427,2.6097,2.6174,2.5906,2.523,2.5785,2.5971,2.5442,2.5064,2.4787,2.4634,2.5185,2.5108,2.4227,2.419,2.419,2.419,2.4006,2.3786,2.3593,2.3593,2.3593,2.3612,2.3804,2.3896,2.3859,2.3263,2.2538,2.1721,2.0859,2.0503,2.0558,2.1156,2.1359,2.1388,2.1944,2.2116,2.2085,0.0,0.0,0.0,0.0,0.0,0.0,0.0,0.0,0.0,0.0,0.0,0.0,0.0,0.0,0.0,0.0,0.0,0.0,0.0,0.0,0.0,0.0,0.0,0.0,0.0,0.0,0.0,0.0,0.0,0.0,0.0,2.4777,2.4887,2.4778,2.5241,2.5991,2.6841,0.0,0.0,0.0,0.0,0.0,0.0,0.0,0.0,0.0,0.0,0.0,0.0,2.3939,2.4135,2.4363,2.4599,2.4915,2.5406,2.646,2.6826,2.7108,2.7989,2.8358,2.8499,2.8585,2.7803,2.6822,2.6131,2.4857,2.3607,2.2895,2.3251,2.3544,2.3094,2.2778,2.277,2.3242,2.2609,2.2675,2.4372,2.5279,2.6018,2.6688,2.7077,2.7072,2.6521,2.6962,2.7127,2.6754,2.6223,2.5733,2.5249,2.5562,2.5298,2.4218,2.419,2.419,2.419,2.419,2.419,2.419,2.419,2.4025,2.3694,2.4043,2.4006,2.3676,2.3566,2.307,2.2281,2.1769,2.1339,2.1064,2.1478,2.1616,2.1607,2.2016,2.2404,2.2699,0.0,0.0,0.0,0.0,0.0,0.0,0.0,0.0,0.0,0.0,0.0,0.0,0.0,0.0,0.0,0.0,0.0,0.0,0.0,0.0,0.0,0.0,0.0,0.0,0.0,0.0,0.0,0.0,0.0,0.0,0.0,0.0,0.0,0.0,0.0,0.0,0.0,0.0,0.0,0.0,0.0,0.0,0.0,0.0,0.0,0.0,0.0,0.0,0.0,2.3806,2.4371,2.5107,2.5356,2.6016,2.6896,2.7977,2.8635,2.9232,3.0199,3.0265,3.0033,2.9885,2.8122,2.6417,2.6415,2.4731,2.3259,2.356,2.3776,2.3932,2.4052,2.3365,2.2772,2.2772,2.209,2.188,2.2811,2.4345,2.5659,2.6448,2.7284,2.7676,2.745,2.7634,2.7671,2.7462,2.7458,2.7013,2.596,2.5815,2.5292,2.4236,2.419,2.419,2.419,2.419,2.419,2.419,2.419,2.3823,2.3171,2.3878,2.3823,2.3189,2.3896,2.3749,2.3006,2.2941,2.2438,2.1724,2.1762,2.1726,2.1679,2.1779,2.2259,2.2843,0.0,0.0,0.0,0.0,0.0,0.0,0.0,0.0,0.0,0.0,0.0,0.0,0.0,0.0,0.0,0.0,0.0,0.0,0.0,0.0,0.0,0.0,0.0,0.0,0.0,0.0,0.0,0.0,0.0,0.0,0.0,0.0,0.0,0.0,0.0,0.0,0.0,0.0,0.0,0.0,0.0,0.0,0.0,0.0,0.0,0.0,0.0,0.0,0.0,0.0,2.4486,2.5366,2.5579,2.631,2.7397,2.8905,2.9253,2.9451,3.0832,3.1045,3.0605,2.9387,2.7778,2.6219,2.5211,2.3626,2.2667,2.3655,2.3877,2.4129,2.4841,2.4263,2.3665,2.3665,2.2944,2.295,2.4541,2.5587,2.6759,2.8254,2.9195,2.9417,2.8677,2.9277,2.9145,2.7745,2.8757,2.8388,2.6024,2.6383,2.5903,2.4254,2.419,2.419,2.419,2.419,2.419,2.419,2.419,2.4135,2.4006,2.4135,2.4116,2.4006,2.4135,0.0,2.3006,2.2997,2.2502,2.1832,2.2447,2.2629,2.2654,2.3252,2.3539,2.3614,0.0,0.0,0.0,0.0,0.0,0.0,0.0,0.0,0.0,0.0,0.0,0.0,0.0,0.0,0.0,0.0,0.0,0.0,0.0,0.0,0.0,0.0,0.0,0.0,0.0,0.0,2.3502,2.2991,0.0,0.0,0.0,2.2981,2.3109,0.0,0.0,0.0,0.0,0.0,0.0,0.0,0.0,0.0,0.0,0.0,0.0,0.0,0.0,0.0,0.0,0.0,2.4225,2.4883,2.5504,2.6291,2.7259,2.8585,2.9408,3.0112,3.1209,3.1366,3.0945,2.9844,2.7735,2.5812,2.5381,2.4024,2.3198,2.4331,2.4574,2.4708,2.5115,2.4498,2.3894,2.3894,2.3174,2.304,2.4345,2.56,2.6861,2.8134,2.9013,2.9529,2.9567,2.9529,2.9383,2.9039,2.9555,2.8742,2.6043,2.5633,2.5105,2.4236,2.419,2.419,2.419,2.419,2.419,2.419,2.419,2.419,2.419,2.419,2.419,2.419,2.419,2.3988,2.3611,2.3592,2.3107,2.2429,2.315,2.3138,2.2835,2.3585,2.3827,2.3806,0.0,0.0,0.0,0.0,0.0,0.0,0.0,0.0,0.0,0.0,0.0,0.0,0.0,0.0,0.0,0.0,0.0,0.0,0.0,0.0,0.0,0.0,0.0,0.0,0.0,0.0,0.0,2.2852,2.3497,0.0,0.0,0.0,0.0,0.0,2.3417,2.3508,0.0,0.0,0.0,0.0,0.0,0.0,0.0,0.0,0.0,0.0,0.0,0.0,0.0,0.0,2.3949,2.4246,2.4903,2.5792,2.6795,2.7942,2.9301,3.0531,3.1105,3.1391,3.1234,3.0002,2.7541,2.5446,2.5612,2.4385,2.3589,2.4934,2.5191,2.5191,2.5191,2.465,2.4129,2.3932,2.3326,2.3059,2.355,2.5237,2.6593,2.709,2.8363,2.9376,2.9879,2.9471,2.9299,2.9631,2.9144,2.8053,2.6242,2.514,2.4497,2.4321,2.4303,2.4303,2.4303,2.4303,2.4284,2.4238,2.4238,2.4237,2.419,2.419,2.419,2.419,2.419,2.419,2.419,2.4141,2.3737,2.3207,2.3721,2.3535,2.3034,2.3619,2.3806,2.3806,0.0,0.0,0.0,0.0,0.0,0.0,0.0,0.0,0.0,0.0,0.0,0.0,0.0,0.0,0.0,0.0,0.0,0.0,0.0,0.0,0.0,0.0,0.0,0.0,0.0,0.0,0.0,2.3696,2.3756,0.0,0.0,0.0,0.0,0.0,0.0,2.3598,2.3774,0.0,0.0,0.0,0.0,0.0,0.0,0.0,0.0,0.0,0.0,2.3806,2.3806,2.3806,2.3847,2.3858,2.3391,2.4421,2.607,2.7448,2.8934,3.0136,3.0143,3.1193,3.1608,2.8744,2.6696,2.5299,2.4901,2.3528,2.2866,2.4801,2.5191,2.5191,2.5191,2.5134,2.4822,2.4033,2.3837,2.3531,2.2811,2.4836,2.616,2.5516,2.8186,2.9803,2.9089,2.9669,2.9478,2.8045,2.6337,2.5834,2.6931,2.6201,2.5416,2.4679,2.466,2.466,2.466,2.466,2.4561,2.4372,2.4372,2.4321,2.419,2.419,2.419,2.419,2.419,2.419,0.0,2.4141,2.4057,2.3984,2.3998,2.3911,2.3798,2.3878,2.3847,2.3806,0.0,0.0,0.0,0.0,0.0,0.0,0.0,0.0,0.0,0.0,0.0,0.0,0.0,0.0,0.0,0.0,0.0,0.0,0.0,0.0,0.0,0.0,0.0,0.0,0.0,0.0,2.3876,2.3804,2.3807,0.0,0.0,0.0,0.0,0.0,0.0,2.3739,2.3806,2.3806,0.0,0.0,0.0,0.0,0.0,0.0,0.0,0.0,0.0,0.0,2.3847,2.3816,2.351,2.3208,2.346,2.34,2.3456,2.4634,2.608,2.74,2.7789,2.8747,2.9093,2.6895,2.5154,2.3971,2.397,2.3072,2.2772,2.4787,2.5191,2.5191,2.5191,2.5191,2.5096,2.4746,2.4243,2.3957,2.4134,2.5033,2.574,2.5892,2.7549,2.8561,2.8211,2.8936,2.9147,2.8478,2.7725,2.7112,2.6707,2.5725,2.5034,2.47,2.47,2.47,2.47,2.4586,2.4485,2.4398,2.4321,2.4257,2.419,2.419,2.419,2.419,2.4161,2.4151,0.0,2.4074,2.4036,2.4026,2.3976,2.3917,2.3896,2.3847,2.3816,2.3806,0.0,0.0,0.0,0.0,0.0,0.0,0.0,0.0,0.0,0.0,0.0,0.0,0.0,0.0,0.0,0.0,0.0,0.0,0.0,0.0,0.0,0.0,0.0,0.0,0.0,0.0,0.0,0.0,2.3807,2.38,0.0,0.0,2.3806,2.3806,0.0,0.0,0.0,0.0,0.0,0.0,0.0,0.0,0.0,0.0,0.0,0.0,0.0,0.0,0.0,0.0,0.0,2.3174,2.351,0.0,0.0,2.2795,2.3971,2.5156,2.5641,2.6402,2.6683,2.5089,2.3695,2.2777,2.3045,2.2674,2.2817,2.4793,2.5191,2.5191,2.5191,2.5191,2.5191,0.0,0.0,2.4415,2.4765,2.5243,2.5587,2.5657,2.688,2.7606,2.7338,2.8058,2.865,2.8872,2.844,2.7657,2.646,2.5403,2.4849,2.4849,2.4787,2.4757,2.4757,2.4575,2.4468,2.4398,2.4293,2.4238,2.419,2.419,2.418,2.417,2.4151,2.4103,0.0,2.4016,2.3996,2.3958,2.3896,2.3876,2.3858,2.3816,2.3806,2.3806,0.0,0.0,0.0,0.0,0.0,0.0,0.0,0.0,0.0,0.0,0.0,0.0,0.0,0.0,0.0,0.0,0.0,0.0,0.0,0.0,0.0,0.0,0.0,0.0,0.0,0.0,0.0,0.0,0.0,0.0,2.3806,2.3806,2.3806,2.3806,0.0,0.0,0.0,0.0,0.0,0.0,0.0,0.0,0.0,0.0,0.0,0.0,0.0,0.0,0.0,0.0,0.0,0.0,0.0,0.0,0.0,0.0,2.3337,2.4012,2.4014,2.4657,2.4953,2.3419,2.2513,2.205,2.2173,2.2313,2.2929,2.4805,2.5191,2.5191,2.5191,2.5191,2.5191,0.0,0.0,2.488,2.4033,2.5332,2.5772,2.4123,2.6148,2.7358,2.6498,2.7205,2.8039,2.8834,2.7358,2.6421,2.6402,2.5625,2.5185,2.5185,2.5,2.4902,2.4902,2.4764,2.4602,2.4398,2.4398,2.433,2.419,2.419,2.4161,2.4103,2.417,2.4113,0.0,2.3996,2.3966,2.3896,2.3827,2.3806,2.3806,2.3806,2.3806,2.3806,0.0,0.0,0.0,0.0,0.0,0.0,0.0,0.0,0.0,0.0,0.0,0.0,0.0,0.0,0.0,0.0,0.0,0.0,0.0,0.0,0.0,0.0,0.0,0.0,0.0,0.0,0.0,0.0,0.0,0.0,0.0,0.0,0.0,2.3876,2.3917,2.3927,0.0,0.0,0.0,0.0,0.0,0.0,0.0,0.0,0.0,0.0,0.0,0.0,0.0,0.0,0.0,0.0,0.0,0.0,0.0,0.0,0.0,2.2685,2.382,2.3528,2.2795,2.2299,2.1571,2.1047,2.132,2.1833,2.2641,2.4038,2.4784,2.5191,2.5191,2.5191,2.5,2.4415,0.0,2.4899,2.4014,2.488,2.5377,2.4841,2.5491,2.6332,2.7205,2.6995,2.6918,2.7166,2.6708,2.616,2.5606,2.5344,2.5131,2.4993,2.4929,2.4854,2.4764,2.4583,2.4449,2.4398,2.4321,2.4238,2.419,2.419,2.418,2.417,2.4151,2.4084,2.3996,2.3937,2.3896,2.3827,2.3806,2.3806,2.3806,2.3806,2.3806,2.3785,0.0,0.0,0.0,0.0,0.0,0.0,0.0,0.0,0.0,0.0,0.0,0.0,0.0,0.0,0.0,0.0,0.0,0.0,0.0,0.0,0.0,0.0,0.0,0.0,0.0,0.0,0.0,0.0,0.0,0.0,0.0,0.0,0.0,0.0,0.0,0.0,0.0,0.0,0.0,0.0,0.0,0.0,2.4085,0.0,0.0,0.0,0.0,0.0,0.0,0.0,0.0,0.0,0.0,0.0,0.0,0.0,0.0,2.2094,2.3364,2.2529,2.1308,2.1308,2.0755,2.0251,2.0489,2.1255,2.2191,2.3204,2.4091,2.4708,2.4708,2.4981,2.5019,2.4478,2.4841,2.4899,2.4014,2.465,2.5191,2.5191,2.5191,2.572,2.7071,2.6727,2.6402,2.6402,2.6402,2.6045,2.5249,2.5125,2.5012,2.4825,2.4818,2.4746,2.4594,2.4418,2.433,2.4321,2.4238,2.419,2.419,2.419,2.418,2.4161,2.4113,2.4054,0.0,2.3917,2.3865,2.3806,2.3806,2.3806,2.3795,2.371,2.3696,2.3646,0.0,0.0,0.0,0.0,0.0,0.0,0.0,0.0,0.0,0.0,0.0,0.0,0.0,0.0,0.0,0.0,0.0,0.0,0.0,0.0,0.0,0.0,0.0,0.0,0.0,0.0,0.0,0.0,2.4095,2.3996,2.3996,0.0,0.0,0.0,0.0,0.0,0.0,0.0,0.0,0.0,0.0,0.0,0.0,0.0,0.0,0.0,0.0,0.0,0.0,0.0,0.0,0.0,0.0,0.0,0.0,0.0,0.0,0.0,0.0,2.164,2.0437,2.0493,2.0088,1.9701,1.9781,2.0627,0.0,2.2352,2.325,2.3894,2.3894,2.4612,2.5172,2.5115,2.521,2.4956,2.4033,2.4708,2.5268,2.521,2.5249,2.5554,2.6256,2.6307,2.6307,2.6307,2.6307,2.5988,2.5249,2.5006,2.4832,2.4707,2.4692,2.4586,2.4399,2.4247,2.419,2.419,2.419,2.419,2.419,2.419,2.4161,0.0,2.4094,2.4016,2.3896,2.3896,2.3865,2.3806,2.3806,2.3806,2.3774,2.3587,2.3508,2.3474,0.0,0.0,0.0,0.0,0.0,0.0,0.0,0.0,0.0,0.0,0.0,0.0,0.0,0.0,0.0,0.0,0.0,0.0,0.0,0.0,0.0,0.0,0.0,0.0,0.0,0.0,0.0,2.4075,2.4026,2.3996,2.3996,2.4046,0.0,0.0,0.0,0.0,0.0,0.0,0.0,0.0,0.0,0.0,0.0,0.0,0.0,0.0,2.4553,2.4493,0.0,0.0,0.0,0.0,0.0,0.0,0.0,0.0,2.3405,0.0,0.0,0.0,1.973,2.0346,2.0022,1.9585,0.0,2.0511,2.1328,2.1616,2.2868,2.3894,2.3894,2.4612,2.4981,2.4301,2.5275,2.56,2.4104,2.518,2.5892,2.5268,2.574,2.595,2.551,2.5478,2.5478,2.5478,2.5478,2.5401,2.521,2.5006,2.4832,2.4707,2.4543,2.4409,2.4247,2.4218,2.419,2.419,2.419,2.419,2.419,2.419,2.4161,2.4094,2.4094,2.4016,2.3896,2.3896,2.3865,2.3806,2.3806,2.3806,2.3795,2.3742,2.3721,2.3667,0.0,0.0,0.0,0.0,0.0,0.0,0.0,0.0,0.0,0.0,0.0,0.0,0.0,0.0,0.0,0.0,0.0,0.0,0.0,0.0,0.0,0.0,0.0,0.0,0.0,0.0,0.0,0.0,0.0,2.4094,0.0,0.0,0.0,0.0,0.0,0.0,0.0,0.0,0.0,0.0,2.419,0.0,0.0,0.0,0.0,0.0,2.4493,2.4442,0.0,2.4303,2.4347,2.4424,0.0,0.0,0.0,0.0,2.3295,0.0,0.0,2.0886,2.0144,2.0563,2.0182,1.9813,2.0282,2.0543,2.093,2.1774,2.2677,2.3441,2.3837,2.4282,2.4574,2.4517,2.4912,2.5084,2.4568,2.4931,2.5237,2.521,2.5587,2.5682,2.5249,2.5191,2.5191,2.5191,2.5191,2.5191,2.5191,2.5006,2.4867,2.4782,2.4532,2.4338,2.419,2.419,2.419,2.419,2.419,2.418,2.4161,2.4161,2.4113,2.4046,2.4016,2.3976,2.3896,2.3876,2.3827,2.3806,2.3806,2.3742,2.3653,2.3518,2.3393,2.3248,0.0,0.0,0.0,0.0,0.0,0.0,0.0,0.0,0.0,0.0,0.0,0.0,0.0,0.0,0.0,0.0,0.0,0.0,0.0,0.0,0.0,0.0,0.0,0.0,0.0,0.0,0.0,0.0,0.0,0.0,0.0,0.0,0.0,0.0,0.0,0.0,0.0,0.0,0.0,0.0,2.419,0.0,0.0,0.0,0.0,0.0,0.0,0.0,0.0,2.4373,2.4432,2.4532,2.4806,0.0,0.0,0.0,0.0,0.0,2.1246,2.0908,2.079,2.0883,2.0495,2.0316,2.1185,2.092,2.0876,2.2314,2.2715,2.2983,2.3588,2.3919,2.4301,2.4899,2.4498,2.4396,2.5268,2.474,2.4511,2.5134,2.5306,2.5325,2.521,2.5191,2.5191,2.5191,2.5191,2.5191,2.5191,2.5006,2.4895,2.4867,2.4564,2.4338,2.419,2.419,2.419,2.419,2.418,2.4161,2.4094,2.4094,2.4054,2.3986,0.0,0.0,2.3886,2.3816,2.3806,2.3795,2.3764,2.3653,2.3481,2.3206,2.296,2.2725,0.0,0.0,0.0,0.0,0.0,0.0,0.0,0.0,0.0,0.0,0.0,0.0,0.0,0.0,0.0,0.0,0.0,0.0,0.0,0.0,0.0,0.0,0.0,0.0,0.0,0.0,0.0,0.0,0.0,0.0,2.419,2.419,2.419,0.0,0.0,0.0,0.0,0.0,0.0,0.0,2.419,0.0,0.0,0.0,0.0,0.0,0.0,0.0,0.0,2.4459,2.4596,2.4828,2.4869,0.0,0.0,0.0,0.0,0.0,2.0494,2.0246,2.0342,2.0853,2.0997,2.1204,2.202,2.222,2.2295,2.2543,2.3193,2.3518,2.2906,2.402,2.4803,2.4205,2.4612,2.5281,2.6103,2.6097,2.5816,2.5268,2.5797,2.595,2.5268,2.5191,2.5191,2.5191,2.5191,2.5191,2.5191,2.5006,2.4847,2.4727,2.4518,2.4338,2.419,2.419,2.419,2.419,2.4151,2.4103,2.4094,2.4036,2.3986,2.3917,0.0,2.3876,2.3816,2.3806,2.3806,2.3785,2.3609,2.3538,2.3481,2.3206,2.3067,2.301,0.0,0.0,0.0,0.0,0.0,0.0,0.0,0.0,0.0,0.0,0.0,0.0,0.0,0.0,0.0,0.0,0.0,0.0,0.0,0.0,0.0,0.0,0.0,0.0,0.0,0.0,0.0,0.0,0.0,2.4842,2.4842,2.4392,2.419,2.419,0.0,0.0,0.0,0.0,0.0,0.0,0.0,0.0,0.0,0.0,0.0,0.0,0.0,0.0,0.0,0.0,2.4771,2.4915,2.5038,0.0,0.0,0.0,0.0,0.0,2.0905,2.0461,2.0284,2.1035,2.0912,2.0944,2.2225,2.1857,2.1779,2.3619,2.3575,2.3231,2.3288,2.3957,2.4377,2.397,2.4631,2.5325,2.5701,2.574,2.5606,2.5249,2.5535,2.5606,2.5249,2.5191,2.5191,2.5191,2.5191,2.5191,2.5191,2.5006,2.4874,2.4816,2.454,2.4373,2.4302,2.42,2.4151,2.4151,2.4103,2.4064,2.3996,2.3966,2.3907,2.3855,0.0,2.3827,2.3806,2.3806,2.3732,2.3631,2.3549,2.3313,2.304,2.2773,2.2668,2.2642,0.0,0.0,0.0,0.0,0.0,0.0,0.0,0.0,0.0,0.0,0.0,0.0,0.0,0.0,0.0,0.0,0.0,0.0,0.0,0.0,0.0,0.0,0.0,0.0,0.0,0.0,0.0,2.5117,2.5301,2.5301,2.5099,2.4493,2.419,0.0,0.0,0.0,0.0,0.0,0.0,0.0,0.0,0.0,0.0,0.0,0.0,0.0,0.0,0.0,0.0,0.0,0.0,0.0,0.0,0.0,0.0,0.0,2.2257,2.1096,2.1096,2.0614,2.0265,2.0924,2.0747,2.0843,2.2524,2.1908,2.1798,2.4618,2.4134,2.3346,2.3799,2.3894,2.397,2.4167,2.4765,2.5191,2.5191,2.5191,2.5191,2.5191,2.5191,2.5191,2.5191,2.5191,2.5191,2.5191,2.5191,2.518,2.5125,2.4987,2.4855,2.4785,2.454,2.4372,2.4329,2.4182,2.4094,2.4094,2.4074,2.3996,2.3896,2.3886,2.3837,2.3806,2.3806,2.3806,2.3795,2.3742,2.3642,2.3492,2.3359,2.301,2.2565,2.238,2.2398,2.2533,0.0,0.0,0.0,0.0,0.0,0.0,0.0,0.0,0.0,0.0,0.0,0.0,0.0,0.0,0.0,0.0,0.0,0.0,0.0,0.0,0.0,0.0,0.0,0.0,0.0,2.5018,2.5035,2.4281,2.5026,2.5026,2.4281,2.4226,2.419,0.0,0.0,0.0,0.0,0.0,0.0,0.0,0.0,0.0,0.0,0.0,0.0,0.0,0.0,0.0,0.0,0.0,0.0,0.0,0.0,0.0,0.0,0.0,2.0919,2.0189,2.0189,2.015,2.0112,2.0189,2.0747,2.1746,2.3422,2.3703,2.3938,2.4981,2.5096,2.4784,2.4033,2.3894,2.4167,2.4975,2.5153,2.5191,2.5191,2.5191,2.5191,2.5191,2.5191,2.5191,2.5191,2.5191,2.5191,2.5191,2.5191,2.5119,2.4929,2.4908,2.4756,2.4449,2.4415,2.4311,2.4123,2.4103,2.4094,2.4094,2.3976,2.3907,2.3896,2.3845,2.3806,2.3806,2.3806,2.3806,2.3785,2.3598,2.3515,2.3458,2.2952,2.2579,2.2324,2.231,2.2719,2.3224,0.0,0.0,0.0,0.0,0.0,0.0,0.0,0.0,0.0,0.0,0.0,0.0,0.0,0.0,0.0,0.0,0.0,0.0,0.0,0.0,0.0,0.0,0.0,2.4505,2.4505,2.519,2.5384,2.5069,2.5287,2.4989,2.419,2.419,0.0,0.0,0.0,0.0,0.0,0.0,0.0,0.0,0.0,0.0,0.0,0.0,0.0,0.0,0.0,0.0,0.0,0.0,0.0,0.0,0.0,0.0,0.0,0.0,0.0,2.0227,2.0766,2.0518,2.0093,2.0093,2.0388,2.1085,2.2726,2.2742,2.2944,2.4801,2.4765,2.4454,2.4669,2.3823,2.3556,2.4981,2.5191,2.5191,2.5191,2.5191,2.5191,2.5191,2.5191,2.5191,2.5191,2.5191,2.5191,2.5191,2.5075,2.498,2.4908,2.4704,2.454,2.4398,2.4293,2.4182,2.4094,2.4016,2.3986,2.3986,2.3917,2.3886,2.3837,2.3806,2.3806,2.3806,2.3806,2.3806,2.3795,2.371,2.3502,2.3229,2.3171,2.3071,2.2987,2.2987,2.3444,2.3983,0.0,0.0,0.0,0.0,0.0,0.0,0.0,0.0,0.0,0.0,0.0,0.0,0.0,0.0,0.0,0.0,0.0,0.0,0.0,0.0,0.0,0.0,0.0,2.473,2.4764,2.5128,2.5288,2.5207,2.5086,2.475,2.419,0.0,0.0,0.0,0.0,0.0,0.0,0.0,0.0,0.0,0.0,0.0,0.0,0.0,0.0,0.0,0.0,0.0,0.0,0.0,0.0,0.0,0.0,0.0,0.0,0.0,0.0,2.026,2.0829,2.0761,2.0482,2.0201,2.0595,2.1328,2.2384,2.2239,2.2439,2.4405,2.4553,2.4498,2.5096,2.423,2.381,2.5019,2.5191,2.5191,2.5191,2.5191,2.5191,2.5191,2.5191,2.5191,2.5191,2.5191,2.5191,2.5191,2.5006,2.4881,2.4832,2.4556,2.4363,2.4302,2.4172,2.4084,2.4044,2.3955,2.3896,2.3876,2.3876,2.3837,2.3806,2.3806,2.3806,2.3795,2.3732,2.3887,2.4147,2.3647,2.3353,2.3206,2.3363,2.3528,2.3763,2.3763,2.422,2.4745,0.0,0.0,0.0,0.0,0.0,0.0,0.0,0.0,0.0,0.0,0.0,0.0,0.0,0.0,0.0,0.0,0.0,0.0,0.0,0.0,0.0,0.0,0.0,2.4764,2.4902,2.4772,2.4602,2.4398,2.4275,2.419,2.4199,0.0,0.0,0.0,0.0,0.0,0.0,0.0,0.0,0.0,0.0,0.0,0.0,0.0,0.0,0.0,0.0,0.0,0.0,0.0,2.5191,0.0,0.0,0.0,0.0,0.0,2.0848,2.0187,2.0122,2.079,2.1274,2.0431,2.1571,2.284,2.2725,2.2717,2.2967,2.3823,2.464,2.5191,2.5191,2.5191,2.5191,2.5191,2.5191,2.5191,2.5191,2.5191,2.5191,2.5191,2.5191,2.5191,2.521,2.521,2.521,2.5205,2.5,2.4832,2.4707,2.451,2.4302,2.4103,2.4094,2.4026,2.3907,2.3896,2.3876,2.3806,2.3806,2.3806,2.3806,2.3806,2.3795,2.3785,2.3587,2.4069,2.4863,2.3338,2.2983,2.3408,2.341,2.3881,2.4508,2.4508,2.4982,2.5507,0.0,0.0,0.0,0.0,0.0,0.0,0.0,0.0,0.0,0.0,0.0,0.0,0.0,0.0,0.0,0.0,0.0,0.0,0.0,0.0,0.0,0.0,0.0,0.0,0.0,0.0,2.4468,2.4398,2.4275,2.4247,0.0,0.0,0.0,2.4618,0.0,0.0,0.0,0.0,0.0,0.0,0.0,0.0,0.0,0.0,0.0,0.0,0.0,0.0,0.0,0.0,0.0,0.0,0.0,0.0,0.0,2.2319,2.123,2.0274,2.0901,2.0842,2.0839,2.1851,2.2042,2.2135,2.2713,2.3247,2.3847,2.4667,2.4553,2.4473,2.5096,2.4708,2.4498,2.5096,2.5191,2.5191,2.5191,2.5191,2.5191,2.5191,2.5191,2.5137,2.5,2.4987,2.4947,2.4856,2.467,2.4532,2.4493,2.4338,2.4219,2.4103,2.4046,2.3986,2.3907,2.3847,2.3816,2.3806,2.3806,2.3806,2.3806,2.3806,2.3721,2.3587,2.3538,2.3553,2.3655,2.3537,2.3557,2.3767,2.462,2.5084,2.527,2.527,2.5744,2.6268,0.0,0.0,0.0,0.0,0.0,0.0,0.0,0.0,0.0,0.0,0.0,0.0,0.0,0.0,0.0,0.0,0.0,0.0,0.0,0.0,0.0,0.0,0.0,0.0,0.0,2.4508,2.4382,0.0,0.0,0.0,0.0,0.0,0.0,2.4787,0.0,0.0,0.0,0.0,0.0,0.0,0.0,0.0,0.0,0.0,0.0,0.0,0.0,0.0,0.0,0.0,0.0,0.0,0.0,0.0,0.0,2.2637,2.1478,2.0301,2.0862,2.0866,2.0993,2.2143,2.2272,2.2248,2.2701,2.3431,2.4221,2.5036,2.4784,2.4574,2.5096,2.4765,2.4593,2.5115,2.5191,2.5191,2.5191,2.5191,2.5191,2.5191,2.5125,2.5019,2.4915,2.4847,2.4794,2.4707,2.451,2.4398,2.4398,2.4266,2.4161,2.4064,2.4016,2.3966,2.3847,2.3816,2.3806,2.3806,2.3806,2.3806,2.3806,2.3806,2.3678,2.3522,2.372,2.3427,2.2855,2.386,2.4193,2.4169,2.5198,2.5795,2.6048,2.6048,2.6319,2.664,0.0,0.0,0.0,0.0,0.0,0.0,0.0,0.0,0.0,0.0,0.0,0.0,0.0,0.0,0.0,0.0,0.0,0.0,0.0,0.0,0.0,0.0,0.0,0.0,0.0,0.0,0.0,0.0,0.0,0.0,0.0,0.0,2.4772,2.4915,0.0,2.5063,0.0,0.0,0.0,0.0,0.0,0.0,0.0,0.0,0.0,0.0,0.0,0.0,0.0,0.0,0.0,0.0,2.5191,2.4098,2.2804,2.2814,2.1662,2.043,2.0511,2.0962,2.1464,2.1767,2.238,2.2859,2.2725,2.3381,2.4192,2.4941,2.5134,2.5191,2.5191,2.5191,2.5191,2.5191,2.5191,2.5191,2.5191,2.5191,2.5185,2.5174,2.5006,2.4895,2.4867,2.4731,2.4676,2.466,2.4485,2.4372,2.4372,2.4257,2.4123,2.4006,2.3996,2.3927,2.3806,2.3806,2.3795,2.3774,2.3795,2.3785,2.3742,2.3785,2.3667,2.3494,2.394,2.3427,2.2426,2.4153,2.4675,2.4474,2.5287,2.6015,2.6607,2.6691,2.6708,2.6691,0.0,0.0,0.0,0.0,0.0,0.0,0.0,0.0,0.0,0.0,0.0,0.0,0.0,0.0,0.0,0.0,0.0,0.0,0.0,0.0,0.0,0.0,0.0,0.0,0.0,0.0,0.0,0.0,0.0,0.0,0.0,0.0,0.0,2.498,0.0,2.4881,0.0,0.0,0.0,0.0,0.0,0.0,0.0,0.0,0.0,0.0,0.0,0.0,0.0,0.0,0.0,0.0,2.5191,2.4471,2.3642,2.3693,2.2547,2.1409,2.2205,2.1546,2.0988,2.2444,2.2854,2.2859,2.2725,2.3333,2.3979,2.4134,2.4727,2.5191,2.5191,2.5191,2.5191,2.5191,2.5191,2.5191,2.5191,2.5191,2.5131,2.4987,2.4922,2.4792,2.454,2.4474,2.4408,2.4312,2.4266,2.4238,2.4238,2.4162,2.4084,2.4006,2.3937,2.3886,2.3806,2.3806,2.371,2.3565,2.3721,2.3613,2.3271,2.3628,2.358,2.317,2.2867,2.2572,2.2378,2.333,2.3704,2.378,2.5147,2.5742,2.5913,2.6605,2.6792,2.6691,0.0,0.0,0.0,0.0,0.0,0.0,0.0,0.0,0.0,0.0,0.0,0.0,0.0,0.0,0.0,0.0,0.0,0.0,0.0,0.0,0.0,0.0,0.0,0.0,0.0,0.0,0.0,0.0,0.0,0.0,0.0,0.0,0.0,2.49,0.0,2.4727,0.0,0.0,0.0,0.0,0.0,0.0,0.0,0.0,0.0,0.0,0.0,0.0,0.0,0.0,0.0,0.0,0.0,0.0,2.3955,2.3996,2.2808,2.1637,2.2211,2.1369,2.0542,2.1515,2.2028,2.2132,2.1613,2.2135,2.2811,2.3193,2.4306,2.5191,2.5191,2.5191,2.5191,2.5191,2.5191,2.5191,2.5191,2.5119,2.5032,2.4915,2.4756,2.4596,2.4415,2.4329,2.4275,2.4199,2.419,2.419,2.419,2.4141,2.4006,2.3816,2.3735,2.3628,2.3479,2.345,2.3411,2.3313,2.3411,2.3342,2.3091,2.3224,2.314,2.2889,2.2487,2.2296,2.2347,2.3132,2.3437,2.3526,2.4722,2.5335,2.5659,2.6114,2.647,2.6691,0.0,0.0,0.0,0.0,0.0,0.0,0.0,0.0,0.0,0.0,0.0,0.0,0.0,0.0,0.0,0.0,0.0,0.0,0.0,0.0,0.0,0.0,0.0,0.0,0.0,0.0,0.0,0.0,0.0,0.0,0.0,0.0,0.0,2.4768,0.0,0.0,0.0,0.0,0.0,0.0,0.0,0.0,0.0,0.0,0.0,0.0,0.0,0.0,2.498,2.5137,0.0,0.0,0.0,0.0,2.4207,2.4226,2.314,2.1937,2.1913,2.1075,2.0227,2.0289,2.0827,2.1159,2.0385,2.0932,2.1803,2.2467,2.3867,2.5019,2.5172,2.5191,2.5191,2.5191,2.5191,2.5185,2.5143,2.5,2.4888,2.4814,2.4572,2.4381,2.4373,2.4275,2.419,2.419,2.419,2.418,2.4123,2.4074,2.3886,2.3584,2.3495,2.3347,2.3121,2.3121,2.3084,2.3035,2.2985,2.2998,2.3047,2.2773,2.2659,2.2685,2.2432,2.231,2.2361,2.3039,2.3279,2.3291,2.4247,2.4928,2.5456,2.5726,2.6217,2.6742,0.0,0.0,0.0,0.0,0.0,0.0,0.0,0.0,0.0,0.0,0.0,0.0,0.0,0.0,0.0,0.0,0.0,0.0,0.0,0.0,0.0,0.0,0.0,0.0,0.0,0.0,0.0,0.0,0.0,0.0,0.0,0.0,0.0,2.4631,0.0,0.0,0.0,0.0,0.0,0.0,0.0,0.0,0.0,0.0,0.0,0.0,0.0,0.0,2.5168,2.5185,2.5191,0.0,0.0,0.0,2.5053,2.5105,2.4428,2.3524,2.2905,2.1543,2.0289,2.0299,2.0336,2.0342,2.0231,2.1368,2.2467,2.2581,2.3384,2.4301,2.5057,2.5191,2.5191,2.5191,2.5191,2.5131,2.4955,2.4915,2.4792,2.4508,2.4424,2.4347,2.4228,2.4209,2.419,2.419,2.419,2.4094,2.3876,2.3795,2.3657,2.344,2.3319,2.3223,2.3193,2.3133,2.2985,2.2751,2.2511,2.2552,2.2842,2.2552,2.2542,2.2685,2.2487,2.2349,2.231,2.2482,2.2502,2.2581,2.4041,2.462,2.4828,2.6279,2.684,2.6876,0.0,0.0,0.0,0.0,0.0,0.0,0.0,0.0,0.0,0.0,0.0,0.0,0.0,0.0,0.0,0.0,0.0,0.0,0.0,0.0,0.0,0.0,0.0,0.0,0.0,0.0,0.0,0.0,0.0,0.0,0.0,2.4621,2.4596,0.0,0.0,0.0,0.0,0.0,0.0,0.0,0.0,0.0,0.0,0.0,0.0,0.0,0.0,0.0,0.0,2.5191,2.5191,2.5191,2.5191,0.0,0.0,0.0,2.464,2.3678,2.2442,2.1589,2.0891,2.0387,2.0581,2.0911,2.0883,2.1775,2.2734,2.3231,2.3627,2.4167,2.5038,2.5191,2.5191,2.5191,2.5107,2.5,2.4915,2.4741,2.4572,2.4415,2.4338,2.4257,2.4199,2.419,2.419,2.419,2.4064,2.3917,2.3806,2.3584,2.3365,2.3128,2.299,2.2855,2.2699,2.2672,2.2592,2.2474,2.2391,2.2432,2.2565,2.2501,2.2487,2.2528,2.2432,2.2366,2.231,2.238,2.2377,2.2434,2.3147,2.3911,2.4696,2.5439,2.6241,2.6959,0.0,0.0,0.0,0.0,0.0,0.0,0.0,0.0,0.0,0.0,0.0,0.0,0.0,0.0,0.0,0.0,0.0,0.0,0.0,0.0,0.0,0.0,0.0,0.0,0.0,0.0,0.0,0.0,0.0,0.0,2.4642,2.4692,2.4629,0.0,2.4574,0.0,0.0,0.0,0.0,0.0,0.0,0.0,0.0,0.0,0.0,0.0,0.0,0.0,2.5191,2.5191,2.5191,2.5191,2.5191,2.5191,0.0,0.0,0.0,2.3643,2.2441,2.1974,2.1641,2.0734,2.0986,2.1453,2.1402,2.2013,2.2849,2.3722,2.4091,2.4435,2.5077,2.5191,2.518,2.5125,2.4993,2.4881,2.4785,2.4564,2.4399,2.4347,2.4266,2.419,2.419,2.419,2.419,2.419,2.4016,2.3837,2.3703,2.3439,2.3164,2.2859,2.2694,2.2542,2.2349,2.2324,2.231,2.2324,2.238,2.2419,2.2446,2.2501,2.2487,2.2419,2.2419,2.2394,2.2338,2.2391,2.2422,2.2439,2.2678,2.344,2.4445,2.468,2.5603,2.6766,0.0,0.0,0.0,0.0,0.0,0.0,0.0,0.0,0.0,0.0,0.0,0.0,0.0,0.0,0.0,0.0,0.0,0.0,0.0,0.0,0.0,0.0,0.0,0.0,0.0,0.0,0.0,0.0,0.0,0.0,2.5055,2.483,2.4727,2.4775,2.466,2.4626,2.4697,0.0,0.0,0.0,0.0,0.0,0.0,0.0,0.0,0.0,0.0,2.5191,2.5191,2.5191,2.5191,2.5191,2.5191,2.5191,2.5191,0.0,0.0,0.0,2.381,2.3165,2.2348,2.1546,2.1373,2.1393,2.1407,2.2013,2.2849,2.3722,2.4555,2.5153,2.5191,2.5191,2.5131,2.4961,2.4908,2.4785,2.4474,2.4407,2.4347,2.4228,2.4199,2.419,2.419,2.419,2.419,2.419,2.418,2.3966,2.3448,2.3346,2.3117,2.2725,2.2528,2.2432,2.2487,2.2349,2.2338,2.2391,2.2391,2.246,2.2579,2.2592,2.2569,2.2501,2.2501,2.246,2.2391,2.246,2.246,2.2473,2.3241,2.3591,2.3762,2.4584,2.5386,2.6071,0.0,0.0,0.0,0.0,0.0,0.0,0.0,0.0,0.0,0.0,0.0,0.0,0.0,0.0,0.0,0.0,0.0,0.0,0.0,0.0,0.0,0.0,0.0,0.0,0.0,0.0,0.0,0.0,0.0,2.4949,2.4962,2.4961,2.4947,2.4929,2.4874,2.4847,2.4828,2.4927,0.0,0.0,0.0,0.0,0.0,0.0,0.0,2.4017,2.4885,2.5191,2.5191,2.5191,2.5191,2.5191,2.5191,2.5191,2.5191,2.5191,2.4981,2.4612,2.4052,2.3665,2.3231,2.2376,2.2166,2.2166,2.2166,2.283,2.3512,2.3837,2.4593,2.5168,2.5038,2.5,2.4987,2.4915,2.4719,2.454,2.4415,2.433,2.4257,2.4199,2.419,2.419,2.419,2.419,2.4141,2.3966,2.3785,2.3551,2.3212,2.298,2.2782,2.2632,2.2487,2.2405,2.2432,2.2377,2.2391,2.246,2.2515,2.2542,2.2542,2.2565,2.2596,2.2569,2.2528,2.246,2.2391,2.2419,2.2474,2.2559,2.286,2.3264,2.3821,2.4655,2.5426,2.6132,0.0,0.0,0.0,0.0,0.0,0.0,0.0,0.0,0.0,0.0,0.0,0.0,0.0,0.0,0.0,0.0,0.0,0.0,0.0,0.0,0.0,0.0,0.0,0.0,0.0,0.0,0.0,0.0,0.0,0.0,0.0,2.5082,2.51,2.5105,2.5074,2.5043,0.0,0.0,0.0,2.5164,0.0,2.4369,2.3965,2.4563,2.4418,2.4017,2.4885,2.5191,2.5191,2.5191,2.5191,2.5191,2.5191,0.0,0.0,2.5191,2.5191,2.5077,2.4498,2.4339,2.4129,2.325,2.304,2.304,2.304,2.3479,2.397,2.4282,2.473,2.5057,2.4922,2.4806,2.4734,2.4734,2.4548,2.4372,2.4347,2.4257,2.419,2.419,2.419,2.419,2.419,2.419,2.4084,2.3816,2.3621,2.3405,2.3132,2.2868,2.2685,2.2582,2.2501,2.246,2.2432,2.2432,2.246,2.2525,2.2565,2.2579,2.2582,2.2605,2.2619,2.2592,2.2538,2.2515,2.246,2.246,2.2528,2.2592,2.2619,2.2968,2.3526,2.4301,2.5092,2.5835,0.0,0.0,0.0,0.0,0.0,0.0,0.0,0.0,0.0,0.0,0.0,0.0,0.0,0.0,0.0,0.0,0.0,0.0,0.0,0.0,0.0,0.0,0.0,0.0,0.0,0.0,0.0,0.0,0.0,0.0,0.0,0.0,2.5178,2.5306,2.5222,2.5201,2.5193,0.0,2.5193,2.5135,2.4352,2.3987,2.3905,2.3997,2.3987,2.4014,2.4885,2.5191,2.5191,2.5191,2.5191,2.5191,2.5191,0.0,0.0,0.0,2.5191,2.5191,0.0,0.0,0.0,2.4148,2.3913,2.3894,2.3894,2.3894,2.4148,2.4975,2.5025,2.4902,2.4895,2.4628,2.4398,2.4389,2.4389,2.4347,2.4218,2.419,2.419,2.419,2.419,2.419,2.419,2.419,2.4084,2.3806,2.3785,2.358,2.3102,2.3033,2.2842,2.2515,2.2569,2.2582,2.2501,2.2501,2.2542,2.2592,2.2592,2.2632,2.2699,2.2699,2.2659,2.2592,2.2592,2.2592,2.2592,2.2592,2.2592,2.2605,2.2672,2.2699,2.2785,2.3526,2.4284,2.506,0.0,0.0,0.0,0.0,0.0,0.0,0.0,0.0,0.0,0.0,0.0,0.0,0.0,0.0,0.0,0.0,0.0,0.0,0.0,0.0,0.0,0.0,0.0,0.0,0.0,0.0,0.0,0.0,0.0,0.0,0.0,0.0,0.0,0.0,2.5282,2.5247,2.5201,2.5201,2.5209,2.5174,2.4952,2.4476,2.3965,2.4621,2.4511,2.4074,2.4903,2.5209,2.5209,2.5209,2.5198,2.5195,2.5197,0.0,0.0,0.0,0.0,0.0,2.5191,0.0,0.0,0.0,0.0,0.0,2.3894,2.3894,2.3948,2.4093,2.4537,2.484,2.4588,2.4466,2.4373,2.4266,2.4257,2.4238,2.4199,2.419,2.419,2.419,2.419,2.419,2.419,2.4016,2.3795,0.0,2.3376,2.3145,2.2829,2.2803,2.2725,2.2582,2.2579,2.2579,2.2565,2.2582,2.2623,2.2672,2.2672,2.2659,2.2619,2.2619,2.2619,2.2592,2.2592,2.2619,2.2672,2.2619,2.2619,2.2672,2.2699,2.2699,2.2785,2.3526,2.3858,2.4106,0.0,0.0,0.0,0.0,0.0,0.0,0.0,0.0,0.0,0.0,0.0,0.0,0.0,0.0,0.0,0.0,0.0,0.0,0.0,0.0,0.0,0.0,0.0,0.0,0.0,0.0,0.0,0.0,0.0,0.0,0.0,0.0,0.0,0.0,0.0,0.0,0.0,0.0,2.5269,2.5253,2.5303,2.5,2.4533,2.5072,2.4951,2.4555,2.5039,2.5206,2.5195,2.5206,2.5195,2.5206,2.5195,0.0,0.0,0.0,0.0,0.0,0.0,0.0,2.5191,2.5191,0.0,0.0,2.4314,2.4271,2.42,2.4126,2.4157,2.4137,2.3938,2.3846,2.3795,2.3713,2.3988,2.419,2.419,2.419,2.419,2.419,2.419,2.419,2.419,2.3966,2.3692,2.3414,2.3212,2.2977,2.2712,2.2699,2.2672,2.2646,2.2632,2.2632,2.2632,2.2632,2.2659,2.2699,2.2699,2.2672,2.2632,2.2632,2.2632,2.2632,2.2632,2.2659,2.2699,2.2659,2.2659,2.2699,2.2699,2.2699,2.2836,2.3905,2.423,2.4338,0.0,0.0,0.0,0.0,0.0,0.0,0.0,0.0,0.0,0.0,0.0,0.0,0.0,0.0,0.0,0.0,0.0,0.0,0.0,0.0,0.0,0.0,0.0,0.0,0.0,0.0,0.0,0.0,0.0,0.0,0.0,0.0,0.0,0.0,0.0,0.0,0.0,2.5355,2.5363,2.5324,2.543,2.5344,2.5173,2.5333,2.5264,2.5088,2.5184,2.5206,2.5209,2.5212,2.522,2.5198,2.5193,2.5195,2.5191,2.5191,2.5191,0.0,0.0,0.0,0.0,2.5168,2.5025,0.0,2.4881,2.4787,2.47,2.4657,2.3966,2.3339,2.3314,2.3205,2.3134,2.3134,2.3731,2.419,2.419,2.419,2.419,2.419,2.417,2.4151,2.4151,2.3886,2.3617,2.3375,2.3182,2.2957,2.2699,2.2685,2.2685,2.2672,2.2685,2.2685,2.2685,2.2699,2.2699,2.2699,2.2699,2.2699,2.2699,2.2699,2.2699,2.2699,2.2699,2.2699,2.2699,2.2699,2.2699,2.2699,2.2699,2.275,2.2992,2.4353,2.4905,2.5151,0.0,0.0,0.0,0.0,0.0,0.0,0.0,0.0,0.0,0.0,0.0,0.0,0.0,0.0,0.0,0.0,0.0,0.0,0.0,0.0,0.0,0.0,0.0,0.0,0.0,0.0,0.0,0.0,0.0,0.0,0.0,0.0,0.0,0.0,0.0,0.0,0.0,2.5289,2.5346,2.5383,2.5354,2.4898,2.4336,2.5038,2.4899,2.4399,2.5043,2.5288,2.5283,2.5287,2.5247,2.5201,2.5198,2.5195,2.5191,2.5191,2.5191,2.5191,2.5191,0.0,2.4967,2.4967,2.4851,0.0,2.4734,2.473,2.465,2.4493,2.4293,2.4132,2.4026,2.3979,2.3969,2.3969,2.4098,2.419,2.419,2.419,2.419,2.419,2.4006,2.3865,2.3806,2.3463,2.3182,2.3102,2.2889,2.2725,2.2636,2.2619,2.2592,2.2542,2.2579,2.2619,2.2619,2.2672,2.2699,2.2699,2.2699,2.2699,2.2699,2.2699,2.2699,2.2699,2.2699,2.2699,2.2699,2.2699,2.2699,2.2699,2.2699,2.306,2.3629,2.3922,2.4307,2.4777,0.0,0.0,0.0,0.0,0.0,0.0,0.0,0.0,0.0,0.0,0.0,0.0,0.0,0.0,0.0,0.0,0.0,0.0,0.0,0.0,0.0,0.0,0.0,0.0,0.0,0.0,0.0,0.0,0.0,0.0,0.0,0.0,0.0,0.0,0.0,0.0,0.0,2.5144,2.533,2.5302,2.5363,2.5139,2.4786,2.52,2.5076,2.4755,2.5154,2.5308,2.5279,2.5262,2.5222,2.5206,2.5198,2.5195,2.5191,2.5191,2.5125,2.5051,2.5051,2.4927,2.4808,2.4808,2.467,0.0,0.0,2.4495,2.4419,2.433,2.3979,2.3685,2.3621,2.3602,2.3602,2.3602,2.3933,2.419,2.419,2.419,2.419,2.419,2.3927,2.3753,2.3703,2.3313,2.2982,2.2816,2.2672,2.2596,2.2555,2.2565,2.2579,2.2555,2.2605,2.2646,2.2646,2.2685,2.2699,2.2699,2.2699,2.2699,2.2699,2.2699,2.2699,2.2699,2.2699,2.2699,2.2699,2.2699,2.2699,2.2733,2.3095,2.325,2.335,2.4195,2.4669,2.5013,0.0,0.0,0.0,0.0,0.0,0.0,0.0,0.0,0.0,0.0,0.0,0.0,2.4902,2.5091,2.5182,2.5115,0.0,0.0,0.0,0.0,0.0,0.0,0.0,2.4961,0.0,0.0,0.0,0.0,0.0,0.0,0.0,0.0,0.0,0.0,0.0,0.0,2.4302,2.5053,2.5313,2.5257,2.5397,2.5441,2.5448,2.5398,2.5354,2.5298,2.5303,2.5308,2.5298,2.5233,2.5217,2.5206,2.5198,2.5195,2.5185,2.5143,2.5038,2.4895,2.4867,2.4746,2.4642,2.4642,2.4493,2.4364,0.0,0.0,0.0,2.419,2.3676,2.3226,2.3226,2.3226,2.3217,2.3161,2.3739,2.4161,2.4036,2.4074,2.4141,2.419,2.3865,2.3628,2.3599,2.3164,2.2803,2.2609,2.2542,2.2501,2.2501,2.2555,2.2565,2.2565,2.2646,2.2672,2.2672,2.2699,2.2699,2.2699,2.2699,2.2699,2.2699,2.2699,2.2699,2.2699,2.2699,2.2699,2.2699,2.2699,2.2811,2.301,2.3436,2.3333,2.3131,2.4639,2.5317,2.56,2.419,2.419,0.0,0.0,0.0,0.0,0.0,0.0,0.0,0.0,0.0,2.4902,2.4902,2.4935,2.4994,2.5084,2.509,2.5084,2.5091,2.4942,0.0,0.0,0.0,2.4908,2.4929,0.0,0.0,0.0,0.0,0.0,0.0,0.0,0.0,0.0,2.5264,2.5253,2.5166,2.5192,2.5274,2.5372,2.5269,2.5234,2.5234,2.5288,2.5307,2.5297,2.5298,2.5308,2.5303,2.5297,2.5252,2.5206,2.5198,2.5195,2.5168,2.4987,2.4915,2.4874,2.4757,2.4575,2.4424,2.4424,2.4321,2.4228,2.4228,0.0,2.419,2.419,0.0,2.4061,2.4061,0.0,0.0,2.3759,2.3999,2.4006,2.3488,2.3617,2.3876,2.4161,2.3692,2.3323,2.3259,2.2777,2.2487,2.2515,2.2501,2.2501,2.2501,2.2515,2.2515,2.2515,2.2582,2.2605,2.2605,2.2672,2.2699,2.2699,2.2699,2.2699,2.2699,2.2699,2.2699,2.2699,2.2699,2.2699,2.2699,2.2699,2.3188,2.3863,2.3127,2.3261,2.3958,2.4868,2.5733,2.6535,2.4199,2.419,0.0,0.0,0.0,0.0,0.0,0.0,0.0,2.4797,2.4923,2.5025,2.5025,2.5091,2.5126,2.509,2.509,2.5024,2.4881,2.4823,0.0,0.0,2.4825,2.4942,2.5006,0.0,0.0,0.0,2.5308,0.0,0.0,0.0,0.0,0.0,2.5086,2.5014,2.4571,2.502,2.5238,2.5269,2.5217,2.5201,2.5217,2.5278,2.5293,2.5293,2.5303,2.5308,2.5303,0.0,2.5252,2.5206,2.5198,2.5195,2.5168,2.4967,2.484,2.4757,2.4567,2.4743,2.4875,2.4395,2.4587,2.4768,2.43,0.0,2.419,2.419,0.0,0.0,0.0,0.0,0.0,0.0,2.3639,2.3588,2.3335,2.3369,2.3448,2.3599,2.3224,2.289,2.2751,2.2497,2.2394,2.2487,2.246,2.246,2.2501,2.2542,2.2569,2.2569,2.2619,2.2659,2.2659,2.2685,2.2699,2.2699,2.2699,2.2699,2.2699,2.2699,2.2699,2.2699,2.2699,2.294,2.3336,2.3336,2.3621,2.4002,2.3605,2.4033,2.4927,2.5296,2.5975,2.6766,2.4375,0.0,0.0,0.0,0.0,0.0,0.0,0.0,0.0,2.4942,2.5061,2.5154,2.5154,2.5243,2.5259,2.5165,2.5154,2.505,2.4772,2.4749,2.4734,2.4707,2.4825,2.4955,2.5109,2.5238,0.0,0.0,0.0,0.0,0.0,0.0,0.0,0.0,2.5038,2.4947,2.4389,2.4983,2.5228,2.5233,2.5225,2.5231,2.5238,2.5283,2.5303,2.5308,2.5308,2.5308,2.5303,2.5297,2.5276,0.0,2.5204,2.5201,2.5149,2.4902,2.493,2.4934,2.4474,0.0,2.5209,0.0,0.0,0.0,0.0,0.0,0.0,2.4094,2.4026,0.0,0.0,0.0,0.0,0.0,0.0,2.3253,2.3105,2.3075,2.3093,2.3189,2.291,2.2612,2.2391,2.2338,2.2338,2.2432,2.2422,2.2432,2.2501,2.2552,2.2605,2.2636,2.2672,2.2699,2.2699,2.2699,2.2699,2.2699,2.2699,2.2699,2.2699,2.2699,2.2699,2.2699,2.2699,2.3129,2.3802,2.3802,2.4033,2.4386,2.4386,2.5024,2.5879,2.5707,2.6136,2.6894,2.4782,2.4609,0.0,0.0,0.0,0.0,0.0,0.0,2.5084,2.5084,2.5217,2.5284,2.5284,2.5303,2.5303,2.5284,2.5284,2.5171,2.4915,2.4895,2.4851,2.4707,2.4825,2.4955,2.5109,2.5238,2.5308,0.0,0.0,0.0,0.0,0.0,0.0,0.0,2.5288,2.5288,2.5264,2.5297,2.5302,2.5303,2.5297,2.5302,2.5303,2.5297,2.5307,2.5308,2.5308,0.0,0.0,2.5297,2.5311,0.0,0.0,0.0,0.0,0.0,0.0,0.0,0.0,0.0,0.0,2.4392,0.0,0.0,0.0,0.0,2.3816,0.0,0.0,0.0,0.0,0.0,0.0,0.0,0.0,0.0,0.0,2.2643,2.2835,2.3153,2.291,2.2599,2.2321,2.2296,2.2296,2.231,2.2349,2.2432,2.2501,2.2552,2.2619,2.2699,2.2699,2.2699,2.2699,2.2699,2.2699,2.2699,2.2699,2.2699,2.2699,2.2699,2.2699,2.2699,2.2699,2.3129,2.3802,2.3802,2.4413,2.5353,2.5353,2.6016,2.6858,2.6011,2.625,2.7103,0.0,0.0,0.0,2.4809,2.4916,2.5024,2.5113,2.5691,2.6088,2.6088,2.6133,2.6154,2.6154,2.5654,2.5259,2.5171,2.5165,2.5097,2.4915,2.4902,2.4881,2.4825,2.4949,2.5049,2.509,2.5238,2.5308,0.0,0.0,0.0,0.0,0.0,0.0,0.0,0.0,2.5293,2.5303,2.5243,2.5257,2.5302,2.5292,2.5653,2.6096,2.5529,2.5298,2.5308,2.5308,2.5308,0.0,2.5298,2.5302,2.5271,2.5178,2.5112,2.5108,2.5295,2.5544,0.0,0.0,0.0,2.6806,2.5988,0.0,0.0,0.0,0.0,0.0,0.0,0.0,0.0,0.0,0.0,0.0,0.0,0.0,0.0,0.0,2.3596,2.3759,2.3375,2.2812,2.2402,2.231,2.1383,2.1211,2.2281,2.1513,2.1473,2.25,2.2619,2.2548,2.2309,2.2426,2.2443,2.2309,2.2426,2.2582,2.2699,2.2699,2.2699,2.2699,2.2699,2.2699,2.2699,2.2699,2.3422,2.4591,2.4687,2.4983,2.5423,2.55,2.5511,2.5569,2.6297,2.7081,2.7821,2.5154,2.5171,2.5138,2.4999,2.5084,2.5192,2.5298,2.6038,2.6601,2.6601,2.6601,2.6601,2.6601,2.5827,2.5264,2.5176,2.5171,2.5121,2.4968,2.4962,2.4962,2.4962,2.5049,2.5126,2.5171,2.5253,2.5308,2.5308,0.0,2.5308,0.0,0.0,0.0,0.0,0.0,2.5475,2.575,2.5397,2.5262,2.5321,2.5629,2.6105,2.6563,0.0,2.6038,2.5769,0.0,2.5769,2.5769,2.5769,2.5759,2.5723,2.5582,2.5501,2.5549,2.6014,2.6358,2.6609,2.6624,2.7214,0.0,2.6814,2.686,0.0,2.6271,0.0,2.5577,0.0,0.0,0.0,0.0,0.0,0.0,0.0,0.0,0.0,0.0,2.4247,2.4321,2.3848,2.3139,2.2364,2.1552,2.1092,2.1051,2.1501,2.1267,2.1447,2.2306,2.2409,2.2284,2.1895,2.2144,2.2229,2.211,2.2371,2.2582,2.2699,2.2699,2.2699,2.2699,2.2699,2.2699,2.2699,2.2699,2.356,2.502,2.5142,2.5282,2.5444,2.5853,2.5483,2.4819,2.5818,2.6853,2.7732,2.5308,2.5327,2.5365,2.5365,2.5327,2.5327,2.5423,2.6135,2.6659,2.6659,2.6659,2.6659,2.6601,2.5827,2.5308,2.5308,2.5308,2.5248,2.5126,2.5121,2.5121,2.5121,2.5121,2.5165,2.5303,2.5308,2.5308,2.5308,2.5308,0.0,0.0,0.0,0.0,0.0,2.572,2.5802,2.6481,2.5648,2.5321,2.5442,2.6308,2.6697,2.6813,2.7601,2.7409,2.6717,2.6678,2.6659,2.6659,2.6659,2.6654,2.6603,2.6429,2.6345,2.6422,2.6909,2.7597,2.7997,2.7083,2.7388,2.7761,2.6935,2.6712,0.0,0.0,0.0,2.5819,0.0,0.0,0.0,0.0,0.0,0.0,0.0,0.0,0.0,0.0,2.4609,2.4592,2.4558,2.3915,2.2598,2.0386,2.1501,2.1718,2.0234,2.1534,2.2248,2.1928,2.1969,2.1836,2.1477,2.188,2.2082,2.2082,2.2477,2.2685,2.2699,2.2699,2.2699,2.2699,2.2699,2.2699,2.2699,2.2699,2.3591,2.5034,2.5157,2.5331,2.5546,2.6427,2.5887,2.4659,2.473,2.5658,2.6795,2.5308,2.5827,2.6269,2.6269,2.5731,2.5731,2.7024,2.7409,2.7563,2.7563,2.7563,2.7313,2.6678,2.5827,2.5308,2.5308,2.5308,2.5298,2.5248,2.5248,2.5248,2.5248,2.5248,2.5259,2.5308,2.5308,2.5308,2.5308,2.5308,0.0,2.6269,0.0,0.0,0.0,0.0,2.5984,2.5624,2.5348,2.5632,2.6346,2.7217,2.7909,2.8415,0.0,2.8126,2.8376,2.7775,2.7563,2.7563,2.7563,2.7478,2.7326,2.7167,2.7029,2.7004,2.7577,2.7889,2.8128,2.8461,2.8673,2.8739,2.8496,2.8271,2.8064,0.0,0.0,0.0,0.0,0.0,0.0,0.0,0.0,0.0,0.0,0.0,0.0,0.0,2.6149,2.593,2.5389,2.4677,2.378,2.2632,2.1915,2.1559,2.1688,2.1138,2.1126,2.1861,0.0,2.1746,2.1228,2.1628,2.1884,2.1884,2.2276,2.2555,2.2699,2.2699,2.2699,2.2699,2.2699,2.2699,2.2699,2.2699,2.3628,2.5171,2.5355,2.5825,2.6409,2.6166,2.5139,2.3951,2.5092,2.5426,2.5426,2.5788,2.6563,2.7274,2.7621,2.7005,2.664,2.7236,2.7953,2.8299,2.7953,2.7895,2.7717,2.7217,2.6058,2.5308,2.5308,2.5308,2.5308,2.5308,2.5308,2.5308,2.5308,2.5308,2.5308,2.5308,2.5308,2.5308,2.5308,2.5673,0.0,2.6621,0.0,0.0,0.0,0.0,2.646,2.6362,2.5978,2.6315,2.7196,2.8077,2.8703,0.0,2.8929,2.9135,2.9474,2.8951,2.8587,2.8343,2.8343,2.8211,2.8015,2.7837,2.7725,2.7744,2.8422,2.8621,2.8703,2.9132,2.9218,2.9175,2.91,2.8964,2.8737,2.8456,2.8242,2.7868,0.0,2.6914,2.6715,0.0,0.0,0.0,2.5995,2.6149,0.0,2.6741,2.6742,2.6539,2.6133,2.5423,2.4678,2.3949,2.2558,2.1607,2.1316,2.1196,2.1285,2.161,0.0,2.1399,2.0763,2.1663,2.1988,2.1676,2.2567,2.2904,2.2699,2.2699,2.2699,2.2699,2.2699,2.2699,2.2699,2.2699,2.3655,2.5209,2.5423,2.6016,2.6725,2.6058,2.5057,2.4129,2.4998,2.5069,2.4766,2.6621,2.7467,2.828,2.8973,2.8626,2.789,2.6928,2.8005,2.8646,2.7838,2.7736,2.7736,2.7736,2.639,2.5462,2.5462,2.5462,2.5423,2.5308,2.5308,2.5308,2.5308,2.5308,2.5308,2.5308,2.5308,2.5365,2.5462,2.6231,2.6712,2.6937,0.0,0.0,0.0,2.7489,2.7182,2.7758,2.7176,2.733,2.8038,2.8881,2.9244,2.934,2.999,3.024,3.0278,3.0235,2.9696,2.9036,2.9036,2.8897,2.8707,2.8536,2.8455,2.8577,2.9206,2.9396,2.9386,2.9334,2.9312,2.928,2.9134,2.9193,2.9062,2.8321,2.8259,2.8148,2.75,2.736,2.7345,0.0,0.0,0.0,2.7119,2.7006,2.6909,2.6909,2.6809,2.6742,2.6742,2.6065,0.0,2.4574,2.3313,2.1908,2.042,2.1603,2.2092,0.0,0.0,2.1055,2.0494,2.1859,2.234,2.1778,2.3223,2.3578,2.2836,2.2836,2.2785,2.2699,2.2699,2.2699,2.2699,2.2802,2.369,2.5087,2.5476,2.6047,2.6628,2.6142,2.539,2.4569,2.4766,2.4783,2.4605,2.764,2.8338,2.8934,2.9088,2.9583,2.9442,2.7909,2.7915,2.7794,2.6948,2.6832,2.6832,2.6832,2.6563,2.6365,2.6365,2.6365,2.6077,2.5346,2.5308,2.5308,2.5308,2.5308,2.5308,2.5308,2.5308,2.5654,2.6365,2.6524,2.7316,2.8658,0.0,0.0,0.0,2.8632,2.8237,2.785,2.8416,2.8747,2.8937,2.9634,3.0024,3.0226,3.0738,3.1031,3.123,3.171,3.0955,2.9725,2.9725,2.9584,2.9419,2.9382,2.9297,2.9233,2.9351,2.9396,2.9396,2.9386,2.9344,2.9291,2.9189,2.9632,2.9818,2.8759,2.9032,2.9161,2.79,2.7644,2.7554,2.7345,0.0,0.0,0.0,0.0,0.0,2.6991,2.6958,2.6958,2.6958,2.6196,2.5399,2.465,2.3757,2.2866,2.1958,2.2158,2.2152,2.1736,0.0,2.1323,0.0,2.2179,0.0,0.0,0.0,2.4388,2.3612,2.3612,2.3285,2.2699,2.2699,2.2699,2.2733,2.3336,2.3863,2.4404,2.5813,2.6246,2.603,2.6586,2.5533,2.3862,2.5128,2.5229,2.4766,2.8668,2.9289,2.9829,2.9829,2.9781,2.9313,2.8088,2.7525,2.7082,2.6659,2.6601,2.6774,2.7217,2.6871,2.6774,2.7236,2.6851,2.6428,2.6,2.5962,2.5962,2.5962,2.5962,2.5962,2.5962,2.5538,2.5731,2.6601,2.7044,2.7904,2.9098,0.0,0.0,2.964,2.9181,2.874,2.8458,0.0,0.0,2.9752,3.01,3.0503,3.0889,3.0997,3.1322,3.1731,3.1917,3.151,3.0828,3.048,3.0255,3.0053,2.9623,2.9441,2.9396,2.9396,2.9396,2.9396,2.9396,2.9376,2.9304,2.9134,2.929,2.9247,2.8424,2.8478,2.8475,2.7657,2.7496,2.7434,2.7313,2.7299,0.0,0.0,0.0,0.0,2.7055,2.7024,2.6991,2.6991,2.6276,2.5648,2.521,2.4482,2.3553,2.2451,2.2324,2.218,2.1869,0.0,2.1584,0.0,0.0,0.0,2.3357,0.0,2.4974,2.3802,2.3802,2.3422,2.2699,2.2699,2.2699,2.2733,2.3491,2.3956,2.4336,2.6091,2.6894,2.7072,2.7464,2.6425,2.4825,2.5997,2.5693,2.4819,2.9885,3.038,3.0704,3.0506,2.9876,2.9115,2.828,2.7563,2.6948,2.6385,2.6327,2.6659,2.7525,2.7005,2.689,2.7563,2.7005,2.6601,2.6601,2.6601,2.6601,2.6601,2.6601,2.6505,2.6327,2.5827,2.6,2.689,2.7736,2.8563,2.9365,3.0003,0.0,0.0,0.0,0.0,0.0,0.0,2.9835,3.0579,3.0554,3.0939,3.1542,3.143,3.1747,3.2219,3.2217,3.2245,3.2184,3.1512,3.0966,3.0493,2.9842,2.9527,2.9396,2.9396,2.9396,2.9396,2.9396,2.9376,2.9283,2.9067,2.8966,2.8734,2.8041,2.7938,2.7837,2.7395,2.7299,2.7299,2.7299,2.7299,0.0,0.0,0.0,0.0,0.0,2.7105,2.7056,2.7056,2.6526,2.6049,2.5801,2.5191,2.4292,2.298,2.2671,2.2456,2.2249,2.2191,2.2071,0.0,0.0,2.436,2.3797,0.0,2.5577,2.406,2.406,2.3664,2.294,2.294,2.3026,2.3233,2.3974,2.4569,2.5125,2.6419,2.7344,2.7946,2.7946,2.7085,2.5908,2.6693,2.6229,2.5301,3.1574,3.1637,3.1414,3.0554,3.0388,3.0052,2.9124,2.8915,2.8044,2.5712,2.5423,2.575,2.664,2.6659,2.664,2.6717,2.6659,2.6601,2.6601,2.6601,2.6601,2.6601,2.6601,2.6231,2.5442,2.6115,2.6909,2.778,2.8588,2.9398,3.0195,0.0,0.0,0.0,0.0,0.0,0.0,3.0176,3.0732,3.1533,3.1099,3.1518,3.2412,3.2571,3.2774,3.3067,3.366,3.3889,3.3771,3.3039,3.1823,3.0586,3.0511,2.9991,2.9396,2.9396,2.9396,2.9396,2.9396,2.9262,2.91,2.9014,2.9308,2.93,2.8156,2.8359,2.8496,2.7514,2.7299,2.7299,2.7299,2.7299,2.7299,0.0,0.0,0.0,0.0,2.7283,2.7283,2.7283,2.71,2.6709,2.604,2.5747,2.5293,2.455,2.3794,2.3379,2.3347,2.3121,2.3121,2.3388,2.4694,2.5518,2.575,2.67,2.6402,2.4885,2.4885,2.4456,2.3698,2.3698,2.4095,2.4833,2.556,2.6445,2.7347,2.6981,2.6939,2.7103,2.7103,2.6568,2.5908,2.6693,2.692,2.6889,3.1145,3.1107,3.0942,3.053,3.0016,2.9527,2.9151,2.8684,2.8011,2.6986,2.6409,2.6409,2.7294,2.6909,2.6813,2.7332,2.7371,2.7371,2.7371,2.7832,2.789,2.739,2.7371,2.7217,2.6871,2.6697,2.7255,2.8626,2.9467,3.0027,3.0304,0.0,0.0,0.0,0.0,3.0215,3.0285,3.0215,3.0645,3.1374,3.12,3.1797,3.2799,3.288,3.3185,3.3617,3.3869,3.4011,3.3993,3.3753,3.2948,3.1961,3.1478,3.0772,3.0214,3.0697,3.0158,2.9469,2.9843,2.9853,2.9591,2.8877,2.9057,2.9133,2.8035,2.7857,2.7816,2.7382,2.7299,2.7299,2.7299,2.7299,2.7299,2.7299,0.0,0.0,0.0,2.7299,2.7299,2.7299,2.725,2.708,2.6706,2.6593,2.6409,2.6056,2.4837,2.3924,2.3527,2.3871,2.3918,2.3611,0.0,2.5906,2.6063,2.6887,2.6747,2.5661,2.5661,2.5249,2.4508,2.4508,2.4939,2.5661,2.5678,2.6446,2.766,2.7142,2.7242,2.7714,2.7714,2.7228,2.6621,2.7424,2.7406,2.7116,3.1117,3.1213,3.1181,3.0574,2.9939,2.9511,2.9492,2.9006,2.864,2.864,2.7871,2.7486,2.7857,2.7121,2.6851,2.7467,2.7525,2.7621,2.7876,2.8646,2.8857,2.828,2.8261,2.8145,2.7915,2.7525,2.7909,2.9107,2.9967,0.0,0.0,0.0,0.0,0.0,3.0515,3.0515,3.0585,3.0403,3.0777,3.1514,3.1673,3.2378,3.3376,3.3258,3.3506,3.3895,3.3895,3.3934,3.3985,3.4049,3.371,3.3165,3.2395,3.1608,3.1013,3.1348,3.0641,2.9792,2.9901,3.0037,2.993,2.907,2.902,2.8971,2.8217,2.7857,2.7673,2.7625,2.7437,2.7299,2.7299,2.7299,2.7299,2.7299,0.0,0.0,0.0,2.7299,2.7299,2.7299,2.7299,2.7266,2.7168,2.7119,2.7054,2.6975,2.589,2.4939,2.4237,2.4754,2.4834,0.0,0.0,0.0,2.639,2.699,2.6902,2.6094,2.6094,2.5833,2.5333,2.5574,2.5984,2.6511,2.6201,2.6729,2.7768,2.7472,2.7692,2.8196,2.8196,2.7839,2.7424,2.7999,2.7839,2.7442,3.2071,3.2578,3.2581,3.0719,3.0446,3.0462,3.0383,3.0385,3.0365,3.0365,2.9602,2.878,2.7992,2.7121,2.6601,2.6621,2.6621,2.6986,2.7838,2.8646,2.9107,2.9088,2.9088,2.8703,2.7915,2.8665,2.9088,2.9107,0.0,0.0,3.0423,0.0,3.1485,3.1294,3.1291,3.1291,3.1267,3.1002,3.1402,3.2223,3.2761,3.3503,3.4246,3.391,3.3842,3.3895,3.3895,3.3895,3.3908,3.3985,3.3998,3.3876,3.3196,3.2425,3.1626,3.0846,3.0604,3.0368,2.9385,2.9545,2.995,2.9737,2.939,2.9056,2.8921,2.8718,2.8546,2.8401,2.7799,2.7299,2.7299,2.7299,2.7299,2.7299,0.0,0.0,0.0,2.7299,2.7299,2.7299,2.7299,2.7299,2.7299,2.7184,2.7103,2.7103,0.0,2.6649,0.0,0.0,0.0,2.597,2.6837,0.0,2.7085,2.7233,2.6902,2.6094,2.6094,2.6094,2.6111,2.6902,2.7341,2.7494,2.7609,2.7803,2.8014,2.8122,2.8196,2.8196,2.8196,2.8196,2.8196,2.8196,2.8196,2.8196,3.1077,3.1192,3.1163,3.051,3.0419,3.0411,3.041,3.0404,3.0404,3.0404,3.0154,2.9885,2.9635,2.8332,2.7486,2.7486,2.7986,2.8415,0.0,2.9506,2.9717,2.9127,2.9107,2.8973,2.8723,2.8973,2.939,2.9981,0.0,0.0,0.0,3.066,3.0392,3.0396,3.016,3.0458,3.1078,3.0866,3.1534,3.2764,3.2989,3.3424,3.3967,3.3947,3.3895,3.3847,3.3881,3.3868,3.3842,3.3908,3.3959,3.3955,3.3753,3.3154,3.2627,3.2959,3.1795,3.0547,3.1187,3.06,2.9741,2.9542,2.9221,2.8936,2.8925,2.8659,2.8313,2.7763,2.7454,2.7299,2.7299,2.7299,2.7299,2.7299,2.7299,0.0,2.7299,0.0,2.7299,2.7299,2.7299,2.7299,2.7299,2.7266,0.0,0.0,0.0,0.0,0.0,0.0,0.0,0.0,2.6854,0.0,2.7233,2.7282,2.7161,2.6919,2.6919,2.6964,2.707,2.742,2.76,2.7659,2.7821,2.7639,2.7221,2.7927,2.7874,2.7442,2.7981,2.8196,2.8196,2.8196,2.8196,2.8209,3.0707,3.1064,3.124,3.0523,3.0404,3.0404,3.0404,3.0404,3.0404,3.0404,3.0404,3.0404,3.0404,2.9462,0.0,2.8376,2.8819,2.9107,2.9107,2.9929,3.0154,2.9602,2.9583,2.9583,2.9583,2.9583,0.0,3.0404,3.0942,3.1104,3.0901,3.0555,3.0362,3.0294,3.0086,3.0499,3.1373,3.1131,3.1745,3.2931,3.3263,3.3586,3.3842,3.3895,3.3881,3.3829,3.3873,3.3645,3.3403,3.375,3.3613,3.334,3.366,3.3421,3.3038,3.3124,3.1961,3.0693,3.0873,3.0333,2.9647,2.9462,2.9239,2.9044,2.8925,2.8436,2.7937,2.7747,2.7489,2.7299,2.7299,2.7299,2.7299,2.7299,2.7299,2.7299,2.7299,0.0,2.7299,2.7299,2.7299,0.0,0.0,2.7299,2.7266,0.0,0.0,0.0,0.0,0.0,0.0,2.6497,2.7025,2.7299,2.7299,2.7299,2.7299,2.7299,2.736,2.7421,2.7511,2.7627,2.7745,2.7821,2.794,2.7745,2.736,2.7958,2.7892,2.7496,2.7999,2.8196,2.8196,2.8196,2.8209,2.825,3.0847,3.1792,3.238,3.0697,3.0404,3.0404,3.0404,3.0404,3.0404,3.0404,3.0404,3.0404,3.0404,3.0404,3.0077,2.9261,0.0,0.0,2.9184,2.9948,3.0404,3.0404,3.0404,3.0404,3.0404,3.0404,3.0398,3.0373,3.0438,3.0195,2.9729,3.0839,3.1151,3.0798,3.0732,3.1169,3.1955,3.1721,3.2047,3.2863,3.36,3.3895,3.3881,3.3829,3.3805,3.3808,3.3742,3.3201,3.2638,3.3413,3.2981,3.2252,3.3092,3.3288,3.2969,3.1801,3.1325,3.0805,2.9122,2.9111,2.9562,2.9429,2.939,2.9272,2.8956,2.8089,2.7558,2.8196,2.7782,2.7299,2.7299,2.7299,2.7299,2.7299,2.7299,2.7299,2.7299,2.7299,2.7299,2.7299,0.0,0.0,2.7299,2.7299,2.7299,0.0,0.0,0.0,0.0,0.0,2.7168,2.7299,2.7299,2.7299,2.7299,2.7299,2.7299,2.7299,2.7452,2.7511,2.7526,2.7674,2.7836,2.7996,2.7996,2.8049,2.8124,2.8178,2.8178,2.8124,2.8178,2.8196,2.8196,2.8196,2.825,2.83,0.0,0.0,3.0906,3.0467,3.0404,3.0404,3.0404,3.0404,3.0404,3.0404,3.0404,3.0404,3.0404,3.0404,3.0327,3.0115,3.0096,3.0096,3.0096,3.0288,3.0404,3.0404,3.0404,3.0404,3.0404,3.0404,3.0317,3.0176,3.0685,3.0864,3.0756,3.0772,3.0787,3.0778,2.999,3.0412,3.1679,3.1639,3.2379,3.3637,3.3886,3.3908,3.3829,3.3921,3.3526,3.2915,3.2954,3.2414,3.1781,3.2324,3.2355,3.2262,3.2778,3.2986,3.2901,3.215,3.1474,3.088,3.0446,2.9467,2.8693,2.9258,2.9213,2.8956,2.8786,2.8426,2.8023,2.7644,2.742,2.7299,2.7299,2.7299,2.7299,2.7299,2.7299,2.7299,2.7299,2.7299,2.7299,0.0,2.7299,2.7299,2.7299,2.7299,2.7299,0.0,0.0,2.7299,2.7299,2.7266,2.7266,2.7299,2.7299,2.7299,2.7299,2.7299,2.7299,2.7297,2.7539,2.7642,2.7657,2.7954,2.8112,2.8154,2.8154,2.7812,2.7335,2.7946,2.7839,2.7353,2.7964,2.8196,2.8196,2.8264,2.8286,2.8313,3.0534,3.0758,3.0865,3.0462,3.0404,3.0404,3.0404,3.0404,3.0404,3.0404,3.0404,3.0404,3.0404,3.0404,3.0404,3.0404,3.0404,3.0404,3.0404,3.0404,3.0404,3.0404,3.0404,3.0404,3.0404,3.0404,3.0439,3.0563,3.1303,3.1561,3.1429,3.1327,3.1283,3.1235,3.0689,3.1091,3.2187,3.2187,3.2841,3.3895,3.3934,3.3895,3.382,3.3868,3.3598,3.3146,3.3185,3.2562,3.1823,3.244,3.2223,3.1806,3.2387,3.257,3.2445,3.1758,3.116,3.0611,3.0181,2.9161,2.8303,2.8731,2.8874,2.8879,2.8802,2.858,2.8282,2.7885,2.7523,2.7299,2.7299,2.7299,2.7299,2.7299,2.7299,2.7299,2.7299,2.7299,2.7299,2.7299,2.7299,2.7299,2.7299,2.7299,2.7299,2.7299,2.7299,0.0,2.7299,2.7299,2.7299,2.7299,2.7299,2.7299,2.7299,2.7299,2.7299,2.7297,2.7569,2.7701,2.7716,2.8039,2.8196,2.8196,2.8196,2.7946,2.7585,2.8017,2.7946,2.7603,2.8035,2.8223,2.825,2.8286,2.834,2.8406,3.0562,3.1,3.1269,3.0538,3.0519,3.0596,3.0596,3.0596,3.0596,3.0596,3.0481,3.0404,3.0404,3.0404,3.0404,3.0404,3.0404,3.0404,3.0404,3.0404,3.0404,3.0404,3.0367,3.0424,3.0596,3.0687,3.0901,3.1255,3.207,3.2295,3.1979,3.2155,3.2144,3.1979,3.1849,3.2194,3.2883,3.2883,3.3272,3.3881,3.3881,3.3842,3.3807,3.3807,3.3715,3.3623,3.3623,3.2885,3.2025,3.2795,3.2172,3.1215,3.1986,3.2161,3.1969,3.1255,3.0841,3.0389,2.9364,2.8639,2.8208,2.8411,2.8685,2.8947,2.9162,2.8818,2.8435,2.8403,2.7799,2.7299,2.7299,2.7299,2.7299,2.7299,2.7299,2.7299,2.7299,0.0,2.7299,2.7299,2.7299,2.7299,2.7299,2.7329,2.7345,2.7297,2.7329,2.7345,2.7297,2.7299,2.7299,2.7299,2.7299,2.7299,2.7299,2.7299,2.7297,2.7329,2.7585,2.7716,2.7745,2.8053,2.8196,2.8196,2.8196,2.8196,2.8196,2.8196,2.8196,2.8196,2.8196,2.825,2.83,2.8313,2.8375,2.8492,3.0429,3.0519,3.0558,3.0423,3.1,3.1506,3.1506,3.1506,3.1506,3.1506,3.0865,3.0404,3.0404,3.0404,3.0404,3.0404,3.0404,3.0404,3.0404,3.0404,3.0404,3.0404,3.0241,3.056,3.1481,3.1997,3.2164,3.1937,3.2753,3.3032,3.2816,3.285,3.2839,3.2778,3.2109,3.2189,3.281,3.281,3.3196,3.382,3.382,3.382,3.3807,3.3807,3.3385,3.2784,3.2784,3.205,3.1169,3.1685,3.1523,3.1199,3.1722,3.1983,3.2037,3.1736,3.1377,3.0802,2.9463,2.8584,2.8301,2.944,2.9308,2.9195,3.0329,2.96,2.8614,2.8435,2.7799,2.7299,2.7299,2.7299,2.7299,2.7299,2.7299,2.7299,2.7299,0.0,2.7299,2.7299,2.7299,2.7299,2.7299,2.7511,2.7539,2.733,2.7511,2.7539,2.7297,2.7299,2.7299,2.7299,2.7299,2.7299,2.7299,2.7299,2.736,2.7465,2.763,2.7792,2.7954,2.8126,2.8196,2.8196,2.8196,2.8196,2.8196,2.8196,2.8196,2.8196,2.8196,2.825,2.8313,2.8353,2.8432,2.8505,3.1756,3.1756,3.1756,3.1756,3.2083,3.2352,3.2352,3.2352,3.2352,3.2352,3.2006,3.1577,3.1154,3.1096,3.0904,3.0442,3.0404,3.0596,3.1077,3.1096,3.1096,3.1096,3.1431,3.1788,3.217,3.271,3.2902,3.275,3.3437,3.3746,3.364,3.364,3.3628,3.3573,3.3202,3.3167,3.3393,3.3393,3.355,3.3807,3.3807,3.3807,3.3807,3.3807,3.3568,3.3211,3.3049,3.2509,3.193,3.1962,3.174,3.1515,3.1734,3.1856,3.1928,3.1837,3.1427,3.0833,2.9855,2.9339,2.9233,2.9859,2.999,3.0136,3.0767,2.9987,2.9227,2.9575,2.8385,2.742,2.7816,2.7558,2.7299,2.7299,2.7299,0.0,2.7299,2.7299,2.7299,2.7299,2.7299,2.7299,2.7299,2.7405,2.7436,2.7315,2.7421,2.7436,2.7315,2.7299,2.7299,2.7299,2.7299,2.7299,2.7299,2.7299,2.7376,2.7496,2.7644,2.7821,2.7996,2.814,2.8196,2.8196,2.8196,2.8196,2.8196,2.8196,2.8196,2.8196,2.825,2.8286,2.8353,2.8432,2.8582,2.8761,3.2891,3.2891,3.2891,3.2891,3.3064,3.3199,3.3199,3.3199,3.3199,3.3199,3.3026,3.266,3.2045,3.1987,3.1641,3.0788,3.0865,3.1192,3.1679,3.2064,3.2199,3.1987,3.2724,3.2984,3.2703,3.3286,3.3572,3.3507,3.3964,3.4197,3.4197,3.4185,3.4148,3.4099,3.4086,3.4011,3.3895,3.3895,3.3855,3.3807,3.3807,3.3807,3.3807,3.3807,3.3807,3.3766,3.3422,3.3093,3.2747,3.2403,3.2073,3.18,3.18,3.18,3.18,3.18,3.1459,3.0977,3.0346,3.0063,2.9992,3.0134,3.0522,3.0924,3.1081,3.03,2.973,3.03,2.8764,2.7471,2.804,2.7678,2.7299,2.7299,0.0,2.7299,0.0,2.7299,2.7299,2.7299,2.7299,2.7299,2.7299,2.736,2.7376,2.7297,2.736,2.7376,2.7297,2.7454,2.7558,2.7558,2.7385,2.7299,2.7299,2.7329,2.7405,2.7539,2.7704,2.7864,2.8056,2.8154,2.8196,2.8196,2.8196,2.8196,2.8196,2.8196,2.8196,2.8196,2.8273,2.834,2.8411,2.8484,2.87,2.8996,3.2891,3.2891,3.2891,3.2891,3.3564,3.4109,3.4109,3.4109,3.4109,3.4109,3.3391,3.2872,3.2814,3.2814,3.2487,3.1679,3.2295,3.2429,3.1737,3.3141,3.3667,3.2852,3.3453,3.3559,3.297,3.3989,3.4379,3.4128,3.4191,3.4197,3.4197,3.4136,3.4099,3.4099,3.4036,3.3972,3.3895,3.3895,3.3855,3.3807,3.3807,3.3807,3.3807,3.3807,3.3807,3.3766,3.3422,3.3093,3.2747,3.2403,3.2073,3.18,3.18,3.18,3.18,3.18,3.1766,3.1559,3.0835,3.0231,2.9951,3.0508,3.0786,3.1046,3.1614,3.0716,2.9726,2.9609,2.8368,2.7316,2.7368,2.7333,2.7299,2.7299,0.0,0.0,2.7299,2.7299,2.7299,2.7299,2.7299,2.7299,2.7299,2.7509,2.7569,2.7313,2.7524,2.7554,2.7297,2.7937,2.8316,2.8316,2.7661,2.7299,2.7299,2.7421,2.7539,2.7686,2.7879,2.8056,2.82,2.8213,2.8196,2.8196,2.8196,2.8196,2.8196,2.8196,2.8196,2.8196,2.8273,2.834,2.8411,2.8484,2.8707,2.9004,3.45,3.45,3.45,3.45,3.4795,3.5007,3.5007,3.5007,3.5007,3.5007,3.4712,3.4314,3.3776,3.3705,3.3372,3.2526,3.2718,3.3006,3.3237,3.3733,3.4117,3.432,3.4336,3.423,3.3994,3.4225,3.4305,3.4197,3.4197,3.4185,3.4136,3.4161,3.4099,3.3972,3.3998,3.3934,3.3847,3.3847,3.3815,3.3807,3.3807,3.3807,3.3807,3.3807,3.3807,3.3721,3.3184,3.2905,3.2715,3.2179,3.1911,3.18,3.18,3.18,3.18,3.18,3.18,3.1731,3.1455,3.1216,3.1096,3.1318,3.1406,3.139,3.1163,3.0715,3.0197,2.9627,2.8696,2.8127,2.8575,2.8282,2.8127,2.8592,0.0,2.8506,2.804,2.7971,2.7799,2.7351,2.7299,2.7299,2.7299,2.739,2.7405,2.7315,2.739,2.7613,2.7954,2.8247,2.8403,2.8403,2.7773,2.7421,2.7421,2.7465,2.7632,2.7896,2.7954,2.8071,2.8196,2.8196,2.8196,2.8196,2.8196,2.8223,2.8259,2.8259,2.8291,2.8331,2.8406,2.8445,2.8484,2.8582,2.8779,2.902,3.55,3.55,3.55,3.55,3.55,3.55,3.55,3.55,3.55,3.55,3.55,3.5269,3.4661,3.4603,3.4257,3.3372,3.3564,3.3853,3.4186,3.4205,3.4452,3.4981,3.4751,3.455,3.4484,3.4293,3.4197,3.4197,3.4197,3.4173,3.4136,3.4161,3.4086,3.3934,3.3959,3.3908,3.3807,3.3807,3.3807,3.3807,3.3807,3.3807,3.3807,3.3807,3.3807,3.3707,3.3029,3.2795,3.27,3.2037,3.18,3.18,3.18,3.18,3.18,3.18,3.18,3.18,3.18,3.18,3.18,3.18,3.18,3.1662,3.1145,3.0886,3.0524,2.9989,2.9265,2.8903,2.942,2.9092,2.892,2.942,2.9506,2.9248,2.8506,2.8403,2.8127,2.7385,2.7489,2.7644,2.7644,2.7644,2.7794,2.8131,2.7892,2.8187,2.9207,2.9001,2.8951,2.9176,2.8562,2.8119,2.7938,2.7754,2.7766,2.8014,2.8042,2.8112,2.8196,2.8196,2.8196,2.8196,2.8223,2.8264,2.83,2.8327,2.8353,2.8411,2.8466,2.8505,2.8549,2.8657,2.8838,2.9097,3.55,3.55,3.55,3.55,3.55,3.55,3.55,3.55,3.55,3.55,3.55,3.55,3.55,3.55,3.5154,3.4282,3.5007,3.5135,3.4276,3.4639,3.4811,3.4612,3.4602,3.4473,3.4228,3.4197,3.4197,3.4197,3.4197,3.4197,3.4197,3.4136,3.4061,3.3998,3.3952,3.3873,3.3807,3.3807,3.3807,3.3807,3.3807,3.3807,3.3807,3.3807,3.3807,3.3707,3.3045,3.2795,3.2699,3.2037,3.18,3.18,3.18,3.18,3.18,3.18,3.18,3.18,3.18,3.18,3.18,3.18,3.18,3.18,3.1783,3.1231,3.0714,3.0679,3.0058,2.9506,2.9506,2.9506,2.9523,2.9523,2.9523,2.9265,2.8523,2.842,2.8127,2.7418,2.7954,2.8403,2.8403,2.8403,2.886,2.9897,2.9206,2.9452,3.1107,3.0326,3.014,3.0872,3.0174,2.9524,2.8895,2.8303,2.8014,2.7996,2.814,2.8196,2.8196,2.8196,2.8196,2.8196,2.8259,2.83,2.8313,2.8367,2.8411,2.8406,2.8484,2.8531,2.8612,2.8687,2.8915,2.923,3.55,3.55,3.55,3.55,3.55,3.55,3.55,3.55,3.55,3.55,3.55,3.55,3.55,3.55,3.5404,3.5135,3.5346,3.5503,3.5538,3.553,3.5679,3.6062,3.495,3.456,3.5101,3.4513,3.4197,3.4197,3.4197,3.4173,3.4136,3.4161,3.4086,3.397,3.4592,3.4797,3.4637,3.4637,3.4637,3.4582,3.4027,3.3807,3.3807,3.3807,3.3807,3.3734,3.3302,3.3001,3.2731,3.2301,3.1984,3.18,3.18,3.18,3.18,3.18,3.18,3.18,3.18,3.18,3.18,3.18,3.18,3.1662,3.1163,3.1248,3.1162,3.0075,3.011,3.0334,3.0334,3.0334,3.0506,3.1024,3.111,3.0851,3.011,2.9523,2.9176,2.9193,2.8926,2.878,2.8873,2.9528,2.9811,2.9464,3.038,3.1046,3.1257,3.1092,3.0731,3.0158,3.0143,2.9543,2.8282,2.8608,2.8557,2.814,2.8168,2.8196,2.8196,2.8196,2.8223,2.8259,2.8286,2.8353,2.8427,2.8471,2.8536,2.8607,2.8632,2.8687,2.8749,2.8822,2.9019,2.9304,3.55,3.55,3.55,3.55,3.55,3.5615,3.5923,3.5692,3.5615,3.5923,3.5692,3.55,3.55,3.55,3.55,3.55,3.5424,3.5597,3.6064,3.5924,3.6213,3.7127,3.5887,3.5454,3.5956,3.5144,3.4699,3.4699,3.4364,3.4185,3.4136,3.4161,3.4259,3.4487,3.5034,3.5354,3.55,3.55,3.5316,3.4986,3.4853,3.4394,3.3825,3.4156,3.4082,3.3766,3.3422,3.3093,3.2747,3.2403,3.2073,3.18,3.18,3.18,3.18,3.18,3.18,3.18,3.18,3.18,3.18,3.18,3.18,3.1679,3.1231,3.1472,3.1541,3.0593,3.08,3.1127,3.1127,3.1127,3.1282,3.1731,3.18,3.1541,3.08,3.0421,3.005,2.9613,2.9865,2.9994,2.9768,3.0571,3.0909,3.0417,3.1779,3.2347,3.1658,3.1622,3.1127,3.0024,3.0196,2.9703,2.846,2.8965,2.8877,2.8196,2.8196,2.8209,2.825,2.825,2.8277,2.834,2.8367,2.8432,2.8492,2.8536,2.8594,2.8694,2.8694,2.8761,2.8846,2.8917,2.9115,2.9365,3.55,3.55,3.5519,3.5596,3.5615,3.5885,3.6692,3.6192,3.5981,3.6712,3.6115,3.5615,3.5615,3.5538,3.55,3.55,3.5366,3.5519,3.6043,3.5948,3.6489,3.7833,3.7188,3.6798,3.6798,3.5956,3.551,3.551,3.4637,3.4197,3.4197,3.4136,3.4542,3.5296,3.5302,3.5712,3.6413,3.6413,3.5954,3.5279,3.5917,3.5275,3.3972,3.4637,3.4435,3.3748,3.3451,3.3139,3.2779,3.242,3.2073,3.18,3.18,3.18,3.18,3.18,3.18,3.18,3.18,3.18,3.18,3.18,3.18,3.18,3.18,3.18,3.18,3.18,3.18,3.1818,3.1837,3.1818,3.1818,3.1837,3.1818,3.1577,3.094,3.1112,3.0811,2.9465,3.0868,3.1657,3.094,3.1546,3.2083,3.2356,3.3286,3.3332,3.2187,3.1941,3.1356,3.028,3.03,2.9928,2.9057,2.9308,2.9008,2.8196,2.8196,2.8237,2.83,2.83,2.834,2.8406,2.8466,2.8492,2.8505,2.8587,2.865,2.8706,2.8731,2.8827,2.8945,2.9033,2.9235,2.9474,3.55,3.55,3.5692,3.6327,3.6442,3.6731,3.7584,3.7565,3.7526,3.77,3.6962,3.6442,3.6442,3.5885,3.55,3.55,3.576,3.5892,3.5862,3.6259,3.6918,3.7856,3.7726,3.7634,3.7634,3.6235,3.551,3.551,3.4637,3.4197,3.4197,3.4185,3.4574,3.5333,3.5947,3.6597,3.7235,3.7235,3.7125,3.6868,3.572,3.5059,3.4692,3.4215,3.3954,3.3775,3.3721,3.348,3.3093,3.2504,3.2073,3.18,3.18,3.18,3.18,3.18,3.18,3.18,3.18,3.18,3.18,3.18,3.18,3.18,3.18,3.18,3.18,3.18,3.18,3.1855,3.2018,3.191,3.1855,3.2001,3.1893,3.1841,3.2004,3.1595,3.1602,3.2412,3.2383,3.2261,3.2203,3.2384,3.2868,3.3703,3.3975,3.3591,3.2397,3.2297,3.1519,2.9886,3.0402,3.0032,2.8645,2.9314,2.9143,2.8196,2.8196,2.8237,2.83,2.83,2.8367,2.8484,2.8479,2.8536,2.8587,2.8644,2.8724,2.8798,2.9019,2.9174,2.9301,2.9474,2.9678,2.9901,3.55,3.5808,3.6212,3.6635,3.7038,3.7603,3.8488,3.8277,3.8142,3.8565,3.7853,3.7161,3.675,3.6327,3.6077,3.6077,3.6087,3.6221,3.6505,3.6994,3.7448,3.7875,3.7894,3.7894,3.7894,3.6328,3.551,3.551,3.4637,3.4197,3.4197,3.4173,3.4778,3.594,3.6297,3.7075,3.8121,3.8095,3.7639,3.6886,3.6395,3.5477,3.4472,3.4853,3.4504,3.3844,3.4215,3.3807,3.2986,3.247,3.2073,3.18,3.18,3.18,3.18,3.18,3.18,3.18,3.18,3.18,3.18,3.18,3.18,3.1886,3.2231,3.2317,3.2421,3.2817,3.2668,3.2466,3.2484,3.219,3.2019,3.2214,3.2162,3.2231,3.2632,3.2514,3.2538,3.2931,3.3146,3.3288,3.3352,3.3389,3.3636,3.416,3.4197,3.3716,3.2608,3.2184,3.1313,2.9893,2.9836,2.9409,2.851,2.8951,2.886,2.825,2.825,2.83,2.8406,2.8406,2.8458,2.8549,2.8549,2.8587,2.865,2.87,2.8755,2.8863,2.9134,2.9312,2.9443,2.9662,2.9899,3.0129,3.5904,3.6462,3.6962,3.7123,3.7738,3.8507,3.9381,3.8892,3.8681,3.9419,3.8757,3.795,3.7219,3.7,3.6916,3.6875,3.6696,3.6775,3.7225,3.7691,3.7947,3.7907,3.7894,3.7894,3.7894,3.6588,3.5789,3.551,3.4637,3.4197,3.4197,3.4297,3.5149,3.6591,3.6616,3.7425,3.8792,3.8719,3.7936,3.6762,3.729,3.6281,3.4541,3.5661,3.522,3.4082,3.4601,3.3971,3.2842,3.2553,3.2249,3.1966,3.1966,3.1966,3.1966,3.1966,3.207,3.2192,3.2192,3.2174,3.2138,3.2138,3.2119,3.2256,3.286,3.2876,3.2995,3.3831,3.3496,3.3013,3.294,3.2544,3.2266,3.2519,3.2518,3.2632,3.3054,3.3378,3.3382,3.2776,3.358,3.4197,3.4197,3.4197,3.4197,3.4197,3.4197,3.3784,3.2804,3.209,3.1207,3.0131,2.9429,2.8943,2.8614,2.8694,2.8619,2.8388,2.8388,2.8427,2.8492,2.8492,2.8549,2.86,2.8612,2.865,2.8694,2.8718,2.8791,2.8922,2.9241,2.9395,2.9493,2.9782,3.0044,3.0241,3.7507,3.7757,3.8065,3.8815,3.9053,3.94,4.0208,4.0246,4.0208,4.0323,3.9631,3.9092,3.895,3.8277,3.7744,3.7589,3.8143,3.8099,3.7107,3.7805,3.8147,3.7907,3.7894,3.7894,3.7894,3.7689,3.6904,3.551,3.4637,3.4197,3.4216,3.4959,3.5762,3.6641,3.7244,3.7985,3.8792,3.8719,3.8579,3.8322,3.7749,3.7309,3.6868,3.5628,3.5041,3.4766,3.416,3.366,3.3232,3.3169,3.2954,3.265,3.265,3.265,3.265,3.265,3.3164,3.3697,3.3697,3.363,3.3528,3.3528,3.3407,3.33,3.3404,3.279,3.2456,3.3404,3.2967,3.2545,3.2928,3.2791,3.275,3.3108,3.3027,3.3069,3.3449,3.3565,3.3697,3.3932,3.4099,3.4197,3.4197,3.4197,3.4197,3.4197,3.4197,3.3844,3.3003,3.2681,3.1918,3.0557,3.0305,2.9836,2.9112,2.9228,2.9101,2.873,2.873,2.8639,2.8492,2.8492,2.8549,2.86,2.8662,2.8682,2.8706,2.8834,2.8875,2.8945,2.9455,2.9644,2.9713,3.0163,3.0333,3.0381,3.7911,3.8392,3.8854,3.9227,3.9669,4.0092,4.0458,4.0496,4.0496,4.0496,4.0189,3.9804,3.9361,3.8527,3.8158,3.855,3.8688,3.8495,3.7929,3.8433,3.8505,3.7926,3.7894,3.7894,3.7894,3.7448,3.6649,3.551,3.512,3.4934,3.4922,3.5324,3.6153,3.7339,3.7586,3.8124,3.8851,3.8735,3.8432,3.7991,3.7639,3.7235,3.6758,3.6009,3.5426,3.4894,3.41,3.3578,3.3306,3.3306,3.3078,3.2795,3.2795,3.2795,3.2795,3.2795,3.3396,3.4053,3.4053,3.4409,3.4749,3.4749,3.4683,3.4724,3.5083,3.4618,3.4245,3.4691,3.4712,3.4532,3.4189,3.3888,3.3656,3.3488,3.3397,3.3482,3.3884,3.3935,3.3999,3.4185,3.4197,3.4197,3.4197,3.4197,3.4197,3.4197,3.4197,3.4085,3.3801,3.3266,3.2724,3.2187,3.1632,3.0897,3.0002,3.0085,2.975,2.9027,2.9071,2.8959,2.8779,2.8767,2.8855,2.8993,2.8936,2.8943,2.8984,2.8922,2.8952,2.9067,2.9523,2.9864,3.0117,3.0321,3.0414,3.046]}]]